[[{"header":{"parameterUnit":"m.s-1","parameterCategory":1,"la1":30.6,"la2":28.766,"lo1":-90.7593,"lo2":-88.6598,"dy":0.0162,"dx":0.0183,"nx":116,"ny":114,"refTime":"2023-08-19T06:00:00:Z","depth":0,"parameterNumber":2,"parameterNumberName":"U-component_of_WINDS"},"data":[0.0,0.0,0.0,0.0,0.0,0.0,0.0,0.0,0.0,0.0,0.0,0.0,0.0,0.0,0.0,0.0,0.0,0.0,0.0,0.0,0.0,0.0,0.0,0.0,0.0,0.0,0.0,0.0,0.0,0.0,0.0,0.0,0.0,0.0,0.0,0.0,0.0,0.0,0.0,0.0,0.0,0.0,0.0,0.0,0.0,0.0,0.0,0.0,0.0,0.0,0.0,0.0,0.0,0.0,0.0,0.0,0.0,0.0,0.0,0.0,0.0,0.0,0.0,0.0,0.0,0.0,0.0,0.0,0.0,0.0,0.0,0.0,0.0,0.0,0.0,0.0,0.0,0.0,0.0,0.0,0.0,0.0,0.0,0.0,0.0,0.0,0.0,0.0,0.0,0.0,0.0,0.0,0.0,0.0,0.0,0.0,0.0,0.0,0.0,0.0,0.0,0.0,0.0,0.0,0.0,0.0,0.0,0.0,0.0,0.0,0.0,0.0,0.0,0.0,0.0,0.0,0.0,0.0,0.0,0.0,0.0,0.0,0.0,0.0,0.0,0.0,0.0,0.0,0.0,0.0,0.0,0.0,0.0,0.0,0.0,0.0,0.0,0.0,0.0,0.0,0.0,0.0,0.0,0.0,0.0,0.0,0.0,0.0,0.0,0.0,0.0,0.0,0.0,0.0,0.0,0.0,0.0,0.0,0.0,0.0,0.0,0.0,0.0,0.0,0.0,0.0,0.0,0.0,0.0,0.0,0.0,0.0,0.0,0.0,0.0,0.0,0.0,0.0,0.0,0.0,0.0,0.0,0.0,0.0,0.0,0.0,0.0,0.0,0.0,0.0,0.0,0.0,0.0,0.0,0.0,0.0,0.0,0.0,0.0,0.0,0.0,0.0,0.0,0.0,0.0,0.0,0.0,0.0,0.0,0.0,0.0,0.0,0.0,0.0,0.0,0.0,0.0,0.0,0.0,0.0,0.0,0.0,0.0,0.0,0.0,0.0,0.0,0.0,0.0,0.0,0.0,0.0,0.0,0.0,0.0,0.0,0.0,0.0,0.0,0.0,0.0,0.0,0.0,0.0,0.0,0.0,0.0,0.0,0.0,0.0,0.0,0.0,0.0,0.0,0.0,0.0,0.0,0.0,0.0,0.0,0.0,0.0,0.0,0.0,0.0,0.0,0.0,0.0,0.0,0.0,0.0,0.0,0.0,0.0,0.0,0.0,0.0,0.0,0.0,0.0,0.0,0.0,0.0,0.0,0.0,0.0,0.0,0.0,0.0,0.0,0.0,0.0,0.0,0.0,0.0,0.0,0.0,0.0,0.0,0.0,0.0,0.0,0.0,0.0,0.0,0.0,0.0,0.0,0.0,0.0,0.0,0.0,0.0,0.0,0.0,0.0,0.0,0.0,0.0,0.0,0.0,0.0,0.0,0.0,0.0,0.0,0.0,0.0,0.0,0.0,0.0,0.0,0.0,0.0,0.0,0.0,0.0,0.0,0.0,0.0,0.0,0.0,0.0,0.0,0.0,0.0,0.0,0.0,0.0,0.0,0.0,0.0,0.0,0.0,0.0,0.0,0.0,0.0,0.0,0.0,0.0,0.0,0.0,0.0,0.0,0.0,0.0,0.0,0.0,0.0,0.0,0.0,0.0,0.0,0.0,0.0,0.0,0.0,0.0,0.0,0.0,0.0,0.0,0.0,0.0,0.0,0.0,0.0,0.0,0.0,0.0,0.0,0.0,0.0,0.0,0.0,0.0,0.0,0.0,0.0,0.0,0.0,0.0,0.0,0.0,0.0,0.0,0.0,0.0,0.0,0.0,0.0,0.0,0.0,0.0,0.0,0.0,0.0,0.0,0.0,0.0,0.0,0.0,0.0,0.0,0.0,0.0,0.0,0.0,0.0,0.0,0.0,0.0,0.0,0.0,0.0,0.0,0.0,0.0,0.0,0.0,0.0,0.0,0.0,0.0,0.0,0.0,0.0,0.0,0.0,0.0,0.0,0.0,0.0,0.0,0.0,0.0,0.0,0.0,0.0,0.0,0.0,0.0,0.0,0.0,0.0,0.0,0.0,0.0,0.0,0.0,0.0,0.0,0.0,0.0,0.0,0.0,0.0,0.0,0.0,0.0,0.0,0.0,0.0,0.0,0.0,0.0,0.0,0.0,0.0,0.0,0.0,0.0,0.0,0.0,0.0,0.0,0.0,0.0,0.0,0.0,0.0,0.0,0.0,0.0,0.0,0.0,0.0,0.0,0.0,0.0,0.0,0.0,0.0,0.0,0.0,0.0,0.0,0.0,0.0,0.0,0.0,0.0,0.0,0.0,0.0,0.0,0.0,0.0,0.0,0.0,0.0,0.0,0.0,0.0,0.0,0.0,0.0,0.0,0.0,0.0,0.0,0.0,0.0,0.0,0.0,0.0,0.0,0.0,0.0,0.0,0.0,0.0,0.0,0.0,0.0,0.0,0.0,0.0,0.0,0.0,0.0,0.0,0.0,0.0,0.0,0.0,0.0,0.0,0.0,0.0,0.0,0.0,0.0,0.0,0.0,0.0,0.0,0.0,0.0,0.0,0.0,0.0,0.0,0.0,0.0,0.0,0.0,0.0,0.0,0.0,0.0,0.0,0.0,0.0,0.0,0.0,0.0,0.0,0.0,0.0,0.0,0.0,0.0,0.0,0.0,0.0,0.0,0.0,0.0,0.0,0.0,0.0,0.0,0.0,0.0,0.0,0.0,0.0,0.0,0.0,0.0,0.0,0.0,0.0,0.0,0.0,0.0,0.0,0.0,0.0,0.0,0.0,0.0,0.0,0.0,0.0,0.0,0.0,0.0,0.0,0.0,0.0,0.0,0.0,0.0,0.0,0.0,0.0,0.0,0.0,0.0,0.0,0.0,0.0,0.0,0.0,0.0,0.0,0.0,0.0,0.0,0.0,0.0,0.0,0.0,0.0,0.0,0.0,0.0,0.0,0.0,0.0,0.0,0.0,0.0,0.0,0.0,0.0,0.0,0.0,0.0,0.0,0.0,0.0,0.0,0.0,0.0,0.0,0.0,0.0,0.0,0.0,0.0,0.0,0.0,0.0,0.0,0.0,0.0,0.0,0.0,0.0,0.0,0.0,0.0,0.0,0.0,0.0,0.0,0.0,0.0,0.0,0.0,0.0,0.0,0.0,0.0,0.0,0.0,0.0,0.0,0.0,0.0,0.0,0.0,0.0,0.0,0.0,0.0,0.0,0.0,0.0,0.0,0.0,0.0,0.0,0.0,0.0,0.0,0.0,0.0,0.0,0.0,0.0,0.0,0.0,0.0,0.0,0.0,0.0,0.0,0.0,0.0,0.0,0.0,0.0,0.0,0.0,0.0,0.0,0.0,0.0,0.0,0.0,0.0,0.0,0.0,0.0,0.0,0.0,0.0,0.0,0.0,0.0,0.0,0.0,0.0,0.0,0.0,0.0,0.0,0.0,0.0,0.0,0.0,0.0,0.0,0.0,0.0,0.0,0.0,0.0,0.0,0.0,0.0,0.0,0.0,0.0,0.0,0.0,0.0,0.0,0.0,0.0,0.0,0.0,0.0,0.0,0.0,0.0,0.0,0.0,0.0,0.0,0.0,0.0,0.0,0.0,0.0,0.0,0.0,0.0,0.0,0.0,0.0,0.0,0.0,0.0,0.0,0.0,0.0,0.0,0.0,0.0,0.0,0.0,0.0,0.0,0.0,0.0,0.0,0.0,0.0,0.0,0.0,0.0,0.0,0.0,0.0,0.0,0.0,0.0,0.0,0.0,0.0,0.0,0.0,0.0,0.0,0.0,0.0,0.0,0.0,0.0,0.0,0.0,0.0,0.0,0.0,0.0,0.0,0.0,0.0,0.0,0.0,0.0,0.0,0.0,0.0,0.0,0.0,0.0,0.0,0.0,0.0,0.0,0.0,0.0,0.0,0.0,0.0,0.0,0.0,0.0,0.0,0.0,0.0,0.0,0.0,0.0,0.0,0.0,0.0,0.0,0.0,0.0,0.0,0.0,0.0,0.0,0.0,0.0,0.0,0.0,0.0,0.0,0.0,0.0,0.0,0.0,0.0,0.0,0.0,0.0,0.0,0.0,0.0,0.0,0.0,0.0,0.0,0.0,0.0,0.0,0.0,0.0,0.0,0.0,0.0,0.0,0.0,0.0,0.0,0.0,0.0,0.0,0.0,0.0,0.0,0.0,0.0,0.0,0.0,0.0,0.0,0.0,0.0,0.0,0.0,0.0,0.0,0.0,0.0,0.0,0.0,0.0,0.0,0.0,0.0,0.0,0.0,0.0,0.0,0.0,0.0,0.0,0.0,0.0,0.0,0.0,0.0,0.0,0.0,0.0,0.0,0.0,0.0,0.0,0.0,0.0,0.0,0.0,0.0,0.0,0.0,0.0,0.0,0.0,0.0,0.0,0.0,0.0,0.0,0.0,0.0,0.0,0.0,0.0,0.0,0.0,0.0,0.0,0.0,0.0,0.0,0.0,0.0,0.0,0.0,0.0,0.0,0.0,0.0,0.0,0.0,0.0,0.0,0.0,0.0,0.0,0.0,0.0,0.0,0.0,0.0,0.0,0.0,0.0,0.0,0.0,0.0,0.0,0.0,0.0,0.0,0.0,0.0,0.0,0.0,0.0,0.0,0.0,0.0,0.0,0.0,0.0,0.0,0.0,0.0,0.0,0.0,0.0,0.0,0.0,0.0,0.0,0.0,0.0,0.0,0.0,0.0,0.0,0.0,0.0,0.0,0.0,0.0,0.0,0.0,0.0,0.0,0.0,0.0,0.0,0.0,0.0,0.0,0.0,0.0,0.0,0.0,0.0,0.0,0.0,0.0,0.0,0.0,0.0,0.0,0.0,0.0,0.0,0.0,0.0,0.0,0.0,0.0,0.0,0.0,0.0,0.0,0.0,0.0,0.0,0.0,0.0,0.0,0.0,0.0,0.0,0.0,0.0,0.0,0.0,0.0,0.0,0.0,0.0,0.0,0.0,0.0,0.0,0.0,0.0,0.0,0.0,0.0,0.0,0.0,0.0,0.0,0.0,0.0,0.0,0.0,0.0,0.0,0.0,0.0,0.0,0.0,0.0,0.0,0.0,0.0,0.0,0.0,0.0,0.0,0.0,0.0,0.0,0.0,0.0,0.0,0.0,0.0,0.0,0.0,0.0,0.0,0.0,0.0,0.0,0.0,0.0,0.0,0.0,0.0,0.0,0.0,0.0,0.0,0.0,0.0,0.0,0.0,0.0,0.0,0.0,0.0,0.0,0.0,0.0,0.0,0.0,0.0,0.0,0.0,0.0,0.0,0.0,0.0,0.0,0.0,0.0,0.0,0.0,0.0,0.0,0.0,0.0,0.0,0.0,0.0,0.0,0.0,0.0,0.0,0.0,0.0,0.0,0.0,0.0,0.0,0.0,0.0,0.0,0.0,0.0,0.0,0.0,0.0,0.0,0.0,0.0,0.0,0.0,0.0,0.0,0.0,0.0,0.0,0.0,0.0,0.0,0.0,0.0,0.0,0.0,0.0,0.0,0.0,0.0,0.0,0.0,0.0,0.0,0.0,0.0,0.0,0.0,0.0,0.0,0.0,0.0,0.0,0.0,0.0,0.0,0.0,0.0,0.0,0.0,0.0,0.0,0.0,0.0,0.0,0.0,0.0,0.0,0.0,0.0,0.0,0.0,0.0,0.0,0.0,0.0,0.0,0.0,0.0,0.0,0.0,0.0,0.0,0.0,0.0,0.0,0.0,0.0,0.0,0.0,0.0,0.0,0.0,0.0,0.0,0.0,0.0,0.0,0.0,0.0,0.0,0.0,0.0,0.0,0.0,0.0,0.0,0.0,0.0,0.0,0.0,0.0,0.0,0.0,0.0,0.0,0.0,0.0,0.0,0.0,0.0,0.0,0.0,0.0,0.0,0.0,0.0,0.0,0.0,0.0,0.0,0.0,0.0,0.0,0.0,0.0,0.0,0.0,0.0,0.0,0.0,0.0,0.0,0.0,0.0,0.0,0.0,0.0,0.0,0.0,0.0,0.0,0.0,0.0,0.0,0.0,0.0,0.0,0.0,0.0,0.0,0.0,0.0,0.0,0.0,2.4201,2.3767,0.0,0.0,0.0,0.0,0.0,0.0,0.0,0.0,0.0,0.0,0.0,0.0,0.0,0.0,0.0,0.0,0.0,0.0,0.0,0.0,0.0,0.0,0.0,0.0,0.0,0.0,0.0,0.0,0.0,0.0,0.0,0.0,0.0,0.0,0.0,0.0,0.0,0.0,1.4946,1.5924,1.7394,1.6893,1.6637,1.6587,0.0,0.0,0.0,0.0,0.0,0.0,0.0,0.0,0.0,0.0,0.0,0.0,0.0,0.0,0.0,0.0,0.0,0.0,0.0,0.0,0.0,0.0,0.0,0.0,0.0,0.0,0.0,0.0,0.0,0.0,0.0,0.0,0.0,0.0,0.0,0.0,0.0,0.0,0.0,0.0,0.0,0.0,0.0,0.0,0.0,0.0,0.0,0.0,0.0,0.0,0.0,0.0,0.0,0.0,0.0,0.0,0.0,0.0,0.0,0.0,0.0,0.0,0.0,0.0,0.0,0.0,0.0,0.0,0.0,0.0,2.5197,2.4524,0.0,0.0,0.0,0.0,0.0,0.0,0.0,0.0,0.0,0.0,0.0,0.0,0.0,0.0,0.0,0.0,0.0,0.0,0.0,0.0,0.0,0.0,0.0,0.0,0.0,0.0,0.0,0.0,0.0,0.0,0.0,0.0,0.0,0.0,0.0,0.0,0.0,0.0,1.6417,1.7625,1.8879,1.892,1.8434,1.7506,1.701,0.0,0.0,0.0,0.0,0.0,0.0,0.0,0.0,0.0,0.0,0.0,0.0,0.0,0.0,0.0,0.0,0.0,0.0,0.0,0.0,0.0,0.0,0.0,0.0,0.0,0.0,0.0,0.0,0.0,0.0,0.0,0.0,0.0,0.0,0.0,0.0,0.0,0.0,0.0,0.0,0.0,0.0,0.0,0.0,0.0,0.0,0.0,0.0,0.0,0.0,0.0,0.0,0.0,0.0,0.0,0.0,0.0,0.0,0.0,0.0,0.0,0.0,0.0,2.6009,2.6327,2.6364,2.708,2.7492,2.7574,2.602,2.5286,2.5147,2.4436,0.0,0.0,0.0,0.0,0.0,0.0,0.0,0.0,0.0,0.0,0.0,0.0,0.0,0.0,0.0,0.0,0.0,0.0,0.0,0.0,0.0,0.0,1.3275,1.3207,1.3267,1.3275,0.0,0.0,0.0,0.0,0.0,0.0,0.0,1.4563,1.5455,1.6806,1.8737,1.979,1.9975,1.9646,1.9403,1.9223,1.83,1.8114,1.8469,0.0,0.0,0.0,0.0,0.0,0.0,0.0,0.0,0.0,0.0,0.0,0.0,0.0,0.0,0.0,0.0,0.0,0.0,0.0,0.0,0.0,0.0,0.0,0.0,0.0,0.0,0.0,0.0,0.0,0.0,0.0,0.0,0.0,0.0,0.0,0.0,0.0,0.0,0.0,0.0,0.0,2.3412,2.3464,0.0,0.0,0.0,0.0,0.0,0.0,0.0,0.0,0.0,0.0,0.0,0.0,0.0,2.6186,2.6968,2.7145,2.722,2.7223,2.7511,2.7646,2.7646,2.7764,2.783,2.7846,2.7599,0.0,2.7186,2.679,0.0,0.0,0.0,0.0,0.0,0.0,0.0,0.0,0.0,0.0,0.0,0.0,0.0,0.0,0.0,0.0,0.0,0.0,0.0,0.0,0.0,1.359,1.3682,1.3909,1.371,1.359,1.359,0.0,0.0,0.0,0.0,0.0,1.4984,1.5524,1.6694,1.8506,1.9411,2.0126,2.0635,2.0198,2.0129,2.0358,1.9401,1.8769,1.8396,1.819,0.0,0.0,0.0,0.0,0.0,0.0,0.0,0.0,0.0,0.0,0.0,0.0,0.0,0.0,0.0,0.0,0.0,0.0,0.0,0.0,0.0,0.0,0.0,0.0,0.0,0.0,0.0,0.0,0.0,0.0,0.0,0.0,0.0,0.0,0.0,0.0,0.0,0.0,0.0,2.3604,2.4195,2.4195,2.4128,2.4194,0.0,0.0,0.0,0.0,0.0,0.0,0.0,0.0,0.0,2.6207,2.6408,2.675,2.7234,2.7339,2.7381,2.7381,2.7924,2.8172,2.8191,2.8686,2.8915,2.8915,2.8915,2.8936,2.8843,2.7604,2.7009,2.6784,0.0,0.0,0.0,0.0,2.5745,2.5617,0.0,0.0,0.0,0.0,0.0,0.0,0.0,0.0,0.0,0.0,0.0,0.0,1.386,1.4,1.4165,1.447,1.4125,1.3967,1.4104,1.4104,0.0,0.0,0.0,1.5219,1.5455,1.6534,1.7965,1.9751,1.9766,2.0198,2.0999,2.0414,2.0338,2.0632,1.9989,1.9303,1.866,1.855,1.8204,1.7696,0.0,0.0,0.0,0.0,0.0,0.0,0.0,0.0,0.0,0.0,0.0,0.0,0.0,0.0,0.0,0.0,0.0,0.0,0.0,0.0,0.0,0.0,0.0,0.0,0.0,0.0,0.0,0.0,0.0,0.0,0.0,0.0,0.0,0.0,0.0,0.0,0.0,2.4523,2.5025,2.5161,2.5241,2.5419,0.0,0.0,0.0,0.0,0.0,0.0,2.6435,2.6455,2.6693,2.7198,2.7264,2.7454,2.7838,2.7842,2.7842,2.7842,2.8665,2.9046,2.9065,2.9918,3.0314,3.0314,3.0314,3.0391,3.0379,2.8528,2.7777,2.7718,2.7161,2.6812,2.6643,2.6869,2.6725,2.6525,0.0,0.0,0.0,0.0,0.0,0.0,0.0,0.0,0.0,0.0,0.0,1.3868,1.3901,1.4238,1.4477,1.4501,1.4125,1.4122,1.462,1.4313,1.4069,1.4008,1.5073,1.54,1.4861,1.7376,1.9168,2.0172,2.0225,2.0516,2.0975,2.0122,1.9738,1.9756,1.9711,1.9877,2.0153,1.9785,1.9314,1.8788,1.8263,0.0,0.0,0.0,0.0,0.0,0.0,0.0,0.0,0.0,0.0,0.0,0.0,0.0,0.0,0.0,0.0,0.0,0.0,0.0,0.0,0.0,0.0,0.0,0.0,0.0,0.0,0.0,0.0,0.0,0.0,0.0,0.0,0.0,0.0,0.0,0.0,0.0,0.0,2.6999,2.7285,0.0,0.0,0.0,0.0,2.6334,2.614,2.6266,2.6758,2.6537,2.6991,2.8286,2.8318,2.8722,2.9568,2.9568,2.9568,2.9587,3.0389,3.0776,3.0795,3.1615,3.1987,3.1987,3.1987,3.1991,3.1874,3.0247,2.9573,2.951,2.8918,2.8512,2.8314,2.8571,2.8669,2.8732,0.0,0.0,0.0,0.0,0.0,0.0,0.0,0.0,0.0,1.3198,1.3615,1.4008,1.4262,1.4414,1.4604,1.486,1.4278,1.3972,1.4167,1.4445,1.4434,1.4016,1.5422,1.6436,1.6908,1.8197,1.9027,1.9362,1.9737,1.9817,1.9654,1.9687,1.9938,2.0339,2.0339,2.0666,2.1148,2.0131,1.9387,1.8883,1.8688,1.8096,0.0,0.0,0.0,0.0,0.0,0.0,0.0,0.0,0.0,0.0,0.0,0.0,0.0,0.0,0.0,0.0,0.0,0.0,0.0,0.0,0.0,0.0,0.0,0.0,0.0,0.0,0.0,0.0,0.0,0.0,0.0,0.0,0.0,0.0,0.0,0.0,0.0,2.7244,2.7461,0.0,2.7624,2.7798,2.8004,2.8263,2.8355,2.8465,2.8654,2.8454,2.8793,2.9783,2.9659,2.9959,3.0798,3.0798,3.0798,3.0798,3.1077,3.1225,3.1225,3.1522,3.1651,3.1651,3.1651,3.1758,3.1848,3.1093,3.0971,3.1228,3.1017,3.0801,3.062,3.0847,3.0722,3.0533,0.0,0.0,0.0,0.0,0.0,0.0,0.0,0.0,0.0,1.3425,1.3827,1.4262,1.4658,1.4837,1.4976,1.5096,1.4493,1.4201,1.4422,1.473,1.4792,1.4544,1.5779,1.7061,1.8341,1.8545,1.8803,1.914,1.9146,1.9257,1.9442,1.966,2.0219,2.1042,2.1042,2.1281,2.1635,2.0747,2.0037,1.9486,1.931,1.8684,1.7827,0.0,0.0,0.0,0.0,0.0,0.0,0.0,0.0,0.0,0.0,0.0,0.0,0.0,0.0,0.0,0.0,0.0,0.0,0.0,0.0,0.0,0.0,0.0,0.0,0.0,0.0,0.0,0.0,0.0,0.0,0.0,0.0,0.0,0.0,2.7343,2.7792,2.7869,2.8125,2.838,2.8511,2.8762,2.9077,2.9476,2.9814,3.0011,3.0011,3.0041,3.0318,3.0856,3.0703,3.0858,3.139,3.139,3.139,3.139,3.1684,3.1806,3.1806,3.2088,3.2216,3.2216,3.2216,3.2311,3.2463,3.228,3.2397,3.2617,3.2086,3.1773,3.1676,3.1816,3.1674,3.1421,0.0,0.0,0.0,0.0,0.0,0.0,0.0,1.3198,1.3365,1.3843,1.4246,1.4651,1.5066,1.5485,1.558,1.5119,1.4698,1.4726,1.538,1.5079,1.5101,1.5606,1.6144,1.7205,1.885,1.839,1.8593,1.9543,1.8588,1.8915,2.0441,2.0089,2.0562,2.1734,2.1734,2.1749,2.1754,2.1754,2.138,2.0719,2.0167,1.9541,1.886,0.0,0.0,0.0,0.0,0.0,0.0,0.0,0.0,0.0,0.0,0.0,0.0,0.0,0.0,0.0,0.0,0.0,0.0,0.0,0.0,0.0,0.0,0.0,0.0,0.0,0.0,0.0,0.0,0.0,0.0,0.0,0.0,0.0,2.7489,2.7819,2.8369,2.8958,2.9426,2.963,2.9446,2.9612,2.9744,2.9754,3.0293,3.0615,3.0615,3.1131,3.1415,3.1445,3.1445,3.147,3.1501,3.1501,3.1519,3.1556,3.2332,3.2711,3.2729,3.3532,3.388,3.388,3.388,3.388,3.388,3.388,3.388,3.3715,3.2106,3.1464,3.1464,3.1464,3.1464,3.1464,0.0,0.0,0.0,0.0,0.0,0.0,0.0,1.3198,1.3365,1.3843,1.4246,1.4651,1.5066,1.4945,1.4806,1.4682,1.4,1.3618,1.3746,1.4067,1.4825,1.6116,1.6682,1.7579,1.8874,1.8755,1.8617,1.8516,1.8611,1.8957,1.9496,2.0167,2.1184,2.2433,2.2433,2.2662,2.3071,2.3071,2.2722,2.2099,2.1456,2.0573,1.9613,0.0,0.0,0.0,0.0,0.0,0.0,0.0,0.0,0.0,0.0,0.0,0.0,0.0,0.0,0.0,0.0,0.0,0.0,0.0,0.0,0.0,0.0,0.0,0.0,0.0,0.0,0.0,0.0,0.0,0.0,0.0,2.7312,2.7962,2.8719,2.9081,2.9325,2.949,2.9625,2.9851,3.0224,3.0321,3.0503,3.0896,3.1081,3.1187,3.1187,3.133,3.1666,3.224,3.2277,3.2828,3.3995,3.4014,3.4332,3.497,3.5183,3.5275,3.5293,3.5514,3.5605,3.5605,3.5605,3.5605,3.5605,3.5605,3.5605,3.5447,3.3788,3.3134,3.3134,3.3134,3.3134,3.3061,0.0,0.0,0.0,0.0,0.0,0.0,0.0,1.3198,1.3433,1.4068,1.435,1.4729,1.5337,1.5013,1.4682,1.4509,1.3885,1.3595,1.3842,1.4597,1.5558,1.6729,1.7073,1.7656,1.8554,1.8341,1.8086,1.7767,1.8104,1.8561,1.9113,2.0261,2.1474,2.2715,2.2961,2.3276,2.3595,2.3595,2.3396,2.3037,2.2652,2.1762,2.0611,2.0338,1.9661,1.8814,1.8537,1.8438,1.8476,1.876,0.0,0.0,0.0,0.0,0.0,0.0,0.0,0.0,0.0,0.0,0.0,0.0,0.0,0.0,0.0,0.0,0.0,0.0,0.0,0.0,0.0,0.0,0.0,0.0,2.7238,2.7841,2.8658,2.8862,2.9055,2.937,2.9565,2.9854,3.0331,3.0564,3.0734,3.0849,3.1347,3.1652,3.1652,3.2444,3.3023,3.3301,3.3858,3.4488,3.5209,3.5202,3.5579,3.6285,3.5836,3.5877,3.6277,3.6072,3.6087,3.6296,3.6065,3.6087,3.6277,3.6065,3.6094,3.6193,0.0,0.0,0.0,0.0,3.4853,3.478,0.0,0.0,0.0,0.0,0.0,0.0,0.0,1.3198,1.3505,1.439,1.4501,1.483,1.5705,1.5344,1.4884,1.4533,1.4076,1.4076,1.4653,1.5713,1.6557,1.7083,1.7231,1.7544,1.8096,1.7565,1.7302,1.7302,1.7425,1.8043,1.9131,2.0393,2.1608,2.2728,2.3334,2.3595,2.3595,2.3595,2.3595,2.3595,2.3595,2.2877,2.1749,2.1146,2.0548,1.9913,1.9402,1.9208,1.9298,1.9952,0.0,0.0,0.0,0.0,0.0,0.0,0.0,0.0,0.0,0.0,0.0,0.0,0.0,0.0,0.0,0.0,0.0,0.0,0.0,0.0,0.0,0.0,0.0,0.0,2.7286,2.7899,2.7942,2.8001,2.8288,2.8989,2.9425,2.9833,3.0267,3.0645,3.0732,3.0472,3.1585,3.2289,3.2332,3.4115,0.0,0.0,0.0,3.6086,3.5642,3.5698,3.5986,3.6468,3.5585,3.5618,3.6468,3.6043,3.6093,3.6454,3.598,3.6004,3.6361,3.5901,3.5972,3.6398,3.6329,3.631,3.631,3.631,3.631,3.631,0.0,0.0,0.0,0.0,0.0,0.0,0.0,1.3198,1.3505,1.439,1.4501,1.483,1.5705,1.5096,1.458,1.4509,1.3785,1.3369,1.3443,1.4503,1.5372,1.5901,1.6813,1.7544,1.8096,1.7565,1.7302,1.7302,1.7798,1.8416,1.9144,2.0778,2.1953,2.2728,2.3334,2.3595,2.3595,2.3595,2.3595,2.3595,2.3595,2.3156,2.2493,2.2358,2.1575,2.0599,2.102,2.1093,2.1086,2.1707,2.2338,2.2893,2.3014,2.3419,0.0,0.0,0.0,0.0,0.0,0.0,0.0,0.0,0.0,0.0,0.0,0.0,0.0,0.0,0.0,0.0,0.0,0.0,0.0,2.643,2.7233,2.7936,2.8261,2.8569,2.895,2.9424,2.9801,3.0439,3.1519,3.137,3.1581,3.2526,3.3435,3.4086,3.4402,3.5453,3.5802,3.5289,3.5943,3.6342,3.6471,3.6903,3.727,3.7586,3.7828,0.0,3.7594,3.7935,3.7892,3.7578,3.7476,3.728,3.7023,3.6915,3.6933,3.6979,3.6481,3.631,3.631,3.631,3.631,3.631,0.0,0.0,0.0,0.0,0.0,0.0,0.0,1.3198,1.3442,1.4108,1.4198,1.4438,1.5081,1.458,1.4198,1.4198,1.3865,1.364,1.3603,1.464,1.536,1.5645,1.6444,1.7034,1.7291,1.7045,1.6898,1.6898,1.7765,1.8344,1.8681,2.0737,2.1875,2.2242,2.3172,2.3595,2.3595,2.3595,2.3595,2.3595,2.3595,2.3426,2.3112,2.2808,2.2273,2.1695,2.1695,2.1656,2.172,2.2606,2.3251,2.3813,2.441,2.4821,2.5005,0.0,0.0,0.0,0.0,0.0,0.0,0.0,0.0,0.0,0.0,0.0,0.0,0.0,0.0,2.5278,2.5559,0.0,2.6687,2.7079,2.7849,2.848,2.8682,2.9187,2.9628,2.9831,3.0176,3.0718,3.1514,3.1934,3.2328,3.2722,3.3679,3.433,3.4543,3.5537,3.5857,3.5375,3.6261,3.6699,3.6551,3.6827,3.7158,3.7551,3.7285,3.7286,3.7551,3.7551,3.756,3.7533,3.7258,3.7295,3.7551,3.7551,3.7406,3.7168,3.6876,3.688,3.7132,3.7403,3.7496,3.7496,0.0,0.0,0.0,0.0,0.0,0.0,0.0,0.0,1.3365,1.3843,1.3901,1.4043,1.4462,1.4133,1.386,1.3769,1.3955,1.402,1.3921,1.492,1.5517,1.554,1.607,1.6387,1.65,1.65,1.65,1.65,1.7539,1.8103,1.8253,2.0501,2.16,2.1756,2.3024,2.3595,2.3595,2.3595,2.3595,2.3595,2.3595,2.3595,2.355,2.3052,2.2808,2.2643,2.2228,2.2049,2.2188,2.3233,2.3957,2.4579,2.5662,2.6004,2.5897,2.5354,2.4885,0.0,0.0,0.0,0.0,0.0,0.0,0.0,0.0,2.5089,2.4855,2.5376,2.5496,2.5675,2.6249,2.6834,2.7418,2.7956,2.8704,2.9204,2.9204,2.9854,3.0369,3.0514,3.0813,3.1148,3.1511,3.248,3.2958,3.2668,3.3702,3.4372,3.4442,3.5533,3.5936,3.5457,3.6587,3.695,3.6423,3.6508,3.6724,3.7047,3.6263,3.6322,3.703,3.6704,3.6734,3.701,3.6488,3.6706,3.7443,3.7443,3.723,3.6894,3.7001,3.7285,3.7676,3.821,3.8409,3.8409,0.0,0.0,0.0,0.0,0.0,0.0,0.0,0.0,0.0,1.3843,1.3901,1.4043,1.4462,1.4133,1.3727,1.3306,1.3667,1.3748,1.3329,1.4248,1.4861,1.4979,1.5502,1.6019,1.6488,1.65,1.65,1.65,1.7162,1.7727,1.824,2.0109,2.1236,2.1756,2.3024,2.3595,2.3595,2.3595,2.3595,2.3595,2.3595,2.3595,2.3595,2.3531,2.3171,2.2763,2.3216,2.3304,2.3318,2.4038,2.4636,2.5185,2.581,2.6004,2.5897,2.5354,2.5163,2.49,2.3879,2.3991,2.4532,2.5076,2.5147,2.5364,0.0,2.6157,2.5961,2.6436,2.653,2.6741,2.7475,2.766,2.7973,2.8738,2.9482,2.998,2.998,3.0615,3.1319,3.1989,3.209,3.2305,3.275,3.314,3.3502,3.3877,3.4696,3.5314,3.5679,3.656,3.681,3.6284,3.6878,3.695,3.6423,3.6872,3.6911,3.6498,3.6845,3.6825,3.6508,3.6931,3.6874,3.6457,3.592,3.5744,3.5865,3.5865,3.5832,3.5821,3.6301,3.6529,3.6633,3.7163,3.7377,3.7377,0.0,0.0,0.0,0.0,0.0,0.0,0.0,0.0,0.0,0.0,1.348,1.3556,1.3727,1.3344,1.3005,1.2808,1.3183,1.3475,1.3606,1.4512,1.4972,1.4796,1.5595,1.6036,1.6032,1.6348,1.6648,1.6972,1.7579,1.8122,1.8654,2.0383,2.1377,2.175,2.2907,2.3661,2.4043,2.3719,2.3773,2.4012,2.3339,2.3077,2.3022,2.2637,2.2573,2.2736,2.2992,2.3271,0.0,2.3428,2.4002,2.4766,2.5008,2.5278,2.5364,2.4469,2.4205,2.4174,2.4003,2.4404,2.4983,2.5524,2.567,2.5698,2.5801,2.5689,2.57,2.63,2.6419,2.6726,2.7776,2.8325,2.8839,2.9537,3.026,3.0734,3.0734,3.1386,3.1955,3.2259,3.3072,3.3483,3.3256,3.3718,3.4117,3.4321,3.5036,3.5542,3.5718,3.607,3.6165,3.5941,3.6143,3.6154,3.5941,3.6154,3.6154,3.5941,3.6154,3.6143,3.5941,3.6165,3.6161,3.5941,3.6039,3.5887,3.5616,3.5941,3.5876,3.5622,3.586,3.593,3.6032,3.6884,3.7209,3.7209,0.0,0.0,0.0,0.0,0.0,0.0,0.0,0.0,0.0,0.0,0.0,1.2812,1.2812,1.2632,1.2455,1.2318,1.2796,1.3251,1.3655,1.4565,1.5024,1.4869,1.5503,1.5857,1.5873,1.6134,1.661,1.7302,1.775,1.828,1.892,2.0331,2.1218,2.1662,2.2601,2.3398,2.3996,2.36,2.3575,2.3751,2.2915,2.2515,2.2363,2.1874,2.2007,2.2429,2.2424,2.2819,2.3268,2.2634,2.2973,2.3672,2.383,2.4133,2.4281,2.3467,2.3248,2.3339,2.3685,2.4373,2.5076,2.5458,2.567,2.5735,2.5526,2.5486,2.5675,2.6344,2.6477,2.6817,2.796,2.859,2.9169,2.9802,3.0356,3.076,3.0918,3.1597,3.2118,3.2305,3.3458,3.403,3.3506,3.4275,3.4727,3.4527,3.5183,3.5515,3.5339,3.5504,3.56,3.56,3.56,3.56,3.56,3.56,3.56,3.56,3.56,3.56,3.56,3.56,3.56,3.5622,3.6017,3.5963,3.5633,3.6028,3.5952,3.56,3.56,3.56,3.5694,3.6471,3.6756,3.6756,0.0,0.0,0.0,0.0,0.0,0.0,0.0,0.0,0.0,0.0,0.0,0.0,0.0,1.2237,1.2318,1.1856,1.2601,1.3103,1.312,1.4009,1.4751,1.5253,1.4936,1.5224,1.6251,1.5916,1.6248,1.7302,1.7315,1.7866,1.892,1.9622,2.0474,2.1441,2.2043,2.2596,2.3038,2.3029,2.2759,2.2368,2.2333,2.2081,2.1734,2.171,2.1711,2.1726,2.1729,2.2154,2.2637,2.1958,2.1756,2.1871,2.2397,2.2571,2.2582,2.2538,2.2627,2.2728,2.274,2.3567,2.443,2.444,2.4841,2.5394,2.6029,2.6168,2.6365,2.702,2.7169,2.7407,2.8142,2.8307,2.8574,2.9307,2.9435,2.9662,3.024,3.0956,3.1671,3.2318,3.3065,3.3548,3.3581,3.479,3.5305,3.4655,3.5214,3.5328,3.4676,3.5242,3.56,3.56,3.56,3.56,3.56,3.56,3.56,3.56,3.56,3.56,3.56,3.56,3.56,3.56,3.5622,3.5622,3.56,3.5622,3.5622,3.56,3.56,3.56,3.5611,3.5644,3.5656,3.5656,0.0,0.0,0.0,0.0,0.0,0.0,0.0,0.0,0.0,0.0,0.0,0.0,0.0,0.0,0.0,0.0,1.1816,1.2445,1.306,1.3947,1.4535,1.4759,1.5283,1.5592,1.5645,1.6282,1.6981,1.7702,1.8141,1.8735,1.9448,2.026,2.0888,2.1372,2.2151,2.2853,2.3442,2.3127,2.3085,2.3162,2.2401,2.2023,2.1773,2.0712,2.0563,2.0816,0.0,2.0825,2.1948,2.1319,2.1366,2.1732,2.1902,2.1972,2.1962,2.1923,2.1966,2.2194,2.2909,2.4056,2.5055,2.5055,2.5806,2.6403,2.5914,2.6081,2.642,2.6734,2.6406,2.6405,2.7508,2.7702,2.7919,2.8557,2.9082,2.9473,2.9673,3.072,3.1544,3.1791,3.2858,3.3579,3.3604,3.4016,3.4358,3.4576,3.4399,3.4374,3.4588,3.4807,3.493,3.493,3.5373,3.56,3.56,3.56,3.56,3.56,3.56,3.56,3.56,3.56,3.56,3.56,3.56,3.56,3.56,3.56,3.56,3.56,3.56,3.56,3.56,3.56,3.56,3.56,0.0,0.0,0.0,0.0,0.0,0.0,0.0,0.0,0.0,0.0,0.0,0.0,0.0,0.0,0.0,0.0,0.0,1.1777,1.2547,1.3439,1.4023,1.4237,1.4893,1.5194,1.5094,1.5707,1.6471,1.739,1.817,1.8842,1.9433,2.0323,2.0918,2.1217,2.177,2.2465,2.3171,2.2883,2.2744,2.2679,2.193,2.1336,2.078,1.975,1.9491,0.0,1.9163,1.9756,2.0711,2.0506,2.0695,2.1025,2.1025,2.1025,2.1056,2.1256,2.1507,2.1951,2.3131,2.4252,2.5109,2.5074,2.5662,2.6039,2.5333,2.5438,2.5784,2.6104,2.5785,2.5715,2.6533,2.6905,2.7121,2.725,2.7878,2.8445,2.8654,2.9899,3.086,3.1121,3.238,3.313,3.2879,3.285,3.3143,3.3836,3.371,3.3684,3.3874,3.4112,3.4358,3.4588,3.5028,3.5362,3.56,3.56,3.56,3.56,3.56,3.56,3.56,3.56,3.56,3.56,3.56,3.56,3.56,3.56,3.56,3.56,3.56,3.56,3.56,3.56,3.56,3.56,0.0,0.0,0.0,0.0,0.0,0.0,0.0,0.0,0.0,0.0,0.0,0.0,0.0,0.0,0.0,0.0,0.0,0.0,1.1623,1.2538,1.3272,1.3738,1.387,1.4169,1.4682,1.4358,1.4922,1.6449,1.7374,1.8166,1.8849,1.9744,2.046,2.0926,2.0951,2.1431,2.2223,2.2223,2.1744,2.0959,2.0959,2.0138,1.8916,1.8869,1.8575,1.8246,1.874,1.8945,1.9045,1.961,1.9824,1.9863,1.9888,1.9901,2.0029,2.0698,2.1296,2.2038,2.3321,2.4139,2.4581,2.4502,2.4529,2.4538,2.4482,2.4447,2.4625,2.5273,2.5329,2.5287,2.5342,2.5905,2.6162,2.5508,2.6055,2.6758,2.7337,2.8593,2.9699,3.0371,3.1652,3.2241,3.1568,3.1511,3.1796,3.2492,3.313,3.3222,3.2627,3.3195,3.3836,3.4479,3.4528,3.4859,3.5492,3.5526,3.5538,3.5538,3.5588,3.56,3.56,3.56,3.56,3.56,3.56,3.56,3.56,3.56,3.56,3.56,3.56,3.56,3.56,3.56,3.56,3.56,0.0,0.0,0.0,0.0,0.0,0.0,0.0,0.0,0.0,0.0,0.0,0.0,0.0,0.0,0.0,0.0,0.0,0.0,1.1148,1.206,1.2798,1.3264,1.3963,1.441,1.4544,1.4944,1.5337,1.5751,1.6494,1.7157,1.7721,1.8257,1.9035,1.9974,2.0262,2.0749,2.133,2.133,2.0975,2.0405,2.0405,1.9951,1.9195,1.8503,1.8163,1.8031,1.7862,1.8068,1.8543,1.9472,2.0131,2.0608,2.1062,2.1219,2.1337,2.1958,2.2289,2.2599,2.3286,2.3991,2.4519,2.4437,2.4796,2.5173,2.5149,2.5149,2.5191,2.537,2.4444,2.3823,2.4467,2.4657,2.487,2.5329,2.6468,2.7367,2.753,2.8302,2.9087,2.9744,3.0528,3.1167,3.1465,3.1511,3.1582,3.1768,3.1937,3.2202,3.2588,3.2747,3.292,3.3106,3.3582,3.3937,3.4116,3.4604,3.4842,3.4854,3.5362,3.56,3.56,3.56,3.56,3.56,3.56,3.56,3.56,3.56,3.56,3.56,3.56,3.56,3.56,3.56,3.56,3.56,0.0,0.0,0.0,0.0,0.0,0.0,0.0,0.0,0.0,0.0,0.0,0.0,0.0,0.0,0.0,0.0,0.0,0.0,0.0,1.204,1.2555,1.2834,1.3542,1.3934,1.3934,1.4303,1.4629,1.4891,1.5672,1.6339,1.6881,1.7579,1.8358,1.9169,1.9461,1.9847,2.0305,2.0305,2.0027,0.0,0.0,1.9146,1.8413,1.7895,1.7552,1.7349,1.7393,1.8086,1.916,2.0258,2.0879,2.1245,2.1592,2.152,2.1422,2.203,2.2225,2.244,2.3255,2.3981,2.4485,2.4382,2.4637,2.4809,2.4467,2.4109,2.3863,2.3863,2.2832,2.221,2.309,2.3709,2.4163,2.4368,2.5918,2.7008,2.6679,2.7486,2.8497,2.9476,3.0118,3.0762,3.1436,3.1511,3.1511,3.1511,3.1511,3.1668,3.2106,3.212,3.2273,3.2586,3.296,3.33,3.3595,3.3975,3.4161,3.4174,3.4835,3.5156,3.5173,3.547,3.56,3.56,3.56,3.56,3.56,3.56,3.56,3.56,3.56,3.5814,3.6129,3.6129,3.6321,3.6608,0.0,0.0,0.0,0.0,0.0,0.0,0.0,0.0,0.0,0.0,0.0,0.0,0.0,0.0,0.0,0.0,0.0,0.0,0.0,0.0,0.0,1.2499,1.2952,1.3198,1.3198,1.3198,1.3462,1.3972,1.4802,1.5462,1.6026,1.696,1.7736,1.8328,1.8441,1.8807,1.9328,1.9265,1.9031,1.8698,1.8631,1.8041,1.7188,0.0,0.0,1.6586,1.7186,1.848,2.004,2.1111,2.1629,2.1852,2.1934,2.1534,2.1151,2.1675,2.1769,2.1935,2.3033,2.3718,2.4085,2.3961,2.3939,2.3735,2.2987,2.229,2.1763,2.1729,2.1021,2.0687,2.1569,2.284,2.3627,2.3163,2.4924,2.6135,2.5481,2.6453,2.7769,2.9257,2.989,3.0559,3.1421,3.1511,3.1511,3.1511,3.1511,3.1511,3.1511,3.1511,3.1796,3.2437,3.2451,3.2734,3.3326,3.3417,3.3469,3.3482,3.4149,3.4515,3.4612,3.5207,3.547,3.5481,3.5678,3.5644,3.549,3.5785,3.5784,3.5607,3.571,3.6177,3.6791,3.6791,3.726,3.7893,0.0,0.0,0.0,0.0,0.0,0.0,0.0,0.0,0.0,0.0,1.3129,1.2934,0.0,0.0,0.0,0.0,0.0,0.0,0.0,0.0,0.0,0.0,1.2952,1.3198,1.3198,1.3198,1.3257,1.3366,1.3518,1.3903,1.4485,1.4671,1.5517,1.6872,1.6894,1.7676,1.8953,1.8512,1.8294,1.8176,1.7743,1.7185,1.6637,0.0,0.0,0.0,1.7186,1.8198,1.9358,2.006,2.1289,2.2612,2.3117,2.286,2.2397,2.2498,2.2135,2.1743,2.1895,2.2031,2.2087,2.2012,2.1995,2.1882,2.146,2.1257,2.1102,2.0878,2.0139,1.9781,2.0655,2.1526,2.232,2.2922,2.4471,2.555,2.5412,2.5619,2.6469,2.8378,2.8709,2.9475,3.1318,3.1511,3.1511,3.1511,3.1511,3.1511,3.1511,3.1511,3.1553,3.1697,3.1697,3.1739,3.1866,3.2463,3.2761,3.2774,3.3456,3.4062,3.46,3.4724,3.4771,3.484,3.6057,3.5901,3.4926,3.6754,3.6754,3.5666,3.6273,3.6596,3.6712,3.6712,3.7219,3.7893,0.0,0.0,0.0,0.0,0.0,0.0,0.0,1.3198,1.3198,1.3198,1.3198,1.3112,1.289,1.2864,1.2764,0.0,0.0,0.0,0.0,0.0,0.0,0.0,0.0,0.0,1.3198,1.3198,1.3198,1.3198,0.0,1.347,1.4003,1.4072,1.4626,1.5593,1.6216,1.6776,1.7241,1.7565,1.7514,1.724,1.6993,1.6721,0.0,0.0,0.0,0.0,1.7186,1.7894,1.8679,1.968,2.0722,2.1785,2.2812,2.2691,2.217,2.217,2.1724,2.1222,2.116,2.1368,2.1577,2.1522,2.1507,2.1407,2.1069,2.0651,2.0253,1.9976,1.9226,1.8894,1.9748,2.0528,2.1182,2.1674,2.3419,2.4588,2.4214,2.4868,2.5994,2.7596,2.778,2.8407,3.0048,3.0614,3.0881,3.0881,3.1263,3.1511,3.1511,3.1511,3.1511,3.1511,3.1511,3.1511,3.1511,3.1853,3.2021,3.2035,3.2747,3.3248,3.3569,3.3925,3.4269,3.4643,3.5345,3.545,3.5203,3.6264,3.6279,3.563,3.5994,3.6365,3.6702,3.6702,3.719,3.7857,0.0,0.0,0.0,0.0,0.0,0.0,0.0,1.3198,1.3198,1.3198,1.3198,1.3198,1.3198,1.3198,1.3241,0.0,0.0,0.0,0.0,0.0,0.0,0.0,0.0,0.0,0.0,0.0,0.0,1.3198,1.3198,0.0,0.0,0.0,0.0,0.0,1.5554,1.5938,1.5919,1.6648,1.6847,0.0,0.0,1.65,0.0,0.0,0.0,0.0,0.0,1.7472,1.7974,1.9026,1.9723,2.0364,2.1475,2.1685,2.1508,2.1508,2.1076,2.0575,2.0522,2.0847,2.1199,2.114,2.1143,2.1005,2.0529,1.9893,1.9276,1.8829,1.8268,1.808,1.8777,1.9587,2.0201,2.0306,2.2039,2.3217,2.282,2.3852,2.5174,2.6597,2.6886,2.7455,2.8699,2.9558,3.0011,3.0011,3.0614,3.1117,3.1467,3.1511,3.1511,3.1511,3.1336,3.1336,3.1511,3.1336,3.1336,3.1511,3.2092,3.2451,3.2629,3.3287,3.3874,3.4385,3.4851,3.5161,3.5408,3.5874,3.5867,3.56,3.5755,3.617,3.6689,3.6689,3.7154,3.7807,0.0,0.0,0.0,0.0,0.0,0.0,0.0,1.3198,1.3198,1.3198,1.3198,1.3198,1.3198,1.3198,1.3365,0.0,0.0,0.0,0.0,0.0,0.0,0.0,0.0,0.0,0.0,0.0,0.0,1.3198,1.3198,0.0,0.0,0.0,0.0,0.0,0.0,1.5096,1.6395,1.6005,0.0,0.0,0.0,0.0,0.0,0.0,0.0,0.0,0.0,1.6831,1.7206,1.7327,1.8,1.8809,1.8939,1.9851,2.0882,2.0882,2.0409,1.9888,1.9874,1.9912,1.9964,1.9949,1.9962,1.9706,1.8765,1.8492,1.8141,1.7132,1.7207,1.7491,1.7557,1.8578,1.9404,1.9414,2.0257,2.1172,2.1896,2.2129,2.3015,2.5127,2.5862,2.6756,2.8134,2.8794,2.9129,2.9129,2.9192,2.9889,3.1423,3.1511,3.1511,3.1511,3.0792,3.0762,3.1496,3.0777,3.0777,3.1511,3.1568,3.1951,3.2631,3.3232,3.3541,3.3707,3.5649,3.5791,3.4756,3.6763,3.6778,3.5584,3.6261,3.6551,3.6598,3.6598,3.7112,3.7807,0.0,0.0,0.0,0.0,0.0,0.0,1.3198,1.3198,1.3198,1.3198,1.3198,1.3306,1.359,1.3623,1.3581,1.348,0.0,0.0,0.0,0.0,0.0,0.0,0.0,0.0,0.0,0.0,1.3198,1.3198,1.3198,0.0,0.0,0.0,0.0,0.0,0.0,1.4896,1.5576,1.6009,0.0,0.0,0.0,0.0,0.0,0.0,0.0,0.0,0.0,0.0,1.608,1.6449,1.6733,1.7013,1.7213,1.8005,1.9035,1.9889,1.9658,1.9228,1.9682,1.9798,1.9695,1.9241,1.9136,1.8871,1.7871,1.7642,1.7457,1.6835,1.6462,1.6481,1.7268,1.7388,1.762,1.8395,1.926,1.9928,2.0285,2.1239,2.2349,2.3552,2.4656,2.5659,2.6543,2.7578,2.8652,2.969,2.9781,3.0072,3.0748,3.0777,3.0777,3.0777,3.0479,3.0208,2.9996,2.9675,2.9675,2.9996,2.9996,3.0421,3.1218,3.147,3.2287,3.356,3.4405,3.4897,3.5179,3.6057,3.6053,3.5537,3.5815,3.5927,3.5927,3.5927,3.6148,3.6414,0.0,0.0,0.0,0.0,0.0,1.3408,1.3411,1.3514,1.3539,1.3425,1.3505,1.3702,1.4035,1.4076,1.3901,1.345,1.3408,0.0,0.0,0.0,0.0,0.0,0.0,0.0,0.0,0.0,1.3275,1.3408,1.3275,1.3198,0.0,0.0,1.3198,1.3228,0.0,0.0,0.0,0.0,0.0,0.0,0.0,0.0,0.0,0.0,0.0,0.0,0.0,0.0,0.0,0.0,0.0,1.5646,1.5992,1.6486,1.7183,1.8379,1.8708,1.8808,1.932,1.9631,1.9618,1.8874,1.8701,1.8406,1.7252,1.6817,1.6516,1.6044,1.5411,1.5244,1.6241,1.6241,1.6427,1.7417,1.8324,1.9011,1.926,2.0365,2.1461,2.2357,2.3624,2.4669,2.5302,2.657,2.7953,2.9426,2.9317,2.9395,2.9889,2.9659,2.9644,2.9919,2.9659,2.9364,2.9002,2.8748,2.8748,2.9002,2.9002,2.9317,2.9919,3.012,3.1133,3.2709,3.29,3.3777,3.5067,3.5067,3.5067,3.5083,3.5375,3.5326,3.51,3.5392,3.5504,3.5504,0.0,0.0,0.0,0.0,0.0,0.0,1.3891,1.4223,1.4342,1.3942,1.4238,1.4493,1.4493,1.4493,1.4334,1.3934,1.3893,0.0,0.0,0.0,0.0,0.0,0.0,0.0,0.0,0.0,1.3433,1.3893,1.3433,1.3198,1.3198,1.3198,1.3198,1.3198,0.0,0.0,0.0,0.0,0.0,0.0,0.0,0.0,0.0,0.0,0.0,0.0,0.0,0.0,0.0,0.0,0.0,0.0,0.0,1.5425,1.5565,1.6233,1.7511,1.8701,1.8715,1.9241,1.9618,1.8874,1.8701,1.8301,1.6835,1.5885,1.5105,1.4377,1.3901,1.3732,1.4073,1.5206,1.6216,1.6564,1.7406,1.832,1.9193,1.9315,1.996,2.1706,2.2853,2.3857,2.4723,2.5829,2.685,2.767,2.699,2.7263,2.8923,2.8198,2.8117,2.8987,2.8182,2.8149,2.8987,2.8149,2.8149,2.9002,2.9002,2.9002,2.9032,2.9705,3.03,3.0873,3.1536,3.2646,3.4027,3.4027,3.4027,3.4112,3.5116,3.4889,3.4129,3.5133,3.5504,3.5504,0.0,0.0,0.0,0.0,0.0,0.0,0.0,1.4249,1.4454,1.4334,1.4422,1.4501,1.4501,1.4752,1.486,1.4729,1.4222,0.0,0.0,0.0,0.0,0.0,0.0,0.0,0.0,0.0,1.3275,1.3425,1.3275,1.3198,1.3198,1.3198,1.3198,1.3223,1.363,1.4214,0.0,0.0,0.0,0.0,0.0,0.0,1.5242,0.0,0.0,0.0,0.0,0.0,0.0,0.0,0.0,0.0,0.0,0.0,0.0,1.3524,1.5119,1.7194,1.7139,1.7711,1.8112,1.7385,1.7191,1.6936,1.5979,1.5124,1.4483,1.4249,1.3221,1.2837,1.4374,1.4773,1.5371,1.6899,1.7627,1.8303,1.9193,1.9814,2.0606,2.1768,2.3376,2.4801,2.5862,2.6285,2.6833,2.7637,2.7467,2.7537,2.8084,2.7838,2.7835,2.81,2.7851,2.7571,2.7284,2.7023,2.7023,2.7284,2.7284,2.7571,2.8117,2.8337,2.9102,3.027,3.0466,3.1299,3.2505,3.2505,3.3098,3.4027,3.4361,3.4691,3.5067,3.5375,3.5504,3.5504,0.0,0.0,0.0,0.0,0.0,0.0,0.0,1.447,1.4729,1.4729,1.4876,1.4997,1.4997,1.521,1.5285,1.5119,1.4643,0.0,0.0,0.0,0.0,0.0,0.0,0.0,1.3467,1.3292,1.3292,1.3467,1.3292,1.3198,1.3198,1.3198,1.3319,1.3559,1.3934,1.4513,0.0,0.0,0.0,0.0,0.0,0.0,1.4686,0.0,0.0,0.0,0.0,0.0,0.0,0.0,0.0,0.0,0.0,0.0,0.0,0.0,1.3406,1.5293,1.5849,1.6543,1.7033,1.6613,1.6273,1.5852,1.5114,1.4085,1.3295,1.3295,1.2258,1.1804,1.3292,1.3974,1.4803,1.6329,1.7373,1.8303,1.9193,1.9775,2.0709,2.2301,2.3858,2.5259,2.6386,2.6499,2.6714,2.7213,2.7246,2.7246,2.7246,2.7246,2.7246,2.7246,2.7246,2.7007,2.6499,2.6499,2.6499,2.6499,2.6499,2.6765,2.7246,2.7246,2.7869,2.8986,2.8986,2.9726,0.0,3.1175,3.2017,3.324,3.379,3.4377,3.4986,3.5359,3.5504,3.5504,0.0,0.0,0.0,0.0,0.0,0.0,0.0,1.4914,1.5195,1.5195,1.5587,1.5877,1.5877,1.5856,1.5661,1.5225,0.0,0.0,0.0,0.0,0.0,0.0,0.0,0.0,1.3852,1.3425,1.3408,1.3852,1.3408,1.3198,1.3198,1.3244,1.3559,1.4103,1.4182,1.4761,1.5688,1.5637,1.5554,1.5421,1.4858,1.4606,0.0,0.0,0.0,0.0,0.0,0.0,0.0,0.0,0.0,0.0,0.0,0.0,0.0,0.0,0.0,0.0,0.0,1.5585,1.6176,1.6248,1.5688,1.4964,1.4269,1.2916,0.0,1.1803,1.117,1.0783,1.1357,1.3004,1.4513,1.5146,1.6792,1.8337,1.926,1.9497,2.0572,2.3283,2.4308,2.5259,2.6386,2.6499,2.6499,2.6499,2.6499,2.6499,2.6499,2.6499,2.6499,2.6499,2.6499,2.6499,2.6499,2.6499,2.6499,2.6499,2.6499,2.6499,2.6499,2.6499,2.6776,2.7236,2.7236,2.8027,2.9386,2.9952,3.0766,3.1782,3.3272,3.3887,3.4071,3.5118,3.5504,3.5504,0.0,0.0,0.0,0.0,0.0,0.0,0.0,0.0,0.0,0.0,1.634,1.6561,1.6561,1.6342,1.6143,0.0,0.0,0.0,0.0,0.0,0.0,0.0,0.0,0.0,1.3365,1.3267,1.325,1.3357,1.325,1.3198,1.321,1.3668,1.3959,1.4141,1.4956,1.5443,1.5618,1.5617,1.5073,1.4214,1.4073,1.372,0.0,0.0,0.0,0.0,1.2954,1.2547,0.0,0.0,0.0,0.0,0.0,0.0,0.0,0.0,1.1021,1.1382,1.2366,0.0,1.3796,1.3822,1.3678,1.3498,0.0,1.2504,1.1803,1.1803,1.117,1.0885,1.1839,1.3272,1.462,1.5588,1.7011,1.8546,2.0074,2.14,2.2773,2.4315,2.4691,2.5259,2.6386,2.6499,2.6499,2.6499,2.6499,2.6499,2.6499,2.6499,2.6499,2.6499,2.6499,2.6499,2.6499,2.6499,2.6499,2.6499,2.6499,2.6499,2.6499,2.6499,2.6562,2.6688,2.6688,2.7112,2.7842,2.7969,2.8806,3.0194,3.1733,3.2772,3.3562,3.4971,3.5504,3.5504,0.0,0.0,0.0,0.0,0.0,0.0,0.0,0.0,0.0,0.0,0.0,0.0,0.0,0.0,0.0,0.0,0.0,0.0,0.0,0.0,0.0,0.0,0.0,1.4246,1.381,1.3623,1.3514,1.3514,1.3306,1.3341,1.3618,1.3946,1.4362,1.4859,1.5412,1.5631,1.5565,1.5005,1.4399,1.3779,1.3493,0.0,0.0,0.0,0.0,0.0,1.2905,1.2632,0.0,1.2761,1.241,1.1815,0.0,0.0,0.0,0.0,1.0609,1.0697,1.1139,1.1841,1.2543,1.2917,1.2719,1.2451,1.2451,1.1826,1.1242,1.1242,1.1005,1.115,1.2306,1.3925,1.5324,1.6102,1.7884,1.9513,2.0478,2.1385,2.251,2.4014,2.4198,2.481,2.6352,2.6499,2.6499,2.6499,2.6499,2.6499,2.6499,2.6499,2.6499,2.6499,2.6499,2.6499,2.6499,2.6499,2.6499,2.6499,2.6499,2.6499,2.6499,2.6499,2.6499,2.6499,2.6499,2.6663,2.6947,2.7198,2.802,2.9229,3.0323,3.1346,3.2293,3.3128,3.3438,3.3467,0.0,0.0,0.0,0.0,0.0,0.0,0.0,0.0,0.0,0.0,0.0,0.0,0.0,0.0,0.0,0.0,0.0,0.0,0.0,0.0,0.0,0.0,1.4976,1.476,1.4422,1.4008,1.3785,1.3785,1.3488,1.3596,1.4094,1.4165,1.4694,1.5552,1.5583,1.551,1.5264,1.4226,1.3755,1.3613,1.3104,0.0,0.0,0.0,0.0,0.0,0.0,0.0,0.0,1.2918,1.2403,1.1803,1.1806,0.0,0.0,0.0,0.0,0.0,1.0609,1.1186,1.1927,1.2481,1.2112,1.1617,1.1617,1.1092,1.06,1.0646,1.0968,1.1612,1.2917,1.4722,1.6194,1.6718,1.8938,2.0655,2.0782,2.091,2.1656,2.3481,2.3696,2.4448,2.6317,2.6499,2.6499,2.6499,2.6499,2.6499,2.6499,2.6499,2.6499,2.6499,2.6499,2.6499,2.6499,2.6499,2.6499,2.6499,2.6499,2.6499,2.6499,2.6499,2.6499,2.6499,2.6499,2.6499,2.6541,2.7002,2.7655,2.8443,2.9112,2.9894,3.0673,3.0921,3.0999,3.1051,0.0,0.0,0.0,0.0,0.0,0.0,0.0,0.0,0.0,0.0,0.0,0.0,0.0,0.0,0.0,0.0,0.0,0.0,0.0,0.0,0.0,1.5119,1.4454,1.4052,1.4,1.3539,1.3306,1.3306,1.375,1.4018,1.4119,1.4519,1.4751,1.488,1.5374,1.5028,1.4051,1.3886,1.3505,1.3029,1.2942,0.0,0.0,0.0,0.0,0.0,0.0,0.0,0.0,1.3,1.2628,1.2222,1.1897,0.0,0.0,0.0,0.0,0.0,1.0609,1.1186,1.1663,1.1115,1.0886,1.0776,1.0776,1.0688,1.066,1.0891,1.1602,1.2625,1.4077,1.5304,1.644,1.7516,1.9324,2.0862,2.1612,2.2279,2.3186,2.4444,2.4597,2.5099,2.6369,2.6499,2.6499,2.6499,2.6499,2.6499,2.6499,2.6499,2.6499,2.6499,2.6499,2.6499,2.6499,2.6499,2.6499,2.6499,2.6499,2.6499,2.6499,2.6499,2.6499,2.6499,2.6499,2.6499,2.6499,2.6587,2.6698,2.696,2.8297,2.893,2.9208,3.0521,3.0999,3.1013,0.0,0.0,0.0,0.0,0.0,0.0,0.0,0.0,0.0,0.0,0.0,0.0,0.0,0.0,0.0,0.0,0.0,0.0,0.0,0.0,1.5441,1.5477,1.4666,1.4222,1.4222,1.3802,1.3728,1.4007,1.4076,1.4396,1.4984,1.5478,1.5527,1.5186,1.5141,1.4618,1.3779,1.3455,1.3152,1.2905,0.0,0.0,0.0,0.0,0.0,0.0,0.0,0.0,0.0,0.0,1.2371,1.2333,1.1928,0.0,0.0,0.0,0.0,0.0,1.0609,1.0863,1.117,1.1226,1.1585,1.2081,1.2765,1.2921,1.3034,1.3405,1.3941,1.47,1.5883,1.702,1.8416,2.0381,2.0642,2.0894,2.1784,2.1803,2.2337,2.3916,2.4099,2.4727,2.6335,2.6499,2.6499,2.6499,2.6499,2.625,2.5716,2.6198,2.625,2.5716,2.5699,2.5943,2.6487,2.5417,2.5417,2.6499,2.6499,2.6499,2.6499,2.6499,2.6499,2.6499,2.6499,2.6499,2.6499,2.6499,2.6499,2.6576,2.7255,2.7498,2.7605,2.8317,2.876,2.9007,0.0,0.0,0.0,0.0,0.0,0.0,0.0,0.0,0.0,0.0,0.0,0.0,0.0,0.0,0.0,0.0,0.0,0.0,0.0,0.0,1.5381,1.5631,1.5005,1.4643,1.4643,1.4276,1.429,1.4699,1.4558,1.4888,1.5695,1.6234,1.6095,1.5376,1.505,1.4503,1.3768,1.331,1.3029,1.2905,0.0,0.0,0.0,0.0,0.0,0.0,0.0,0.0,0.0,0.0,0.0,0.0,0.0,0.0,0.0,1.0609,1.0609,1.0609,1.0609,1.0744,1.1097,1.201,1.246,1.3052,1.4305,1.4601,1.4798,1.5547,1.6032,1.6619,1.7634,1.8769,2.0174,2.2194,2.1616,2.1195,2.2063,2.1737,2.1989,2.3621,2.392,2.4653,2.6347,2.6499,2.6499,2.6499,2.628,2.5804,2.504,2.5734,2.5699,2.4671,2.488,2.5252,2.5791,2.4271,2.4505,2.6499,2.6263,2.628,2.6499,2.6499,2.6499,2.6499,2.6499,2.6499,2.6499,2.6499,2.6499,2.6499,2.6499,2.6499,2.6499,2.6499,2.6763,2.711,0.0,0.0,0.0,0.0,0.0,0.0,0.0,0.0,0.0,0.0,0.0,0.0,0.0,0.0,0.0,0.0,0.0,0.0,0.0,0.0,1.5573,1.5172,1.5096,1.5066,1.5066,1.4789,1.466,1.4699,1.5286,1.5597,1.5628,1.6213,1.5888,1.4789,1.5298,1.4892,1.3792,1.3755,1.3408,1.2905,1.2905,0.0,0.0,0.0,0.0,0.0,0.0,0.0,0.0,0.0,0.0,0.0,0.0,0.0,1.0609,1.0609,1.0609,1.0609,1.0609,1.1155,1.2003,1.3177,1.2664,1.2205,1.3415,1.3687,1.4126,1.5658,1.6679,1.7667,1.8852,1.9863,2.0563,2.0751,2.1365,2.2094,2.2899,2.3436,2.3985,2.4632,2.5148,2.5724,2.6436,2.6499,2.6499,2.6499,2.5646,2.5075,2.4987,2.507,2.4654,2.3635,2.4498,2.46,2.3715,2.3569,2.4505,2.6499,2.5546,2.5611,2.6499,2.6499,2.6499,2.6499,2.6499,2.6499,2.6499,2.6499,2.6499,2.6499,2.6499,2.6499,2.6499,2.6499,2.6512,2.6549,0.0,0.0,0.0,0.0,0.0,0.0,0.0,0.0,0.0,0.0,0.0,0.0,0.0,0.0,0.0,0.0,0.0,0.0,0.0,1.5799,1.5891,1.6089,1.5819,1.5834,1.6205,1.5226,1.4902,1.5315,1.5913,1.6191,1.616,1.6391,1.6064,1.5253,1.5107,1.4572,1.3779,1.3396,1.3104,1.2905,1.2905,1.2905,0.0,0.0,0.0,0.0,0.0,0.0,0.0,0.0,1.1069,1.1663,1.0848,1.0609,1.0609,1.0609,1.0609,1.0609,1.0609,1.1524,1.2651,1.3406,1.4013,1.4811,1.6353,1.6708,1.6953,1.7859,1.8329,1.872,1.9171,2.086,2.199,2.1491,2.211,2.2763,2.3063,2.3625,2.4205,2.4741,2.5272,2.5841,2.6436,2.6499,2.6245,2.5599,2.5211,2.4725,2.409,2.4072,2.3891,2.3514,2.3257,2.3239,2.3496,2.2301,2.301,2.5558,2.5176,2.5529,2.6499,2.6499,2.6499,2.6499,2.6499,2.6499,2.6499,2.6499,2.6499,2.6499,2.6499,2.6499,2.6499,2.6499,2.6499,2.6499,0.0,0.0,0.0,0.0,0.0,0.0,0.0,0.0,0.0,0.0,0.0,0.0,0.0,0.0,0.0,0.0,0.0,0.0,1.5799,1.5979,1.6271,1.6689,1.66,1.6669,1.6957,1.5968,1.5597,1.5893,1.6298,1.65,1.65,1.65,1.6183,1.5588,1.5163,1.4538,1.3768,1.336,1.3147,1.3088,1.3088,1.3176,0.0,0.0,0.0,0.0,0.0,0.0,0.0,0.0,1.0777,1.1335,1.0776,1.0609,1.0609,1.0609,1.0776,1.0989,1.0989,1.2026,1.3284,1.4015,1.5122,1.6447,1.8054,1.8303,1.8431,1.9138,1.9299,1.9464,2.0025,2.1322,2.2218,2.1939,2.2583,2.3108,2.3108,2.3775,2.439,2.4766,2.5435,2.6042,2.6461,2.6499,2.6077,2.5075,2.4719,2.4102,2.3073,2.3036,2.2888,2.259,2.2197,2.2178,2.2582,2.127,2.1916,2.4528,2.4528,2.5217,2.6499,2.6499,2.6499,2.6499,2.6499,2.6499,2.6499,2.6499,2.6499,2.6499,2.6499,2.6499,2.6499,2.6499,2.6499,2.6499,0.0,0.0,0.0,0.0,0.0,0.0,0.0,0.0,0.0,0.0,0.0,0.0,0.0,0.0,0.0,0.0,0.0,0.0,1.5814,1.6368,1.6711,1.6711,1.7354,1.7521,1.7128,1.7105,1.6838,1.63,1.6432,1.65,1.65,1.65,1.6183,1.5599,1.5587,1.4926,1.3814,1.3802,1.3687,1.3516,1.3516,1.3734,1.4011,0.0,0.0,0.0,0.0,0.0,0.0,0.0,1.0609,1.0609,1.0609,1.0609,1.0609,1.0609,1.117,1.1787,1.1803,1.2688,1.393,1.519,1.5814,1.6449,1.7714,1.7686,1.7764,1.9033,1.9309,1.9841,2.1569,2.1191,2.0878,2.1753,2.2552,2.3093,2.3093,2.4073,2.4788,2.4788,2.5787,2.6469,2.6469,2.6469,2.606,2.504,2.4054,2.3054,2.2046,2.1989,2.1555,2.0644,2.1517,2.1536,2.0605,2.0605,2.1584,2.3496,2.3496,2.4541,2.6499,2.6499,2.6487,2.6499,2.6499,2.6487,2.6499,2.6499,2.6499,2.6499,2.6499,2.6499,2.6499,2.6499,2.6499,2.6499,0.0,0.0,0.0,0.0,0.0,0.0,0.0,0.0,0.0,0.0,0.0,0.0,0.0,0.0,0.0,0.0,0.0,0.0,1.6435,1.7048,1.7616,1.8087,1.7944,1.8007,1.8366,1.7624,1.698,1.6437,1.6487,1.65,1.65,1.65,1.6183,1.5588,1.5164,1.4691,1.419,1.3778,1.3721,1.3919,1.3919,1.3997,1.404,0.0,0.0,0.0,0.0,0.0,0.0,0.0,0.0,0.0,1.0609,1.0609,1.0609,1.0609,1.0776,1.1141,1.1991,1.328,1.4615,1.566,1.6855,1.7842,1.7968,1.791,1.8094,1.9096,1.9781,2.0365,2.0894,2.0767,2.0687,2.0942,2.1694,2.2261,2.2261,2.3119,2.375,2.375,2.4142,2.4379,2.4379,2.4379,2.397,2.298,2.2609,2.2309,2.2008,2.1375,2.1193,2.1574,2.1202,2.0876,2.0605,2.0605,2.1584,2.3496,2.3496,2.4541,2.6499,2.6499,2.6112,2.5476,2.6181,2.6094,2.5494,2.6198,2.6499,2.6499,2.6499,2.6499,2.6499,2.6499,2.6499,2.6401,0.0,0.0,0.0,0.0,0.0,0.0,0.0,0.0,0.0,0.0,1.6423,0.0,0.0,0.0,0.0,0.0,0.0,0.0,0.0,1.772,1.8275,1.8679,1.8436,1.8285,1.8259,1.7425,1.6827,1.65,1.65,1.65,1.65,1.65,1.6141,1.5452,1.5094,1.4694,1.4251,1.3883,1.3991,1.4354,1.403,1.4001,1.4059,0.0,0.0,0.0,0.0,0.0,0.0,0.0,0.0,0.0,1.0609,1.0609,1.0649,1.0989,1.1429,1.2034,1.3108,1.4556,1.591,1.6485,1.7477,1.8247,1.8051,1.7991,1.8252,1.9127,1.9447,1.9792,2.0478,2.0317,2.0204,2.0542,2.1037,2.1381,2.1381,2.2046,2.2593,2.2756,2.307,2.3331,2.3474,2.3496,2.3073,2.2084,2.1989,2.183,2.146,2.0915,2.0857,2.1432,2.0895,2.0605,2.0605,2.0605,2.1385,2.2906,2.2906,2.3752,2.5341,2.6146,2.5943,2.5034,2.5646,2.5786,2.5646,2.625,2.6499,2.6499,2.6499,2.6499,2.6499,2.6499,2.6245,2.5821,0.0,0.0,0.0,0.0,0.0,0.0,0.0,0.0,0.0,0.0,1.6707,1.6833,0.0,0.0,0.0,0.0,0.0,0.0,0.0,0.0,1.8852,1.8852,1.8936,1.8467,1.7404,1.6898,1.6595,1.65,1.65,1.65,1.65,1.6473,1.6079,1.5388,1.5302,1.4841,1.4163,1.4045,1.4297,1.468,1.3867,1.3766,1.3936,1.2473,0.0,0.0,0.0,0.0,0.0,0.0,0.0,0.0,1.0609,1.0629,1.0785,1.1512,1.2586,1.3738,1.4633,1.6063,1.7317,1.7432,1.7725,1.7991,1.7991,1.7991,1.8252,1.9127,1.867,1.863,2.0285,1.9814,1.9464,2.0333,2.0478,2.0478,2.0478,2.0923,2.1414,2.1825,2.2319,2.279,2.3195,2.3239,2.2869,2.1943,2.1868,2.1498,2.0644,2.0605,2.0605,2.0605,2.0605,2.0605,2.0605,2.0605,2.1078,2.1989,2.1989,2.2534,2.3551,2.5381,2.5734,2.4862,2.4773,2.53,2.6233,2.6233,2.6233,2.6233,2.6233,2.6233,2.6233,2.6233,2.5664,2.4844,0.0,0.0,0.0,0.0,0.0,0.0,0.0,0.0,0.0,0.0,0.0,0.0,0.0,0.0,0.0,0.0,0.0,0.0,0.0,0.0,1.9969,1.9969,1.9677,1.9024,1.7957,1.7817,1.7343,1.65,1.65,1.65,1.6489,1.6334,1.6174,1.5977,1.5286,1.4865,1.4597,1.3648,1.3658,1.4264,1.344,1.3176,1.3221,1.2863,1.2358,0.0,0.0,0.0,0.0,0.0,0.0,0.0,1.0609,1.0747,1.0944,1.1117,1.2063,1.3297,1.443,1.5546,1.6624,1.7622,1.7939,1.7991,1.7991,1.7991,1.8252,1.9127,1.916,1.9332,2.0398,1.9332,1.8563,1.9447,1.9579,1.9579,1.9579,1.9956,2.0379,2.0857,2.0684,2.0718,2.1172,2.1212,2.1136,2.0915,2.0895,2.0809,2.0605,2.0605,2.0605,2.0605,2.0605,2.0605,2.0605,2.0605,2.1078,2.1989,2.1989,2.2534,2.3514,2.3945,2.4036,2.3781,2.2999,2.322,2.4145,2.4145,2.4145,2.4145,2.4145,2.4145,2.4145,2.4145,2.4018,2.3708,0.0,0.0,0.0,0.0,0.0,0.0,0.0,0.0,0.0,0.0,0.0,0.0,0.0,0.0,0.0,0.0,0.0,0.0,0.0,0.0,2.0318,2.0031,1.9809,1.9199,1.8115,1.7602,1.706,1.65,1.6498,1.6508,1.6497,1.6392,1.6263,1.6077,1.5629,1.5297,1.5045,1.4417,1.3803,1.3209,1.2793,1.2543,1.2374,1.1996,1.1585,1.1226,1.1226,0.0,0.0,0.0,0.0,0.0,0.0,0.0,1.1114,1.1656,1.2422,1.3412,1.4883,1.5803,1.6604,1.7719,1.7991,1.7991,1.7991,1.7991,1.8127,1.858,1.867,1.8821,1.9266,1.8613,1.8161,1.8603,1.867,1.867,1.867,1.8863,1.9143,1.9588,1.9609,1.9775,2.0234,2.0459,2.0605,2.0605,2.0605,2.0605,2.0605,2.0605,2.0605,2.0605,2.0605,2.0605,2.0605,2.0605,2.0837,2.1336,2.1336,2.1593,2.2124,2.2582,2.3036,2.3441,2.244,2.2571,2.3496,2.3496,2.3496,2.3496,2.3496,2.3496,2.3496,2.3496,2.3202,2.2702,0.0,0.0,0.0,0.0,0.0,0.0,0.0,0.0,0.0,0.0,0.0,0.0,0.0,0.0,0.0,0.0,0.0,0.0,0.0,0.0,0.0,1.9727,1.9704,1.9281,1.8402,1.7136,1.6495,1.65,1.651,1.67,1.7072,1.7074,1.6652,1.5905,1.5909,1.5703,1.5391,1.5404,1.4216,1.2317,1.2035,1.1795,1.1515,1.0848,1.0626,1.0667,1.0667,1.07,1.074,1.074,0.0,0.0,0.0,0.0,1.134,1.2282,1.2957,1.3719,1.5334,1.6297,1.7035,1.7811,1.7991,1.7991,1.7991,1.7991,1.7991,1.7991,1.7991,1.7991,1.7991,1.7991,1.7991,1.7991,1.7991,1.7991,1.7991,1.7991,1.8147,1.8549,1.8937,1.9346,1.9766,2.0214,2.0468,2.0468,2.0537,2.0605,2.0605,2.0605,2.0605,2.0605,2.0605,2.0605,2.0605,2.0605,2.0605,2.0605,2.0605,2.0605,2.0625,2.1394,2.2197,2.2943,2.2132,2.2226,2.301,2.301,2.301,2.301,2.301,2.301,2.301,2.301,2.2459,2.1754,0.0,0.0,0.0,0.0,0.0,0.0,0.0,0.0,0.0,0.0,2.0554,2.0649,0.0,0.0,0.0,0.0,0.0,0.0,2.2141,0.0,0.0,1.974,1.9698,1.963,1.9498,1.7527,1.6504,1.6504,1.6508,1.7471,1.9366,1.9357,1.7966,1.5482,1.5477,1.5448,1.5391,1.5404,1.4429,1.2769,1.1376,1.0789,1.0744,1.064,1.0747,1.0952,1.0952,1.1096,1.1292,1.1292,1.1292,0.0,0.0,0.0,1.181,1.1956,1.2792,1.3894,1.4983,1.6523,1.7845,1.7974,1.7991,1.7991,1.7991,1.7991,1.7991,1.7991,1.7991,1.7991,1.7991,1.7991,1.7991,1.7991,1.7991,1.7991,1.7991,1.7991,1.8147,1.8549,1.8656,1.8879,1.9336,1.9746,1.9981,1.9981,2.0371,2.0605,2.0605,2.0605,2.0605,2.0605,2.0605,2.0605,2.0605,2.0605,2.0605,2.0605,2.0605,2.0605,2.0605,2.0731,2.0867,2.0972,2.0847,2.0867,2.0992,2.0992,2.0992,2.0992,2.0992,2.0992,2.0992,2.0992,2.0895,2.0789,0.0,0.0,0.0,0.0,0.0,0.0,0.0,0.0,0.0,0.0,0.0,2.1692,0.0,0.0,0.0,2.2296,2.2298,2.2302,2.2297,2.194,2.1121,1.9768,1.9697,1.9702,1.9704,1.7604,1.6505,1.6497,1.7738,1.8841,1.98,1.9809,1.8232,1.5402,1.5399,1.5396,1.5391,1.5404,1.4988,1.4131,1.1609,1.0593,1.0707,1.1607,1.1576,1.1134,1.1831,1.1789,1.1406,1.1406,1.1406,1.1439,1.1623,0.0,0.0,0.0,1.2508,1.3255,1.479,1.6193,1.7337,1.7872,1.7991,1.7991,1.7991,1.7991,1.7991,1.7991,1.7991,1.7991,1.7991,1.7991,1.7991,1.7991,1.7991,1.7991,1.7991,1.7991,1.8059,1.8244,1.8461,1.8676,1.8888,1.9316,1.9561,1.9561,1.9755,1.997,2.0205,2.0214,2.0332,2.0595,2.0605,2.0605,2.0605,2.0605,2.0605,2.0605,2.0605,2.0605,2.0605,2.0605,2.0605,2.0605,2.0605,2.0605,2.0605,2.0605,2.0605,2.0605,2.0605,2.0605,2.0605,2.0605,2.0605,2.0605,0.0,0.0,0.0,0.0,0.0,0.0,0.0,0.0,0.0,0.0,0.0,0.0,0.0,0.0,0.0,0.0,2.2307,2.2302,2.2304,2.1892,2.1062,1.9754,1.9703,1.944,1.8896,1.7311,1.679,1.7339,1.8986,1.9409,1.8682,1.8683,1.7509,1.5404,1.5402,1.5396,1.5405,1.54,1.5393,1.5127,1.1893,1.136,1.2593,1.3575,1.3214,1.2288,1.2815,1.256,1.1957,1.172,1.1633,1.1666,1.1928,1.1995,0.0,0.0,0.0,1.297,1.4414,1.5517,1.6463,1.7415,1.7647,1.7708,1.7957,1.7991,1.7991,1.7991,1.7991,1.7991,1.7991,1.7991,1.7991,1.7991,1.7991,1.7991,1.7991,1.7991,1.7991,1.7991,1.8256,1.8442,1.8442,1.8849,1.9121,1.9121,1.9219,1.9424,1.9736,1.9756,1.9902,2.0263,2.0361,2.042,2.042,2.0527,2.0605,2.0605,2.0605,2.0605,2.0605,2.0605,2.0605,2.0605,2.0605,2.0605,2.0605,2.0605,2.0605,2.0605,2.0605,2.0605,2.0605,2.0605,2.0605,2.0605,0.0,0.0,0.0,0.0,0.0,0.0,0.0,0.0,0.0,0.0,0.0,0.0,2.2304,2.2305,2.2296,2.2296,2.2309,2.2306,2.2296,2.0751,1.9795,1.9705,1.9706,0.0,1.6708,1.6557,1.7527,1.9622,1.9738,1.8368,1.5632,1.5638,1.5552,1.5396,1.5399,1.5396,1.5396,1.5405,1.5405,1.5124,1.1903,1.3418,1.753,1.6785,1.5993,1.5104,1.3766,1.3414,1.344,1.2545,1.2258,1.2258,1.2271,1.2278,1.2285,0.0,0.0,0.0,1.3745,1.4504,1.5499,1.6445,1.6671,1.6905,1.7794,1.7991,1.7991,1.7991,1.7991,1.7991,1.7991,1.7991,1.7991,1.7991,1.7991,1.7991,1.7991,1.7991,1.7991,1.7991,1.8027,1.803,1.803,1.8401,1.8637,1.8637,1.9053,1.9315,1.9316,1.9316,1.9344,1.9374,1.9736,1.9932,1.9932,2.0381,2.0605,2.0605,2.0605,2.0605,2.0605,2.0605,2.0605,2.0605,2.0605,2.0605,2.0605,2.0605,2.0605,2.0605,2.0605,2.0605,2.0605,2.0605,2.0605,2.0605,0.0,0.0,0.0,0.0,0.0,0.0,0.0,0.0,0.0,0.0,0.0,0.0,0.0,2.2303,2.2307,2.2307,2.2303,2.2302,2.2298,2.1723,2.0866,1.9759,1.9706,2.0136,2.1043,2.106,2.0632,1.9799,1.9799,1.8777,1.6784,1.5842,1.5397,1.5389,1.541,1.5709,1.6198,1.5646,1.5399,1.5395,1.5362,1.6407,1.7975,1.7642,1.736,1.703,1.6511,1.5191,1.3655,1.331,1.2806,1.2305,1.2305,1.2305,1.2305,1.2305,1.2537,1.2934,1.3546,1.3954,1.4468,1.5464,1.614,1.6688,1.7018,1.7579,1.7991,1.7991,1.7991,1.7991,1.7991,1.7991,1.7991,1.7991,1.7991,1.7991,1.7991,1.7991,1.7991,1.7991,1.7991,1.7991,1.7991,1.8127,1.8215,1.8215,1.8361,1.8584,1.884,1.8849,1.8994,1.9296,1.9434,1.9512,1.9512,1.9686,1.9765,1.9765,1.9765,1.9765,1.9765,1.9765,1.9911,2.0146,2.0146,2.0322,2.0605,2.0605,2.0605,2.0605,2.0605,2.0605,2.0605,2.0605,2.0605,2.0605,0.0,0.0,0.0,0.0,0.0,0.0,0.0,0.0,0.0,2.0574,0.0,0.0,0.0,0.0,2.143,2.1435,2.2232,2.2742,2.2733,2.273,2.2224,2.106,2.0196,2.0541,2.2295,2.232,2.1503,1.9796,1.98,1.8955,1.7352,1.6524,1.595,1.5625,1.5625,1.5736,1.5904,1.5529,1.5171,1.4974,1.5776,1.687,1.8,1.801,1.7998,1.7995,1.801,1.6563,1.4629,1.4307,1.3792,1.3211,1.2879,1.2556,1.2305,1.2305,1.2305,1.2445,1.3062,1.3219,1.3473,1.445,1.5173,1.5808,1.6454,1.7087,1.763,1.794,1.7991,1.7991,1.7991,1.7991,1.7991,1.7991,1.7991,1.7991,1.7991,1.7991,1.7991,1.7991,1.7991,1.7991,1.7991,1.7991,1.7991,1.7991,1.7991,1.8118,1.8373,1.841,1.8605,1.9053,1.9072,1.9141,1.9305,1.9305,1.9305,1.9305,1.9305,1.9305,1.9305,1.9305,1.9443,1.9707,1.9707,2.0029,2.0605,2.0605,2.0605,2.0605,2.0605,2.0605,2.0605,2.0605,2.0605,2.0605,0.0,0.0,0.0,0.0,0.0,0.0,0.0,0.0,2.2222,2.2232,0.0,0.0,0.0,0.0,0.0,1.9822,2.2136,2.3569,2.35,2.3498,2.3492,2.3497,2.1111,1.981,1.98,1.9805,1.9809,1.9796,1.98,1.8803,1.6931,1.7399,1.7081,1.6095,1.6139,1.55,1.4435,1.5016,1.4745,1.3838,1.2736,1.4586,1.8004,1.8002,1.7938,1.7847,1.7964,1.7403,1.6498,1.5552,1.5216,1.5021,1.4027,1.3062,1.2305,1.2305,1.2305,1.2305,0.0,0.0,0.0,1.3419,1.3673,1.4181,1.6088,1.655,1.6819,1.7777,1.7957,1.7974,1.7991,1.7991,1.7991,1.7991,1.7991,1.7991,1.7991,1.7991,1.7991,1.7991,1.7991,1.7991,1.7991,1.7991,1.7991,1.7991,1.7991,1.7991,1.7991,1.7991,1.8176,1.8568,1.8588,1.8801,1.9266,1.9248,1.9248,1.9248,1.9248,1.9248,1.9248,1.9248,1.9276,1.9286,1.9286,1.9765,2.0566,2.0566,2.0576,2.0586,2.0586,2.0595,2.0605,2.0605,2.0586,2.0537,0.0,0.0,0.0,0.0,0.0,0.0,2.0417,2.0424,2.0421,0.0,0.0,0.0,1.97,2.1386,2.252,2.2517,2.3173,2.2816,2.0974,2.0849,2.0849,2.0848,2.0176,1.9796,1.9798,1.9797,1.9799,1.9788,1.9799,1.8981,1.7426,1.7882,1.7387,1.6139,1.677,1.6083,1.4455,1.4329,1.4503,1.4694,1.2984,1.4593,1.8011,1.7994,1.627,1.4231,1.7022,1.782,1.7481,1.6525,1.5755,1.5021,1.4027,1.3062,1.2305,1.2305,1.2305,1.2305,1.2305,0.0,0.0,0.0,0.0,0.0,1.4378,1.5074,1.5851,1.6784,1.6991,1.72,1.7862,1.7991,1.7991,1.7991,1.7991,1.7991,1.7991,1.7991,1.7991,1.7991,1.7991,1.7991,1.7991,1.7991,1.7991,1.7991,1.7991,1.7991,1.7991,1.7991,1.804,1.8166,1.8166,1.8225,1.8359,1.8359,1.8359,1.8359,1.8359,1.8359,1.8359,1.8359,1.8508,1.8801,1.8801,1.9113,1.9657,1.9657,1.9833,2.0088,2.0088,2.0302,2.0605,2.0605,2.0108,1.9441,0.0,0.0,0.0,0.0,0.0,2.0362,1.9816,2.0191,2.0345,0.0,0.0,0.0,1.9739,2.1106,2.2016,2.2011,2.2011,2.1385,1.9904,1.98,1.9795,1.98,1.9796,1.9811,1.9799,1.9801,1.9801,1.9798,1.9697,1.9034,1.7891,1.8032,1.7574,1.6672,1.7165,1.6434,1.4754,1.4248,1.4016,1.3897,1.276,1.4596,1.7999,1.7991,1.6627,1.4976,1.7203,1.7997,1.7921,1.7375,1.6559,1.5614,1.4629,1.3665,1.2806,1.2409,1.2305,1.2305,1.2305,1.2305,1.2305,1.2305,0.0,0.0,1.3618,1.4476,1.5358,1.5895,1.6341,1.6767,1.732,1.7415,1.7545,1.794,1.7991,1.7991,1.7991,1.7991,1.7991,1.7991,1.7991,1.7991,1.7991,1.7991,1.7991,1.7991,1.7991,1.7991,1.7991,1.7991,1.7991,1.7991,1.7991,1.7991,1.7991,1.7613,1.7415,1.7415,1.7027,1.6828,1.6828,1.6828,1.6956,1.7193,1.7607,1.7925,1.8205,1.8598,1.8885,1.9098,1.95,1.9402,1.9105,1.9503,1.9068,1.829,0.0,0.0,2.0439,1.9933,2.0835,2.1307,2.0375,2.0949,2.1137,0.0,1.9881,1.98,1.98,1.9804,1.9796,1.9796,1.9917,1.9963,1.9938,1.9965,1.9961,1.9923,2.0,1.9986,1.9856,1.9844,1.9805,1.97,1.9465,1.8965,1.8242,1.7994,1.7705,1.7399,1.7448,1.6626,1.5155,1.4553,1.362,1.2498,1.2356,1.4588,1.7988,1.8008,1.8007,1.7993,1.7994,1.8007,1.7991,1.7991,1.7381,1.6454,1.5623,1.4665,1.3683,1.2732,1.2464,1.2427,1.2342,1.2305,1.2305,1.2305,1.2305,0.0,1.3346,1.4235,1.4914,1.5003,1.5702,1.6315,1.6419,1.6445,1.6715,1.7545,1.7777,1.7879,1.7991,1.7991,1.7991,1.7991,1.7991,1.7991,1.7991,1.7991,1.7991,1.7991,1.7991,1.7991,1.7991,1.7896,1.7845,1.7845,1.7742,1.7691,1.7691,1.6853,1.6445,1.6419,1.5605,1.5199,1.5199,1.5199,1.5199,1.5252,1.607,1.6445,1.6515,1.7346,1.7738,1.7907,1.8744,1.8163,1.6949,1.7825,1.7688,1.7082,0.0,2.0285,2.0689,2.0751,2.0958,2.152,2.2681,2.1326,2.0454,2.124,2.0445,1.9807,1.9801,1.9798,1.9801,1.9801,2.0642,2.104,2.0714,2.0985,2.1022,2.0692,2.1247,2.1143,2.0223,2.0143,1.979,1.9087,1.9016,1.8614,1.7894,1.8213,1.8026,1.7419,1.7734,1.6884,1.5199,1.5067,1.4547,1.3739,1.2703,1.4596,1.7998,1.7997,1.8003,1.8001,1.7996,1.8003,1.7991,1.7991,1.7381,1.6567,1.6384,1.5667,1.47,1.372,1.3419,1.3255,1.2519,1.2305,1.2305,1.2305,1.2305,0.0,1.2537,1.2714,1.3073,1.3846,1.4135,1.4504,1.5314,1.5473,1.5534,1.5711,1.6376,1.7139,1.7889,1.7991,1.7991,1.7991,1.7991,1.7991,1.7991,1.7991,1.7991,1.7991,1.7991,1.7991,1.7991,1.7285,1.6871,1.6871,1.6132,1.5754,1.5754,1.557,1.5473,1.5473,1.5287,1.5199,1.5199,1.5199,1.5199,1.5216,1.5393,1.5473,1.5499,1.5675,1.6377,1.7352,1.7533,1.7146,1.6551,1.7015,1.6546,1.5728,2.0734,2.0961,2.1225,2.1324,2.164,2.1925,2.2173,2.1668,2.1123,2.081,2.0463,2.0279,2.0334,2.0351,2.0431,2.0626,2.1312,2.1649,2.1463,2.149,2.1219,2.0572,2.0905,2.0641,1.9615,1.9574,1.9338,1.8896,1.8781,1.8509,1.8155,1.822,1.8296,1.8339,1.8113,1.7181,1.5773,1.5376,1.5002,1.4635,1.4001,1.5458,1.7993,1.8008,1.7991,1.7991,1.7991,1.7991,1.7991,1.7991,1.7681,1.7217,1.674,1.628,1.5614,1.4135,1.3709,1.3491,1.2556,1.2305,1.2305,1.2305,1.2305,0.0,0.0,1.2659,1.3007,1.3007,1.3364,1.3854,1.436,1.445,1.4611,1.5128,1.5579,1.6062,1.6533,1.7398,1.7991,1.7991,1.7991,1.7991,1.7991,1.7579,1.7113,1.6637,1.6602,1.6602,1.6602,1.6149,1.5895,1.5895,1.5446,1.5199,1.5199,1.47,1.445,1.445,1.3983,1.3748,1.3748,1.3748,1.3748,1.3774,1.4261,1.445,1.4486,1.4985,1.5306,1.549,1.6019,1.554,1.4687,1.5322,1.5091,1.4475,2.1734,2.1694,2.1703,2.1703,2.215,2.2164,2.1134,2.1747,2.1768,2.0182,2.0402,2.0781,2.1,2.1019,2.1148,2.1481,2.1849,2.1991,2.1823,2.1807,2.1354,2.0317,2.0447,2.0051,1.9001,1.8971,1.8895,1.8726,1.8506,1.8409,1.8393,1.8134,1.8388,1.9027,1.832,1.7429,1.6381,1.5553,1.5305,1.5464,1.5401,1.643,1.7996,1.7998,1.7991,1.7991,1.7991,1.7991,1.7991,1.7991,1.7835,1.7543,1.7026,1.674,1.6262,1.4504,1.3991,1.3738,1.2611,1.2305,1.2305,1.2305,1.2305,1.2305,0.0,0.0,0.0,1.2464,1.2897,1.3419,1.3419,1.3419,1.3702,1.4504,1.479,1.4914,1.4914,1.6385,1.7459,1.7459,1.7777,1.794,1.7759,1.7035,1.6289,1.5534,1.5305,1.5199,1.5199,1.5021,1.4914,1.4914,1.4736,1.4647,1.4647,1.3846,1.3419,1.3419,1.2659,1.2305,1.2305,1.2305,1.2305,1.2335,1.3098,1.3419,1.3491,1.4307,1.4163,1.3528,1.4522,1.4012,1.2798,1.3622,1.3721,1.3467,2.1828,2.1708,2.1701,2.1701,2.1764,2.1764,2.1612,2.1278,2.0918,2.0622,2.0667,2.088,2.1383,2.143,2.1454,2.1507,2.1959,2.1946,2.1161,2.2246,2.2204,2.0629,2.1284,2.094,1.9289,1.9256,1.8889,1.8104,1.8069,1.8065,1.8048,1.8022,1.8059,1.8134,1.8042,1.7474,1.6514,1.5597,1.5685,1.642,1.6122,1.6798,1.8003,1.8001,1.7991,1.7991,1.7991,1.7991,1.7991,1.7991,1.7248,1.6495,1.7526,1.7268,1.6384,1.534,1.5021,1.4629,1.2806,1.2305,1.2305,1.2305,1.2305,1.2305,1.2305,0.0,1.2427,1.2316,0.0,1.2464,1.2464,0.0,0.0,1.2604,1.3328,1.3864,1.3864,1.4825,1.5517,1.5517,1.6993,1.7664,1.6836,1.6671,1.6567,1.6445,1.5667,1.5199,1.5199,1.4343,1.3864,1.3864,1.3062,1.2622,1.2622,1.2519,1.2464,1.2464,1.236,1.2305,1.2305,1.2305,1.2305,1.2305,1.2409,1.2464,1.2464,1.2586,1.2549,1.2556,1.351,1.324,1.2403,1.2816,1.292,1.2965,2.1753,2.1696,2.1698,2.1698,2.1708,2.158,2.1221,2.0935,2.0833,2.1121,2.1444,2.1524,2.1233,2.1944,2.2245,2.1775,2.2367,2.2416,2.159,2.2082,2.1647,1.9911,2.0204,1.9808,1.857,1.8546,1.8371,1.7991,1.7991,1.7991,1.7991,1.7991,1.8269,1.8737,1.8236,1.7755,1.7313,1.6384,1.6245,1.6567,1.6228,1.6854,1.7991,1.7991,1.7991,1.7991,1.7991,1.7991,1.7991,1.7991,1.7645,1.7299,1.7835,1.7725,1.7131,1.564,1.5199,1.479,1.2824,1.2703,1.2989,1.2445,1.2714,1.297,1.2427,1.2305,1.2305,1.2305,0.0,0.0,0.0,0.0,0.0,0.0,1.2629,1.2897,1.2897,1.372,1.4547,1.5128,1.5895,1.6,1.5013,1.5438,1.5314,1.4183,1.3748,1.352,1.352,1.3127,1.2897,1.2897,1.2519,1.2305,1.2305,1.2305,1.2305,1.2305,1.2305,1.2305,1.2305,1.2305,1.2305,1.2305,1.2305,1.2305,1.2305,1.2305,1.2305,1.2335,1.2732,1.2647,1.2318,1.2464,1.2731,1.3072,2.1219,2.1328,2.1448,2.1448,2.144,2.1334,2.1041,2.0947,2.1119,2.1644,2.2071,2.2026,2.1316,2.2352,2.2778,2.197,2.2641,2.2763,2.1955,2.1893,2.1227,1.9726,1.9431,1.8994,1.8361,1.8127,1.7991,1.7991,1.7991,1.7991,1.7991,1.7991,1.8337,1.8921,1.8286,1.7969,1.7867,1.6981,1.674,1.694,1.6444,1.6954,1.7991,1.7991,1.7991,1.7991,1.7991,1.7991,1.7991,1.7991,1.7757,1.7533,1.7896,1.7811,1.7346,1.5974,1.5587,1.5155,1.3211,1.3182,1.3473,1.2537,1.2806,1.3135,1.2464,1.2305,1.2305,1.2305,1.2305,0.0,0.0,0.0,1.2305,1.2305,0.0,1.2305,1.2305,1.2897,1.36,1.4325,1.4629,1.4611,1.4153,1.4522,1.4199,1.2787,1.2445,1.2305,1.2305,1.2305,1.2305,1.2305,1.2305,1.2305,1.2305,1.2305,1.2305,1.2305,1.2305,1.2305,1.2305,1.2305,1.2305,1.2305,1.2305,1.2305,1.2305,1.2305,1.2305,1.2311,1.2392,1.2444,1.2444,1.2444,1.2705,1.3106,1.9991,2.0384,2.082,2.082,2.0772,2.0896,2.1411,2.1483,2.167,2.2194,2.2282,2.2201,2.1902,2.2613,2.2778,2.197,2.2641,2.2763,2.1955,2.1893,2.1491,2.0606,1.9759,1.9282,1.926,1.8428,1.7991,1.7991,1.7991,1.7991,1.7991,1.7991,1.8008,1.8042,1.8008,1.7991,1.794,1.7001,1.7121,1.7862,1.6957,1.7156,1.7991,1.7991,1.7991,1.7991,1.7991,1.7991,1.7991,1.7991,1.717,1.6373,1.7611,1.7381,1.6636,1.6558,1.6567,1.6123,1.4181,1.3673,1.3473,1.2537,1.2316,1.2335,1.2305,1.2305,1.2305,1.2305,1.2305,1.2305,1.2305,1.2305,1.2305,0.0,1.2305,0.0,0.0,1.2342,1.236,1.239,1.32,1.4117,1.5057,1.4296,1.3727,1.3655,1.2806,1.2305,1.2305,1.2305,1.2305,1.2305,1.2305,1.2305,1.2305,1.2305,1.2305,1.2305,1.2305,1.2305,1.2305,1.2305,1.2305,1.2305,1.2305,1.2305,1.2305,1.2305,1.2305,1.2331,1.2656,1.2789,1.2789,1.2789,1.2803,1.2884,2.097,2.1105,2.1139,2.0795,2.1003,2.1407,2.1945,2.2033,2.2219,2.2757,2.2832,2.2583,2.1974,2.2613,2.2778,2.197,2.2641,2.2763,2.1955,2.1365,2.0655,1.9792,1.8894,1.8428,1.8428,1.8161,1.7991,1.7991,1.7991,1.7991,1.7991,1.7991,1.7664,1.707,1.707,1.707,1.7052,1.6723,1.7139,1.7974,1.7647,1.772,1.8006,1.801,1.7991,1.7991,1.7991,1.7991,1.7991,1.7991,1.7706,1.7438,1.7852,1.7777,1.7398,1.6775,1.6602,1.6315,1.5039,1.5155,1.5226,1.3629,1.3738,1.3875,1.2586,1.2305,1.2305,1.2305,1.2305,1.2305,1.2305,1.2305,0.0,0.0,0.0,1.2305,0.0,1.2305,1.2305,1.2305,1.3127,1.36,1.3302,1.3546,1.3437,1.2824,1.2482,1.2305,1.2305,1.2305,1.2305,1.2305,1.2305,1.2305,1.2305,1.2305,1.2305,1.2305,1.2305,1.2305,1.2305,1.2305,1.2305,1.2305,1.2305,1.2305,1.2305,1.2305,1.2437,1.2643,1.2763,1.2911,1.3053,1.3053,1.2705,1.2146,2.1507,2.1644,2.162,2.1081,2.1432,2.1872,2.2127,2.2406,2.2618,2.2668,2.2914,2.2793,2.1986,2.2613,2.2778,2.197,2.2641,2.2763,2.1955,2.1381,2.0671,1.9797,1.8938,1.8462,1.8462,1.8151,1.7991,1.7991,1.7991,1.7991,1.7991,1.7991,1.7501,1.6602,1.6602,1.6602,1.6602,1.6602,1.7139,1.8027,1.8228,1.8193,1.8075,1.8695,1.854,1.7992,1.7996,1.7991,1.7991,1.7991,1.7991,1.7991,1.7991,1.7991,1.7879,1.7285,1.7104,1.6888,1.5956,1.614,1.621,1.4629,1.4718,1.479,1.3164,1.2806,1.2703,1.2372,1.2305,1.2305,1.2305,1.2305,1.2305,0.0,0.0,1.2305,0.0,1.2305,1.2305,1.2305,1.2824,1.2952,1.2353,1.2842,1.2952,1.236,1.2305,1.2305,1.2305,1.2305,1.2305,1.2305,1.2305,1.2305,1.2305,1.2305,1.2305,1.2305,1.2305,1.2305,1.2305,1.2305,1.2305,1.2305,1.2305,1.2365,1.244,1.2022,1.2265,1.2881,1.2158,1.2229,1.2739,1.2739,1.2183,1.137,2.1526,2.1897,2.2054,2.1544,2.1881,2.2127,2.1868,2.2522,2.2778,2.2002,2.2598,2.2808,2.2032,2.2644,2.2793,2.2029,2.2659,2.2778,2.2002,2.1877,2.1475,2.0639,1.9726,1.9233,1.9233,1.8411,1.7991,1.7991,1.7991,1.7991,1.7991,1.7957,1.7432,1.6532,1.648,1.648,1.6523,1.6523,1.7079,1.7991,1.8597,1.8495,1.8165,1.9873,1.9533,1.8113,1.8029,1.8032,1.8059,1.8059,1.8057,1.802,1.802,1.8027,1.7991,1.7991,1.7991,1.7811,1.6905,1.6671,1.6428,1.5446,1.5199,1.4932,1.3936,1.3709,1.3455,1.2556,1.2372,1.236,1.2305,1.2305,1.2305,0.0,0.0,1.2305,1.2305,1.2305,1.2305,1.2305,1.2335,1.236,1.2305,1.2305,1.2305,1.2305,1.2305,1.2305,1.2305,1.2305,1.2305,1.2305,1.2305,1.2305,1.2305,1.2305,1.2305,1.2305,1.2305,1.2305,1.2305,1.2305,1.2311,1.2325,1.2325,1.251,1.2727,1.1529,1.1855,1.2928,1.0973,1.083,1.1756,1.1756,1.1233,1.0503,2.191,2.1396,2.0996,2.0857,2.095,2.1014,2.0935,2.1663,2.2125,2.1924,2.2598,2.302,2.2808,2.2975,2.302,2.2808,2.2975,2.3017,2.2808,2.1632,2.083,2.0606,1.9144,1.8337,1.8337,1.811,1.7991,1.7991,1.7991,1.7991,1.7974,1.7285,1.6463,1.5534,1.4782,1.4861,1.557,1.557,1.6219,1.7304,1.7816,1.7895,1.7842,1.9135,1.9756,1.9749,1.8472,1.8418,1.8965,1.8965,1.8722,1.8442,1.8442,1.8244,1.7991,1.7991,1.7991,1.7957,1.7708,1.7647,1.726,1.5605,1.5199,1.4932,1.3936,1.3709,1.3637,1.3382,1.3346,1.3135,1.2427,1.2305,1.2305,1.2305,1.2305,1.2305,1.2305,1.2305,1.2305,1.2305,1.2915,1.308,1.2372,1.2305,1.2305,1.2305,1.2305,1.2305,1.2305,1.2305,1.2305,1.2305,1.2305,1.2305,1.2305,1.2305,1.2305,1.2305,1.2305,1.2305,1.2305,1.2305,1.2444,1.267,1.267,1.2825,1.3008,1.1853,1.1703,1.211,1.0741,0.9986,0.9675,0.9675,0.9534,0.9213,2.2048,2.0894,2.0025,2.0025,2.0025,2.0155,2.0542,2.1021,2.1333,2.1333,2.2063,2.2583,2.2583,2.2884,2.3108,2.3108,2.3108,2.2944,2.261,2.1694,2.083,2.0058,1.9094,1.8378,1.8008,1.7991,1.8088,1.8264,1.8264,1.8371,1.8547,1.7555,1.656,1.5589,1.4554,1.4406,1.4954,1.5377,1.5933,1.6604,1.7066,1.6997,0.0,1.7969,1.9325,2.0478,1.9478,1.9444,1.9872,1.9872,1.9434,1.8908,1.8908,1.8742,1.8564,1.8564,1.841,1.8177,1.7769,1.7522,1.7044,1.557,1.5199,1.4932,1.3936,1.3709,1.3582,1.3171,1.3098,1.3043,1.2934,1.2574,1.2305,1.2305,1.2305,1.2305,1.2305,1.2305,1.2305,1.2305,1.2769,1.2879,1.236,1.2659,1.2732,1.2342,1.2305,1.2305,1.2305,1.2305,1.2305,1.2305,1.2305,1.2305,1.2305,1.2305,1.2305,1.2305,1.2305,1.239,1.251,1.251,1.2684,1.2965,1.2965,1.2831,1.2542,1.1409,1.1098,1.1227,1.0089,0.9009,0.8101,0.8101,0.8101,0.8017,2.1741,2.0252,1.9127,1.9127,1.9216,1.9595,2.0478,2.0703,2.0767,2.0767,2.1428,2.1893,2.1893,2.243,2.279,2.2849,2.2861,2.2582,2.1938,2.1784,2.1055,1.9544,1.9371,1.8944,1.8201,1.8174,1.8342,1.8685,1.8685,1.8827,1.9068,1.8008,1.6963,1.5943,1.4891,1.4479,1.4666,1.5674,1.6007,1.5925,1.6385,1.6035,1.5347,1.6472,1.8067,1.9738,1.9739,2.012,2.0602,2.0608,1.9976,1.9182,1.9164,1.9024,1.8866,1.8866,1.858,1.807,1.7252,1.6759,1.6237,1.53,1.5036,1.4772,1.3908,1.3709,1.3473,1.2647,1.2482,1.2703,1.3382,1.2842,1.2305,1.2305,1.2305,1.2305,1.2305,1.2305,1.2305,1.2305,1.2409,0.0,1.2316,1.3043,1.3182,1.2353,1.2305,1.2305,1.2305,1.2305,1.2305,1.2305,1.2305,1.2305,1.2305,1.2305,1.2305,1.2305,1.2345,1.251,1.2803,1.285,1.2992,1.3247,1.3081,1.2614,1.1848,1.0559,1.0077,1.0048,0.9061,0.8013,0.7095,0.7095,0.7095,0.7095,2.0074,1.8938,1.8236,1.8236,1.8821,1.9595,2.0478,2.1207,2.1675,2.1675,2.1799,2.1893,2.1893,2.1381,2.1165,2.15,2.1534,2.1634,2.1885,2.1236,2.0683,2.038,1.9677,1.9242,1.908,1.9062,1.9102,1.918,1.918,1.8762,1.7952,1.6944,1.5893,1.4833,1.3869,1.3876,1.4681,1.6014,1.6075,1.5297,1.5703,1.5256,1.4351,1.4572,1.4903,1.5233,1.5235,1.7556,2.0596,2.0594,1.9688,1.8548,1.8492,1.7602,1.6569,1.6569,1.6527,1.6411,1.6242,1.6003,1.5546,1.4606,1.4167,1.3918,1.3745,1.3709,1.3655,1.3491,1.3455,1.3273,1.2666,1.2409,1.2305,1.2305,1.2305,1.2305,1.2305,1.2305,1.2305,1.2305,1.2989,1.3153,1.2378,1.2445,1.2482,1.2316,1.2305,1.2305,1.2305,1.2305,1.2305,1.2305,1.2305,1.2305,1.2305,1.2305,1.2305,1.2305,1.2589,1.273,1.281,1.3032,1.3273,1.3486,1.2529,1.2174,1.2066,0.9974,0.8573,0.7683,0.7489,0.7294,0.7095,0.7095,0.7095,0.7095,1.9562,1.8596,1.8134,1.8596,1.9398,2.0123,2.0542,2.1522,2.1969,2.1321,2.1013,2.0862,2.0862,2.1113,2.1358,2.1559,2.1553,2.1653,2.1881,2.1086,2.0603,2.0603,1.9775,1.9305,1.9305,1.9305,1.9394,1.9609,1.906,1.8646,0.0,1.6699,1.5677,1.5132,1.4117,1.392,1.4381,1.5066,1.505,1.4593,1.4796,1.4552,1.4096,1.41,1.4108,1.4108,1.4111,1.5446,1.7398,1.8501,1.8678,1.8342,1.7919,1.7271,1.666,1.666,1.6529,1.6257,1.5768,1.5362,1.4858,1.3913,1.3557,1.3402,1.3252,1.3229,1.3186,1.3006,1.297,1.2842,1.2372,1.2703,1.2861,1.2378,1.2305,1.2305,1.2305,1.2305,1.2305,1.2305,1.2703,1.2806,1.2335,1.2305,1.2305,1.2305,1.2305,1.2305,1.2305,1.2305,1.2305,1.2305,1.2305,1.2305,1.2305,1.2305,1.2397,1.2551,1.2717,1.2951,1.3213,1.3347,1.3574,1.3785,1.2619,1.1851,1.123,0.8925,0.7621,0.7095,0.7095,0.7095,0.7095,0.7095,0.7095,0.7095,1.9464,1.8754,1.8546,1.9414,2.0139,2.0624,2.0709,2.142,2.1649,2.0841,2.0341,2.0048,2.0048,2.0826,2.1391,2.1471,2.1471,2.1515,2.1623,2.0975,2.0599,2.0599,1.9946,1.9579,1.9579,1.9579,1.9735,2.0049,1.897,1.8479,1.8505,1.6602,1.5579,1.5317,1.4468,1.4109,1.4109,1.4109,1.4109,1.4109,1.4109,1.4109,1.4109,1.4109,1.4109,1.411,1.4102,1.4096,1.4352,1.6049,1.7009,1.7416,1.7074,1.6813,1.6629,1.6629,1.6403,1.5982,1.5242,1.4712,1.4216,1.3472,1.324,1.3146,1.2938,1.2884,1.2797,1.2477,1.2345,1.2305,1.2305,1.2897,1.3164,1.2427,1.2305,1.2305,1.2305,1.2305,1.2305,1.2305,1.2305,1.2305,1.2305,1.2305,1.2206,1.1996,1.2187,1.2305,1.2305,1.2305,1.2206,1.1996,1.2187,1.222,1.2075,1.228,1.2571,1.2884,1.2945,1.3186,1.3586,1.3413,1.3474,1.3646,1.2206,1.0929,0.9722,0.7856,0.7095,0.7095,0.7095,0.7095,0.7095,0.7095,0.7095,0.7095,1.9464,1.9226,1.9447,2.0333,2.0542,2.072,2.109,2.0572,2.0374,2.1058,2.079,2.054,2.054,1.9943,1.969,2.0057,2.0087,2.0274,2.0699,2.0651,2.0594,2.0594,2.0517,2.0478,2.0478,2.0478,2.0507,2.0527,1.9464,1.8309,1.7086,1.6138,1.5179,1.425,1.4152,1.4109,1.4109,1.4109,1.4109,1.4109,1.4109,1.4109,1.4109,1.4109,1.4109,1.4103,1.411,1.4104,1.4131,1.4328,1.4441,1.4662,1.5576,1.5179,1.4391,1.4391,1.4377,1.4329,1.4252,1.3966,1.3675,1.358,1.3387,1.318,1.3173,1.3166,1.308,1.2811,1.251,1.2305,1.2305,1.2372,1.239,1.2316,1.2305,1.2305,1.2305,1.2305,1.2305,1.2305,1.2305,1.2305,1.2305,1.2305,1.1922,1.1013,1.1786,1.2305,1.2305,1.2305,1.1885,1.0969,1.183,1.1977,1.1307,1.2279,1.2898,1.3173,1.3413,1.3547,1.3566,1.2767,1.2432,1.2349,1.0161,0.8536,0.7401,0.7183,0.7095,0.7095,0.7095,0.7095,0.7095,0.7095,0.7095,0.7095,1.9579,1.9299,1.9482,2.0091,2.0184,2.0328,2.0767,2.0744,2.0621,2.0442,2.0273,2.0174,2.0174,2.0108,2.0146,2.0312,2.0322,2.04,2.0595,2.0605,2.0605,2.0605,2.0605,2.0605,2.0605,2.0605,2.0605,2.0605,1.8829,1.7682,1.7111,1.6142,1.5476,1.5033,1.4391,1.4109,1.4109,1.4109,1.4109,1.4109,1.4109,1.4109,1.4109,1.4109,1.4109,1.4109,1.4109,1.4109,1.4109,1.4109,1.4105,1.4162,1.4587,1.4454,1.4109,1.4109,1.4109,1.4109,1.4109,1.4001,1.3908,1.3908,1.3821,1.3687,1.3494,1.3447,1.3367,1.3106,1.2805,1.2603,1.2603,1.2444,1.2305,1.2305,1.2305,1.2305,1.2305,1.2305,1.2305,1.2305,1.2305,1.2305,1.2305,1.2305,1.1885,1.0882,1.1731,1.2033,1.1428,1.1978,1.1842,1.082,1.1972,1.2145,1.1214,1.2421,1.3173,1.3447,1.3547,1.3714,1.3873,1.2781,1.1552,1.0204,0.9301,0.8211,0.7095,0.7095,0.7095,0.7095,0.7095,0.7095,0.7095,0.7095,0.7095,0.7095,2.0079,1.9648,1.9695,2.0371,2.0284,2.0268,2.071,2.0801,2.0643,2.0164,2.0107,2.0107,2.0107,2.04,2.0605,2.0605,2.0605,2.0605,2.0605,2.0605,2.0605,2.0605,2.0605,2.0605,2.0605,2.0284,2.0128,2.0128,1.792,1.679,1.6693,1.5602,1.5147,1.52,1.4433,1.4109,1.4109,1.4109,1.4109,1.4109,1.4109,1.4109,1.4109,1.4109,1.4109,1.4109,1.4109,1.4109,1.4109,1.4109,1.4109,1.4109,1.4109,1.4109,1.4109,1.4109,1.4109,1.4109,1.4109,1.4109,1.4109,1.4109,1.4109,1.4035,1.38,1.3754,1.3667,1.338,1.3093,1.2891,1.2804,1.2616,1.2405,1.2318,1.2305,1.2305,1.2305,1.2305,1.2305,1.2305,1.2305,1.2305,1.2305,1.2305,1.1885,1.0882,1.1731,1.1867,1.0845,1.1749,1.1887,1.0944,1.2145,1.2376,1.1477,1.2703,1.3278,1.3217,1.3217,1.3173,1.3039,1.1842,1.0221,0.8364,0.8364,0.7885,0.7095,0.7095,0.7095,0.7095,0.7095,0.7095,0.7095,0.7095,0.7095,0.7095,2.1107,2.0476,2.0313,2.1648,2.1163,2.0731,2.1126,2.0462,2.0087,2.0537,2.0595,2.0595,2.0595,2.0595,2.0605,2.0605,2.0605,2.0605,2.0605,2.0605,2.0605,2.0605,2.0605,2.0605,2.0605,1.9559,1.9016,1.9016,1.6797,1.5572,1.5305,1.4157,1.3808,1.413,1.4109,1.4109,1.4109,1.4109,1.4109,1.4109,1.4109,1.4109,1.4109,1.4109,1.4109,1.4109,1.4109,1.4109,1.4109,1.4109,1.4109,1.4109,1.4109,1.4109,1.4109,1.4109,1.4109,1.4109,1.4109,1.4109,1.4109,1.4109,1.4109,1.4109,1.4082,1.4082,1.4001,1.366,1.3387,1.3113,1.2844,1.2803,1.2683,1.2351,1.2305,1.2305,1.2305,1.2305,1.2305,1.2305,1.2305,1.2305,1.2305,1.2305,1.1885,1.0882,1.1731,1.1867,1.0845,1.1749,1.1965,1.1221,1.2241,1.2563,1.2091,1.3089,1.3161,1.2322,1.2322,1.1724,1.0611,0.9453,0.8277,0.7117,0.7117,0.7117,0.7095,0.7095,0.7095,0.7095,0.7095,0.7095,0.7095,0.7095,0.7095,0.7095,2.1002,2.0575,2.0406,2.0518,2.0298,2.0273,2.0712,2.0563,2.0429,2.0586,2.0605,2.0605,2.0605,2.0605,2.0605,2.0605,2.0605,2.0605,2.0605,2.0605,2.0605,2.0605,2.0605,2.0265,1.952,1.9175,1.8618,1.7848,1.6396,1.5664,1.5546,1.4448,1.44,1.5158,1.4433,1.4109,1.4109,1.4109,1.4109,1.4109,1.4109,1.4109,1.4109,1.4109,1.4109,1.4095,1.4091,1.4099,1.4095,1.4091,1.4093,1.4109,1.4109,1.4109,1.4109,1.4109,1.4109,1.4109,1.4109,1.4109,1.4109,1.4109,1.4109,1.4109,1.4109,1.4109,1.4062,1.3968,1.3694,1.3453,1.336,1.32,1.3033,1.2939,1.2765,1.2643,1.2643,1.2432,1.2305,1.2305,1.2305,1.2305,1.2305,1.2305,1.1607,0.9914,1.0714,1.1143,1.0826,1.1972,1.2202,1.1227,1.26,1.2929,1.2108,1.2511,1.2569,1.2279,1.1509,1.0546,0.9427,0.9061,0.8237,0.7095,0.7095,0.7095,0.7095,0.7095,0.7095,0.7095,0.7095,0.7095,0.7095,0.7095,0.7095,0.7095,2.1008,2.0558,2.0293,2.0173,2.0156,2.0254,2.0566,2.0605,2.0605,2.0605,2.0605,2.0605,2.0605,2.0605,2.0605,2.0605,2.0605,2.0605,2.0605,2.0605,2.0605,2.0605,2.0196,1.9687,1.9016,1.8181,1.7415,1.6703,1.5628,1.5095,1.5075,1.4412,1.4454,1.5075,1.4391,1.4109,1.4109,1.4109,1.4109,1.4109,1.4109,1.4109,1.4039,1.3457,1.3589,1.4106,1.4092,1.2967,1.1732,1.3506,1.4092,1.3948,1.3064,1.2778,1.2954,1.3849,1.4109,1.4109,1.4109,1.4109,1.4109,1.4109,1.4109,1.4109,1.4109,1.4109,1.4109,1.4109,1.3941,1.3754,1.3626,1.3453,1.332,1.3227,1.3066,1.2939,1.2939,1.2759,1.2645,1.2645,1.2645,1.2645,1.2645,1.2645,1.1942,1.0241,1.0718,1.0866,1.0418,1.1141,1.1329,1.0828,1.1793,1.2067,1.1548,1.1614,1.1445,1.102,0.9853,0.8903,0.8233,0.8233,0.7819,0.7095,0.7095,0.7095,0.7095,0.7095,0.7095,0.7095,0.7095,0.7095,0.7095,0.7095,0.7095,0.7095,2.1094,2.0512,2.0088,2.0517,2.0605,2.0605,2.0605,2.0605,2.0605,2.0605,2.0605,2.0605,2.0605,2.0605,2.0605,2.0605,2.0605,2.0605,2.0605,2.0518,2.0489,2.0489,1.9461,1.8858,1.8769,1.6756,1.5662,1.5579,1.4594,1.4109,1.4109,1.4109,1.4109,1.4109,1.4109,1.4109,1.4109,1.4109,1.4109,1.4088,1.4018,1.3976,1.3822,1.2353,1.2668,1.3874,1.4041,1.1079,0.7764,1.2139,1.3618,1.3228,1.1052,1.0358,1.0811,1.3167,1.3913,1.3976,1.3976,1.4039,1.4109,1.4109,1.4109,1.4109,1.4109,1.4109,1.4109,1.4109,1.4109,1.4001,1.3686,1.3633,1.3547,1.3293,1.3233,1.322,1.322,1.3207,1.3193,1.3193,1.3193,1.3193,1.3193,1.3127,1.2612,1.1464,1.1324,1.0741,0.9567,0.9398,0.9591,1.0188,1.0213,1.034,1.0605,1.0524,0.9901,0.8759,0.7643,0.7095,0.7095,0.7095,0.7095,0.7095,0.7095,0.7095,0.7095,0.7095,0.7095,0.7095,0.7095,0.7095,0.7095,0.7095,0.7095,0.7095,2.0869,2.0574,2.0459,2.0586,2.0605,2.0605,2.0605,2.0605,2.0605,2.0605,2.0605,2.0605,2.0605,2.0605,2.0605,2.0605,2.0605,2.0605,2.0605,1.9835,1.9382,1.9382,1.831,1.7314,1.6498,1.5964,1.5296,1.4468,1.4229,1.4109,1.4109,1.4109,1.4109,1.4109,1.4109,1.4109,1.4109,1.4109,1.4109,1.4018,1.3097,1.2723,1.2659,1.2032,1.165,1.1661,1.3458,1.1088,0.7278,0.8388,0.8757,0.8664,0.8104,0.7923,0.8388,1.0747,1.2035,1.2723,1.2723,1.3406,1.4109,1.4109,1.4109,1.4109,1.4109,1.4109,1.4109,1.4109,1.4109,1.4089,1.3995,1.3981,1.3961,1.3888,1.3667,1.35,1.35,1.3333,1.3193,1.3193,1.3193,1.3193,1.3193,1.2407,1.1444,1.0368,0.9477,0.8573,0.762,0.7527,0.8329,1.013,1.0406,1.0538,1.0611,0.9727,0.8711,0.7514,0.7228,0.7095,0.7095,0.7095,0.7095,0.7095,0.7095,0.7095,0.7095,0.7095,0.7095,0.7095,0.7095,0.7095,0.7095,0.7095,0.7095,0.7095,2.0692,2.0605,2.0605,2.0605,2.0605,2.0605,2.0605,2.0605,2.0421,1.9942,1.9864,1.9678,1.9146,1.9087,1.9087,1.9087,1.9579,1.9864,1.9864,1.8838,1.821,1.821,1.7151,1.6293,1.5717,1.522,1.4671,1.4109,1.4109,1.4109,1.4109,1.4109,1.4109,1.4109,1.4109,1.4109,1.4109,1.4109,1.3779,1.323,1.2568,1.198,1.145,1.0733,1.0531,1.0638,1.0833,0.9275,0.7105,0.7092,0.7103,0.7101,0.7101,0.7101,0.7349,0.8621,1.0195,1.1509,1.1509,1.2376,1.34,1.3955,1.4109,1.4109,1.4109,1.4109,1.4109,1.4109,1.4109,1.4109,1.4109,1.4109,1.4109,1.4109,1.3948,1.3827,1.3827,1.3707,1.3614,1.3614,1.3124,1.2778,1.2778,1.1752,1.0627,0.9519,0.8877,0.8083,0.7042,0.698,0.7537,0.8751,0.8931,0.9008,0.9008,0.8382,0.7753,0.7095,0.7095,0.7095,0.7095,0.7095,0.7095,0.7095,0.7095,0.7095,0.7095,0.7095,0.7095,0.7095,0.7095,0.7095,0.7095,0.7095,0.7095,0.7095,2.0605,2.0605,2.0605,2.0605,2.0469,2.0362,2.0362,2.0196,1.9776,1.8858,1.8738,1.837,1.7423,1.7302,1.7302,1.7302,1.8049,1.857,1.8738,1.7678,1.705,1.705,1.6026,1.5455,1.5455,1.4573,1.4109,1.4109,1.4109,1.4109,1.4109,1.4109,1.4109,1.4109,1.4109,1.4109,1.4088,1.3906,1.3245,1.2264,1.1938,1.1209,1.0221,0.9061,0.9227,0.981,0.7812,0.7095,0.7095,0.7095,0.7095,0.7095,0.7095,0.7095,0.7095,0.7095,0.851,1.0113,1.0286,1.1187,1.2285,1.3322,1.3695,1.3822,1.3822,1.3976,1.4109,1.4109,1.4109,1.4109,1.4109,1.4109,1.4109,1.4109,1.4109,1.4109,1.4109,1.4109,1.4109,1.4109,1.3027,1.2306,1.2306,1.1101,0.9944,0.8978,0.8737,0.8189,0.7161,0.7095,0.7095,0.7095,0.7095,0.7095,0.7095,0.7095,0.7095,0.7095,0.7095,0.7095,0.7095,0.7095,0.7095,0.7095,0.7095,0.7095,0.7095,0.7095,0.7095,0.7095,0.7095,0.7095,0.7095,0.7095,0.7095,0.7095,2.0605,2.0605,2.0605,2.0605,1.9854,1.9244,1.9244,1.843,1.7738,1.7597,1.7565,1.7504,1.7314,1.7302,1.7302,1.7302,1.6621,1.6601,1.7496,1.656,1.5944,1.5944,1.4915,1.4356,1.4356,1.4194,1.4109,1.4109,1.4109,1.4109,1.4109,1.4109,1.4109,1.4109,1.4109,1.4109,1.4039,1.3006,1.2477,1.213,1.0204,0.9323,0.9039,0.7841,0.7496,0.7588,0.7231,0.7095,0.7095,0.7095,0.7095,0.7095,0.7095,0.7095,0.7095,0.7095,0.7356,0.7859,0.8886,0.9988,1.0913,1.1106,1.1858,1.2589,1.2589,1.3379,1.4109,1.4109,1.4109,1.4109,1.4109,1.4109,1.4109,1.4109,1.4109,1.4109,1.4109,1.4109,1.4109,1.4109,1.3027,1.2306,1.2306,1.0394,0.9082,0.8912,0.7951,0.7294,0.7117,0.7095,0.7095,0.7095,0.7095,0.7095,0.7095,0.7095,0.7095,0.7095,0.7095,0.7095,0.7095,0.7095,0.7095,0.7095,0.7095,0.7095,0.7095,0.7095,0.7095,0.7095,0.7095,0.7095,0.7095,0.7095,0.7095,0.7095,2.0605,2.0605,2.0421,1.9844,1.9323,1.8798,1.8169,1.7646,1.709,1.6519,1.6437,1.6219,1.5636,1.5573,1.5573,1.5573,1.5123,1.504,1.5532,1.5103,1.4831,1.4831,1.4349,1.4109,1.4109,1.4109,1.4109,1.4109,1.4109,1.4109,1.4109,1.4109,1.4109,1.4109,1.4109,1.373,1.309,1.2547,1.1595,1.0373,0.9323,0.8518,0.7863,0.7316,0.7095,0.7095,0.7095,0.7095,0.7095,0.7095,0.7095,0.7095,0.7095,0.7095,0.7095,0.7095,0.7095,0.736,0.8562,0.9279,0.984,1.0438,1.0994,1.1381,1.1381,1.1821,1.2211,1.2211,1.2211,1.2211,1.2211,1.2708,1.2921,1.2303,1.3279,1.3652,1.2388,1.2729,1.2899,1.2297,1.1171,1.0459,1.0459,0.8925,0.7929,0.7929,0.7426,0.7095,0.7095,0.7095,0.7095,0.7095,0.7095,0.7095,0.7095,0.7095,0.7095,0.7095,0.7095,0.7095,0.7095,0.7095,0.7095,0.7095,0.7095,0.7095,0.7095,0.7095,0.7095,0.7095,0.7095,0.7095,0.7095,0.7095,0.7095,0.7095,2.0605,2.0401,1.9962,1.9135,1.857,1.794,1.705,1.6731,1.626,1.5442,1.5338,1.5012,1.4194,1.4109,1.4109,1.4109,1.4109,1.4109,1.4109,1.4109,1.4109,1.4109,1.4109,1.4109,1.4109,1.4109,1.4109,1.4109,1.4109,1.4109,1.4109,1.4109,1.3955,1.3688,1.3688,1.3012,1.1895,1.1617,1.0503,0.8868,0.8584,0.7929,0.7095,0.7095,0.7095,0.7095,0.7095,0.7095,0.7095,0.7095,0.7095,0.7095,0.7095,0.7095,0.7095,0.7095,0.7095,0.7294,0.8233,0.8474,0.8689,0.957,1.0005,1.0204,1.0204,1.0416,1.0611,1.0611,1.0611,1.0611,1.0611,1.1316,1.1617,1.074,1.2104,1.2671,1.0848,1.1338,1.1574,1.0697,0.9601,0.889,0.889,0.7819,0.7095,0.7095,0.7095,0.7095,0.7095,0.7095,0.7095,0.7095,0.7095,0.7095,0.7095,0.7095,0.7095,0.7095,0.7095,0.7095,0.7095,0.7095,0.7095,0.7095,0.7095,0.7095,0.7095,0.7095,0.7095,0.7095,0.7095,0.7095,0.7095,0.7095,0.7095,0.7095,2.0605,1.9805,1.9096,1.9016,1.7305,1.5902,1.582,1.4977,1.4313,1.4229,1.4229,1.4194,1.4109,1.4109,1.4109,1.4109,1.4109,1.4109,1.4109,1.4109,1.4109,1.4109,1.4109,1.4109,1.4109,1.4109,1.4109,1.4109,1.4109,1.4109,1.4109,1.4109,1.3491,1.2434,1.2434,1.1788,1.0654,0.9601,0.9061,0.8803,0.7687,0.7183,0.7095,0.7095,0.7095,0.7095,0.7095,0.7095,0.7095,0.7095,0.7095,0.7095,0.7095,0.7095,0.7095,0.7095,0.7095,0.7117,0.7205,0.7228,0.725,0.7334,0.8189,0.9017,0.9017,0.9836,1.0611,1.0611,1.0611,1.0611,1.0611,1.0675,1.0697,1.0611,1.074,1.0805,1.0632,1.0675,1.0697,1.0611,0.9601,0.889,0.889,0.7819,0.7095,0.7095,0.7095,0.7095,0.7095,0.7095,0.7095,0.7095,0.7095,0.7095,0.7095,0.7095,0.7095,0.7095,0.7095,0.7095,0.7095,0.7095,0.7095,0.7095,0.7095,0.7095,0.7095,0.7095,0.7095,0.7095,0.7095,0.7095,0.7095,0.7095,0.7095,0.7095,2.0605,1.9737,1.8778,1.8069,1.6695,1.5476,1.4817,1.4349,1.4109,1.4109,1.4109,1.4109,1.4109,1.4109,1.4109,1.4109,1.4109,1.4109,1.4109,1.4109,1.4109,1.4109,1.4109,1.4109,1.4109,1.4109,1.4109,1.4109,1.3358,1.2984,1.2963,1.2254,1.1692,1.1252,1.1252,1.0611,0.9514,0.9087,0.8474,0.7753,0.7294,0.7095,0.7095,0.7095,0.7095,0.7095,0.7095,0.7095,0.7095,0.7095,0.7095,0.7095,0.7095,0.7095,0.7095,0.7095,0.7095,0.7095,0.7095,0.7095,0.7095,0.7095,0.7445,0.7775,0.7775,0.8119,0.8422,0.8422,0.8422,0.8422,0.8422,0.9035,0.9296,0.8554,0.9657,1.0091,0.8641,0.9078,0.9274,0.851,0.8057,0.7775,0.7775,0.736,0.7095,0.7095,0.7095,0.7095,0.7095,0.7095,0.7095,0.7095,0.7095,0.7095,0.7095,0.7095,0.7095,0.7095,0.7095,0.7095,0.7095,0.7095,0.7095,0.7095,0.7095,0.7095,0.7095,0.7095,0.7095,0.7095,0.7095,0.7095,0.7095,0.7095,0.7095,0.7095,2.0157,1.9215,1.8101,1.6989,1.591,1.4957,1.4208,1.4109,1.4109,1.4109,1.4109,1.4109,1.4109,1.4109,1.4109,1.4109,1.4109,1.4109,1.4109,1.4109,1.4109,1.4109,1.4109,1.4109,1.4109,1.4109,1.4109,1.4109,1.2899,1.2306,1.2285,1.1123,1.0416,1.0074,1.0074,0.9427,0.8346,0.8346,0.7863,0.7095,0.7095,0.7095,0.7095,0.7095,0.7095,0.7095,0.7095,0.7095,0.7095,0.7095,0.7095,0.7095,0.7095,0.7095,0.7095,0.7095,0.7095,0.7095,0.7095,0.7095,0.7095,0.7095,0.7095,0.7095,0.7095,0.7095,0.7095,0.7095,0.7095,0.7095,0.7095,0.7775,0.8061,0.7228,0.8444,0.8943,0.7334,0.7819,0.8035,0.7205,0.7095,0.7095,0.7095,0.7095,0.7095,0.7095,0.7095,0.7095,0.7095,0.7095,0.7095,0.7095,0.7095,0.7095,0.7095,0.7095,0.7095,0.7095,0.7095,0.7095,0.7095,0.7095,0.7095,0.7095,0.7095,0.7095,0.7095,0.7095,0.7095,0.7095,0.7095,0.7095,0.7095,0.7095,0.7095,0.7095,1.9204,1.8089,1.6948,1.5882,1.481,1.4109,1.4109,1.4109,1.4109,1.4109,1.4109,1.4109,1.4109,1.4109,1.4109,1.4109,1.4109,1.4109,1.4109,1.4109,1.4109,1.4109,1.4109,1.4109,1.4088,1.4088,1.4088,1.4067,1.2857,1.2264,1.2242,1.1101,0.9966,0.889,0.889,0.8211,0.7095,0.7095,0.7095,0.7095,0.7095,0.7095,0.7095,0.7095,0.7095,0.7095,0.7095,0.7095,0.7095,0.7095,0.7095,0.7095,0.7095,0.7095,0.7095,0.7095,0.7095,0.7095,0.7095,0.7095,0.7095,0.7095,0.7095,0.7095,0.7095,0.7095,0.7095,0.7095,0.7095,0.7095,0.7095,0.7095,0.7095,0.7095,0.7095,0.7095,0.7095,0.7095,0.7095,0.7095,0.7095,0.7095,0.7095,0.7095,0.7095,0.7095,0.7095,0.7095,0.7095,0.7095,0.7095,0.7095,0.7095,0.7095,0.7095,0.7095,0.7095,0.7095,0.7095,0.7095,0.7095,0.7095,0.7095,0.7095,0.7095,0.7095,0.7095,0.7095,0.7095,0.7095,0.7095,0.7095,0.7095,0.7095,0.7095,0.7095,1.9056,1.7476,1.6067,1.5765,1.481,1.4109,1.4109,1.4109,1.4109,1.4109,1.4109,1.4109,1.4109,1.4109,1.4109,1.4109,1.4109,1.4109,1.4109,1.4109,1.4109,1.4109,1.4109,1.3688,1.2857,1.2829,1.2446,1.1649,1.0486,0.9923,0.9879,0.8707,0.7965,0.7643,0.7643,0.7448,0.7095,0.7095,0.7095,0.7095,0.7095,0.7095,0.7095,0.7095,0.7095,0.7095,0.7095,0.7095,0.7095,0.7095,0.7095,0.7095,0.7095,0.7095,0.7095,0.7095,0.7095,0.7095,0.7095,0.7095,0.7095,0.7095,0.7095,0.7095,0.7095,0.7095,0.7095,0.7095,0.7095,0.7095,0.7095,0.7095,0.7095,0.7095,0.7095,0.7095,0.7095,0.7095,0.7095,0.7095,0.7095,0.7095,0.7095,0.7095,0.7095,0.7095,0.7095,0.7095,0.7095,0.7095,0.7095,0.7095,0.7095,0.7095,0.7095,0.7095,0.7095,0.7095,0.7095,0.7095,0.7095,0.7095,0.7095,0.7095,0.7095,0.7095,0.7095,0.7095,0.7095,0.7095,0.7095,0.7095,0.7095,0.7095,0.7095,0.7095,1.7859,1.6613,1.5559,1.5137,1.4531,1.4109,1.4109,1.4109,1.4109,1.4109,1.4109,1.4109,1.4109,1.4109,1.4109,1.4109,1.4109,1.4109,1.4109,1.4109,1.3891,1.34,1.3379,1.3048,1.2328,1.1852,1.1295,1.0611,0.9449,0.889,0.8868,0.7665,0.7095,0.7095,0.7095,0.7095,0.7095,0.7095,0.7095,0.7095,0.7095,0.7095,0.7095,0.7095,0.7095,0.7095,0.7095,0.7095,0.7095,0.7095,0.7095,0.7095,0.7095,0.7095,0.7095,0.7095,0.7095,0.7095,0.7095,0.7095,0.7095,0.7095,0.7095,0.7095,0.7095,0.7095,0.7095,0.7095,0.7095,0.7095,0.7095,0.7095,0.7095,0.7095,0.7095,0.7095,0.7095,0.7095,0.7095,0.7095,0.7095,0.7095,0.7095,0.7095,0.7095,0.7095,0.7095,0.7095,0.7095,0.7095,0.7095,0.7095,0.7095,0.7095,0.7095,0.7095,0.7095,0.7095,0.7095,0.7095,0.7095,0.7095,0.7095,0.7095,0.7095,0.7095,0.7095,0.7095,0.7095,0.7095,0.7095,0.7095,0.7095,0.7095,0.7095,0.7095,1.6108,1.5621,1.5262,1.4271,1.4109,1.4109,1.4109,1.4109,1.4109,1.4109,1.4109,1.4109,1.4109,1.4109,1.4109,1.4109,1.4109,1.4109,1.4109,1.3997,1.3442,1.2349,1.2093,1.2002,1.2002,1.0977,1.0394,1.0286,0.9257,0.8737,0.8715,0.7621,0.7095,0.7095,0.7095,0.7095,0.7095,0.7095,0.7095,0.7095,0.7095,0.7095,0.7095,0.7095,0.7095,0.7095,0.7095,0.7095,0.7095,0.7095,0.7095,0.7095,0.7095,0.7095,0.7095,0.7095,0.7095,0.7095,0.7095,0.7095,0.7095,0.7095,0.7095,0.7095,0.7095,0.7095,0.7095,0.7095,0.7095,0.7095,0.7095,0.7095,0.7095,0.7095,0.7095,0.7095,0.7095,0.7095,0.7095,0.7095,0.7095,0.7095,0.7095,0.7095,0.7095,0.7095,0.7095,0.7095,0.7095,0.7095,0.7095,0.7095,0.7095,0.7095,0.7095,0.7095,0.7095,0.7095,0.7095,0.7095,0.7095,0.7095,0.7095,0.7095,0.7095,0.7095,0.7095,0.7095,0.7095,0.7095,0.7095,0.7095,0.7095,0.7095,0.7095,0.7095,1.5779,1.5019,1.437,1.4152,1.4109,1.4109,1.4109,1.4109,1.4109,1.4109,1.4109,1.4109,1.4109,1.4109,1.4109,1.4109,1.4109,1.4109,1.4109,1.323,1.2568,1.2306,1.0589,0.9645,0.9645,0.9383,0.8798,0.7856,0.7621,0.7489,0.7489,0.7228,0.7095,0.7095,0.7095,0.7095,0.7095,0.7095,0.7095,0.7095,0.7095,0.7095,0.7095,0.7095,0.7095,0.7095,0.7095,0.7095,0.7095,0.7095,0.7095,0.7095,0.7095,0.7095,0.7095,0.7095,0.7095,0.7095,0.7095,0.7095,0.7095,0.7095,0.7095,0.7095,0.7095,0.7095,0.7095,0.7095,0.7095,0.7095,0.7095,0.7095,0.7095,0.7095,0.7095,0.7095,0.7095,0.7095,0.7095,0.7095,0.7095,0.7095,0.7095,0.7095,0.7095,0.7095,0.7095,0.7095,0.7095,0.7095,0.7095,0.7095,0.7095,0.7095,0.7095,0.7095,0.7095,0.7095,0.7095,0.7095,0.7095,0.7095,0.7095,0.7095,0.7095,0.7095,0.7095,0.7095,0.7095,0.7095,0.7095,0.7095,0.7095,0.7095,0.7095,0.7095,1.5033,1.4468,1.4109,1.4109,1.4109,1.4109,1.4109,1.4109,1.4109,1.4109,1.4109,1.4109,1.4109,1.4109,1.4109,1.4109,1.4109,1.4109,1.4109,1.3512,1.2659,1.1536,1.0351,0.9187,0.8057,0.8039,0.7731,0.7095,0.7095,0.7095,0.7095,0.7095,0.7095,0.7095,0.7095,0.7095,0.7095,0.7095,0.7095,0.7095,0.7095,0.7095,0.7095,0.7095,0.7095,0.7095,0.7095,0.7095,0.7095,0.7095,0.7095,0.7095,0.7095,0.7095,0.7095,0.7095,0.7095,0.7095,0.7095,0.7095,0.7095,0.7095,0.7095,0.7095,0.7095,0.7095,0.7095,0.7095,0.7095,0.7095,0.7095,0.7095,0.7095,0.7095,0.7095,0.7095,0.7095,0.7095,0.7095,0.7095,0.7095,0.7095,0.7095,0.7095,0.7095,0.7095,0.7095,0.7095,0.7095,0.7095,0.7095,0.7095,0.7095,0.7095,0.7095,0.7095,0.7095,0.7095,0.7095,0.7095,0.7095,0.7095,0.7095,0.7095,0.7095,0.7095,0.7095,0.7095,0.7095,0.7095,0.7095,0.7095,0.7095,0.7095,0.7095,0.7095,1.4271,1.4109,1.4109,1.4109,1.4109,1.4109,1.4109,1.4109,1.4109,1.4109,1.4109,1.4109,1.4109,1.4109,1.4109,1.4109,1.4109,1.4109,1.4109,1.3716,1.2629,1.0675,1.0221,0.9096,0.7139,0.7095,0.7095,0.7095,0.7095,0.7095,0.7095,0.7095,0.7095,0.7095,0.7095,0.7095,0.7095,0.7095,0.7095,0.7095,0.7095,0.7095,0.7095,0.7095,0.7095,0.7095,0.7095,0.7095,0.7095,0.7095,0.7095,0.7095,0.7095,0.7095,0.7095,0.7095,0.7095,0.7095,0.7095,0.7095,0.7095,0.7095,0.7095,0.7095,0.7095,0.7095,0.7095,0.7095,0.7095,0.7095,0.7095,0.7095,0.7095,0.7095,0.7095,0.7095,0.7095,0.7095,0.7095,0.7095,0.7095,0.7095,0.7095,0.7095,0.7095,0.7095,0.7095,0.7095,0.7095,0.7095,0.7095,0.7095,0.7095,0.7095,0.7095,0.7095,0.7095,0.7095,0.7095,0.7095,0.7095,0.7095,0.7095,0.7095,0.7095,0.7095,0.7095,0.7095,0.7095,0.7095,0.7095,0.7095,0.7095,0.7095,0.7095,0.7095,1.413,1.4109,1.4109,1.4109,1.4109,1.4109,1.4109,1.4109,1.4109,1.4109,1.4109,1.4109,1.4109,1.4109,1.4109,1.4109,1.4109,1.4109,1.4109,1.2196,1.0934,1.0611,0.8659,0.7423,0.7095,0.7095,0.7095,0.7095,0.7095,0.7095,0.7095,0.7095,0.7095,0.7095,0.7095,0.7095,0.7095,0.7095,0.7095,0.7095,0.7095,0.7095,0.7095,0.7095,0.7095,0.7095,0.7095,0.7095,0.7095,0.7095,0.7095,0.7095,0.7095,0.7095,0.7095,0.7095,0.7095,0.7095,0.7095,0.7095,0.7095,0.7095,0.7095,0.7095,0.7095,0.7095,0.7095,0.7095,0.7095,0.7095,0.7095,0.7095,0.7095,0.7095,0.7095,0.7095,0.7095,0.7095,0.7095,0.7095,0.7095,0.7095,0.7095,0.7095,0.7095,0.7095,0.7095,0.7095,0.7095,0.7095,0.7095,0.7095,0.7095,0.7095,0.7095,0.7095,0.7095,0.7095,0.7095,0.7095,0.7095,0.7095,0.7095,0.7095,0.7095,0.7095,0.7095,0.7095,0.7095,0.7095,0.7095,0.7095,0.7095,0.7095,0.7095,0.7095,1.4109,1.4109,1.4109,1.4109,1.4109,1.4109,1.4109,1.4109,1.4109,1.4109,1.4109,1.4109,1.4109,1.4109,1.4109,1.4109,1.4109,1.4109,1.4109,1.313,1.1976,1.0654,0.9614,0.8444,0.7139,0.7095,0.7095,0.7095,0.7095,0.7095,0.7095,0.7095,0.7095,0.7095,0.7095,0.7095,0.7095,0.7095,0.7095,0.7095,0.7095,0.7095,0.7095,0.7095,0.7095,0.7095,0.7095,0.7095,0.7095,0.7095,0.7095,0.7095,0.7095,0.7095,0.7095,0.7095,0.7095,0.7095,0.7095,0.7095,0.7095,0.7095,0.7095,0.7095,0.7095,0.7095,0.7095,0.7095,0.7095,0.7095,0.7095,0.7095,0.7095,0.7095,0.7095,0.7095,0.7095,0.7095,0.7095,0.7095,0.7095,0.7095,0.7095,0.7095,0.7095,0.7095,0.7095,0.7095,0.7095,0.7095,0.7095,0.7095,0.7095,0.7095,0.7095,0.7095,0.7095,0.7095,0.7095,0.7095,0.7095,0.7095,0.7095,0.7095,0.7095,0.7095,0.7095,0.7095,0.7095,0.7095,0.7095,0.7095,0.7095,0.7095,0.7095,0.7095]},{"header":{"parameterUnit":"m.s-1","parameterCategory":1,"la1":30.6,"la2":28.766,"lo1":-90.7593,"lo2":-88.6598,"dy":0.0162,"dx":0.0183,"nx":116,"ny":114,"refTime":"2023-08-19T06:00:00:Z","depth":0,"parameterNumber":3,"parameterNumberName":"V-component_of_WINDS"},"data":[0.0,0.0,0.0,0.0,0.0,0.0,0.0,0.0,0.0,0.0,0.0,0.0,0.0,0.0,0.0,0.0,0.0,0.0,0.0,0.0,0.0,0.0,0.0,0.0,0.0,0.0,0.0,0.0,0.0,0.0,0.0,0.0,0.0,0.0,0.0,0.0,0.0,0.0,0.0,0.0,0.0,0.0,0.0,0.0,0.0,0.0,0.0,0.0,0.0,0.0,0.0,0.0,0.0,0.0,0.0,0.0,0.0,0.0,0.0,0.0,0.0,0.0,0.0,0.0,0.0,0.0,0.0,0.0,0.0,0.0,0.0,0.0,0.0,0.0,0.0,0.0,0.0,0.0,0.0,0.0,0.0,0.0,0.0,0.0,0.0,0.0,0.0,0.0,0.0,0.0,0.0,0.0,0.0,0.0,0.0,0.0,0.0,0.0,0.0,0.0,0.0,0.0,0.0,0.0,0.0,0.0,0.0,0.0,0.0,0.0,0.0,0.0,0.0,0.0,0.0,0.0,0.0,0.0,0.0,0.0,0.0,0.0,0.0,0.0,0.0,0.0,0.0,0.0,0.0,0.0,0.0,0.0,0.0,0.0,0.0,0.0,0.0,0.0,0.0,0.0,0.0,0.0,0.0,0.0,0.0,0.0,0.0,0.0,0.0,0.0,0.0,0.0,0.0,0.0,0.0,0.0,0.0,0.0,0.0,0.0,0.0,0.0,0.0,0.0,0.0,0.0,0.0,0.0,0.0,0.0,0.0,0.0,0.0,0.0,0.0,0.0,0.0,0.0,0.0,0.0,0.0,0.0,0.0,0.0,0.0,0.0,0.0,0.0,0.0,0.0,0.0,0.0,0.0,0.0,0.0,0.0,0.0,0.0,0.0,0.0,0.0,0.0,0.0,0.0,0.0,0.0,0.0,0.0,0.0,0.0,0.0,0.0,0.0,0.0,0.0,0.0,0.0,0.0,0.0,0.0,0.0,0.0,0.0,0.0,0.0,0.0,0.0,0.0,0.0,0.0,0.0,0.0,0.0,0.0,0.0,0.0,0.0,0.0,0.0,0.0,0.0,0.0,0.0,0.0,0.0,0.0,0.0,0.0,0.0,0.0,0.0,0.0,0.0,0.0,0.0,0.0,0.0,0.0,0.0,0.0,0.0,0.0,0.0,0.0,0.0,0.0,0.0,0.0,0.0,0.0,0.0,0.0,0.0,0.0,0.0,0.0,0.0,0.0,0.0,0.0,0.0,0.0,0.0,0.0,0.0,0.0,0.0,0.0,0.0,0.0,0.0,0.0,0.0,0.0,0.0,0.0,0.0,0.0,0.0,0.0,0.0,0.0,0.0,0.0,0.0,0.0,0.0,0.0,0.0,0.0,0.0,0.0,0.0,0.0,0.0,0.0,0.0,0.0,0.0,0.0,0.0,0.0,0.0,0.0,0.0,0.0,0.0,0.0,0.0,0.0,0.0,0.0,0.0,0.0,0.0,0.0,0.0,0.0,0.0,0.0,0.0,0.0,0.0,0.0,0.0,0.0,0.0,0.0,0.0,0.0,0.0,0.0,0.0,0.0,0.0,0.0,0.0,0.0,0.0,0.0,0.0,0.0,0.0,0.0,0.0,0.0,0.0,0.0,0.0,0.0,0.0,0.0,0.0,0.0,0.0,0.0,0.0,0.0,0.0,0.0,0.0,0.0,0.0,0.0,0.0,0.0,0.0,0.0,0.0,0.0,0.0,0.0,0.0,0.0,0.0,0.0,0.0,0.0,0.0,0.0,0.0,0.0,0.0,0.0,0.0,0.0,0.0,0.0,0.0,0.0,0.0,0.0,0.0,0.0,0.0,0.0,0.0,0.0,0.0,0.0,0.0,0.0,0.0,0.0,0.0,0.0,0.0,0.0,0.0,0.0,0.0,0.0,0.0,0.0,0.0,0.0,0.0,0.0,0.0,0.0,0.0,0.0,0.0,0.0,0.0,0.0,0.0,0.0,0.0,0.0,0.0,0.0,0.0,0.0,0.0,0.0,0.0,0.0,0.0,0.0,0.0,0.0,0.0,0.0,0.0,0.0,0.0,0.0,0.0,0.0,0.0,0.0,0.0,0.0,0.0,0.0,0.0,0.0,0.0,0.0,0.0,0.0,0.0,0.0,0.0,0.0,0.0,0.0,0.0,0.0,0.0,0.0,0.0,0.0,0.0,0.0,0.0,0.0,0.0,0.0,0.0,0.0,0.0,0.0,0.0,0.0,0.0,0.0,0.0,0.0,0.0,0.0,0.0,0.0,0.0,0.0,0.0,0.0,0.0,0.0,0.0,0.0,0.0,0.0,0.0,0.0,0.0,0.0,0.0,0.0,0.0,0.0,0.0,0.0,0.0,0.0,0.0,0.0,0.0,0.0,0.0,0.0,0.0,0.0,0.0,0.0,0.0,0.0,0.0,0.0,0.0,0.0,0.0,0.0,0.0,0.0,0.0,0.0,0.0,0.0,0.0,0.0,0.0,0.0,0.0,0.0,0.0,0.0,0.0,0.0,0.0,0.0,0.0,0.0,0.0,0.0,0.0,0.0,0.0,0.0,0.0,0.0,0.0,0.0,0.0,0.0,0.0,0.0,0.0,0.0,0.0,0.0,0.0,0.0,0.0,0.0,0.0,0.0,0.0,0.0,0.0,0.0,0.0,0.0,0.0,0.0,0.0,0.0,0.0,0.0,0.0,0.0,0.0,0.0,0.0,0.0,0.0,0.0,0.0,0.0,0.0,0.0,0.0,0.0,0.0,0.0,0.0,0.0,0.0,0.0,0.0,0.0,0.0,0.0,0.0,0.0,0.0,0.0,0.0,0.0,0.0,0.0,0.0,0.0,0.0,0.0,0.0,0.0,0.0,0.0,0.0,0.0,0.0,0.0,0.0,0.0,0.0,0.0,0.0,0.0,0.0,0.0,0.0,0.0,0.0,0.0,0.0,0.0,0.0,0.0,0.0,0.0,0.0,0.0,0.0,0.0,0.0,0.0,0.0,0.0,0.0,0.0,0.0,0.0,0.0,0.0,0.0,0.0,0.0,0.0,0.0,0.0,0.0,0.0,0.0,0.0,0.0,0.0,0.0,0.0,0.0,0.0,0.0,0.0,0.0,0.0,0.0,0.0,0.0,0.0,0.0,0.0,0.0,0.0,0.0,0.0,0.0,0.0,0.0,0.0,0.0,0.0,0.0,0.0,0.0,0.0,0.0,0.0,0.0,0.0,0.0,0.0,0.0,0.0,0.0,0.0,0.0,0.0,0.0,0.0,0.0,0.0,0.0,0.0,0.0,0.0,0.0,0.0,0.0,0.0,0.0,0.0,0.0,0.0,0.0,0.0,0.0,0.0,0.0,0.0,0.0,0.0,0.0,0.0,0.0,0.0,0.0,0.0,0.0,0.0,0.0,0.0,0.0,0.0,0.0,0.0,0.0,0.0,0.0,0.0,0.0,0.0,0.0,0.0,0.0,0.0,0.0,0.0,0.0,0.0,0.0,0.0,0.0,0.0,0.0,0.0,0.0,0.0,0.0,0.0,0.0,0.0,0.0,0.0,0.0,0.0,0.0,0.0,0.0,0.0,0.0,0.0,0.0,0.0,0.0,0.0,0.0,0.0,0.0,0.0,0.0,0.0,0.0,0.0,0.0,0.0,0.0,0.0,0.0,0.0,0.0,0.0,0.0,0.0,0.0,0.0,0.0,0.0,0.0,0.0,0.0,0.0,0.0,0.0,0.0,0.0,0.0,0.0,0.0,0.0,0.0,0.0,0.0,0.0,0.0,0.0,0.0,0.0,0.0,0.0,0.0,0.0,0.0,0.0,0.0,0.0,0.0,0.0,0.0,0.0,0.0,0.0,0.0,0.0,0.0,0.0,0.0,0.0,0.0,0.0,0.0,0.0,0.0,0.0,0.0,0.0,0.0,0.0,0.0,0.0,0.0,0.0,0.0,0.0,0.0,0.0,0.0,0.0,0.0,0.0,0.0,0.0,0.0,0.0,0.0,0.0,0.0,0.0,0.0,0.0,0.0,0.0,0.0,0.0,0.0,0.0,0.0,0.0,0.0,0.0,0.0,0.0,0.0,0.0,0.0,0.0,0.0,0.0,0.0,0.0,0.0,0.0,0.0,0.0,0.0,0.0,0.0,0.0,0.0,0.0,0.0,0.0,0.0,0.0,0.0,0.0,0.0,0.0,0.0,0.0,0.0,0.0,0.0,0.0,0.0,0.0,0.0,0.0,0.0,0.0,0.0,0.0,0.0,0.0,0.0,0.0,0.0,0.0,0.0,0.0,0.0,0.0,0.0,0.0,0.0,0.0,0.0,0.0,0.0,0.0,0.0,0.0,0.0,0.0,0.0,0.0,0.0,0.0,0.0,0.0,0.0,0.0,0.0,0.0,0.0,0.0,0.0,0.0,0.0,0.0,0.0,0.0,0.0,0.0,0.0,0.0,0.0,0.0,0.0,0.0,0.0,0.0,0.0,0.0,0.0,0.0,0.0,0.0,0.0,0.0,0.0,0.0,0.0,0.0,0.0,0.0,0.0,0.0,0.0,0.0,0.0,0.0,0.0,0.0,0.0,0.0,0.0,0.0,0.0,0.0,0.0,0.0,0.0,0.0,0.0,0.0,0.0,0.0,0.0,0.0,0.0,0.0,0.0,0.0,0.0,0.0,0.0,0.0,0.0,0.0,0.0,0.0,0.0,0.0,0.0,0.0,0.0,0.0,0.0,0.0,0.0,0.0,0.0,0.0,0.0,0.0,0.0,0.0,0.0,0.0,0.0,0.0,0.0,0.0,0.0,0.0,0.0,0.0,0.0,0.0,0.0,0.0,0.0,0.0,0.0,0.0,0.0,0.0,0.0,0.0,0.0,0.0,0.0,0.0,0.0,0.0,0.0,0.0,0.0,0.0,0.0,0.0,0.0,0.0,0.0,0.0,0.0,0.0,0.0,0.0,0.0,0.0,0.0,0.0,0.0,0.0,0.0,0.0,0.0,0.0,0.0,0.0,0.0,0.0,0.0,0.0,0.0,0.0,0.0,0.0,0.0,0.0,0.0,0.0,0.0,0.0,0.0,0.0,0.0,0.0,0.0,0.0,0.0,0.0,0.0,0.0,0.0,0.0,0.0,0.0,0.0,0.0,0.0,0.0,0.0,0.0,0.0,0.0,0.0,0.0,0.0,0.0,0.0,0.0,0.0,0.0,0.0,0.0,0.0,0.0,0.0,0.0,0.0,0.0,0.0,0.0,0.0,0.0,0.0,0.0,0.0,0.0,0.0,0.0,0.0,0.0,0.0,0.0,0.0,0.0,0.0,0.0,0.0,0.0,0.0,0.0,0.0,0.0,0.0,0.0,0.0,0.0,0.0,0.0,0.0,0.0,0.0,0.0,0.0,0.0,0.0,0.0,0.0,0.0,0.0,0.0,0.0,0.0,0.0,0.0,0.0,0.0,0.0,0.0,0.0,0.0,0.0,0.0,0.0,0.0,0.0,0.0,0.0,0.0,0.0,0.0,0.0,0.0,0.0,0.0,0.0,0.0,0.0,0.0,0.0,0.0,0.0,0.0,0.0,0.0,0.0,0.0,0.0,0.0,0.0,0.0,0.0,0.0,0.0,0.0,0.0,0.0,0.0,0.0,0.0,0.0,0.0,0.0,0.0,0.0,0.0,0.0,0.0,0.0,0.0,0.0,0.0,0.0,0.0,0.0,0.0,0.0,0.0,0.0,0.0,0.0,0.0,0.0,0.0,0.0,0.0,0.0,0.0,0.0,0.0,0.0,0.0,0.0,0.0,0.0,0.0,0.0,0.0,0.0,0.0,0.0,0.0,0.0,0.0,0.0,0.0,0.0,0.0,0.0,0.0,0.0,0.0,0.0,0.0,0.0,0.0,0.0,0.0,0.0,0.0,0.0,0.0,0.0,0.0,0.0,0.0,0.0,0.0,0.0,0.0,0.0,0.0,0.0,0.0,0.0,0.0,0.0,0.0,0.0,0.0,0.0,0.0,0.0,0.0,0.0,0.0,0.0,0.0,0.0,0.0,0.0,0.0,0.0,0.0,0.0,0.0,0.0,0.0,0.0,0.0,0.0,0.0,0.0,0.0,0.0,0.7486,0.8184,0.0,0.0,0.0,0.0,0.0,0.0,0.0,0.0,0.0,0.0,0.0,0.0,0.0,0.0,0.0,0.0,0.0,0.0,0.0,0.0,0.0,0.0,0.0,0.0,0.0,0.0,0.0,0.0,0.0,0.0,0.0,0.0,0.0,0.0,0.0,0.0,0.0,0.0,1.6635,1.6116,1.5679,1.6331,1.6674,1.6806,0.0,0.0,0.0,0.0,0.0,0.0,0.0,0.0,0.0,0.0,0.0,0.0,0.0,0.0,0.0,0.0,0.0,0.0,0.0,0.0,0.0,0.0,0.0,0.0,0.0,0.0,0.0,0.0,0.0,0.0,0.0,0.0,0.0,0.0,0.0,0.0,0.0,0.0,0.0,0.0,0.0,0.0,0.0,0.0,0.0,0.0,0.0,0.0,0.0,0.0,0.0,0.0,0.0,0.0,0.0,0.0,0.0,0.0,0.0,0.0,0.0,0.0,0.0,0.0,0.0,0.0,0.0,0.0,0.0,0.0,0.6929,0.7498,0.0,0.0,0.0,0.0,0.0,0.0,0.0,0.0,0.0,0.0,0.0,0.0,0.0,0.0,0.0,0.0,0.0,0.0,0.0,0.0,0.0,0.0,0.0,0.0,0.0,0.0,0.0,0.0,0.0,0.0,0.0,0.0,0.0,0.0,0.0,0.0,0.0,0.0,1.6453,1.5714,1.5356,1.652,1.7003,1.6961,1.8666,0.0,0.0,0.0,0.0,0.0,0.0,0.0,0.0,0.0,0.0,0.0,0.0,0.0,0.0,0.0,0.0,0.0,0.0,0.0,0.0,0.0,0.0,0.0,0.0,0.0,0.0,0.0,0.0,0.0,0.0,0.0,0.0,0.0,0.0,0.0,0.0,0.0,0.0,0.0,0.0,0.0,0.0,0.0,0.0,0.0,0.0,0.0,0.0,0.0,0.0,0.0,0.0,0.0,0.0,0.0,0.0,0.0,0.0,0.0,0.0,0.0,0.0,0.0,0.653,0.6549,0.6558,0.6674,0.6379,0.583,0.6157,0.6598,0.7181,0.8638,0.0,0.0,0.0,0.0,0.0,0.0,0.0,0.0,0.0,0.0,0.0,0.0,0.0,0.0,0.0,0.0,0.0,0.0,0.0,0.0,0.0,0.0,1.5734,1.5791,1.5741,1.5734,0.0,0.0,0.0,0.0,0.0,0.0,0.0,1.7279,1.7411,1.7084,1.6074,1.5531,1.5484,1.6177,1.6498,1.6527,1.7769,1.8015,1.7565,0.0,0.0,0.0,0.0,0.0,0.0,0.0,0.0,0.0,0.0,0.0,0.0,0.0,0.0,0.0,0.0,0.0,0.0,0.0,0.0,0.0,0.0,0.0,0.0,0.0,0.0,0.0,0.0,0.0,0.0,0.0,0.0,0.0,0.0,0.0,0.0,0.0,0.0,0.0,0.0,0.0,0.8768,0.8685,0.0,0.0,0.0,0.0,0.0,0.0,0.0,0.0,0.0,0.0,0.0,0.0,0.0,0.7016,0.7037,0.6407,0.6081,0.6066,0.5457,0.5171,0.5171,0.5177,0.5142,0.5051,0.51,0.0,0.623,0.7022,0.0,0.0,0.0,0.0,0.0,0.0,0.0,0.0,0.0,0.0,0.0,0.0,0.0,0.0,0.0,0.0,0.0,0.0,0.0,0.0,0.0,1.5411,1.5329,1.5096,1.5277,1.5411,1.5411,0.0,0.0,0.0,0.0,0.0,1.7818,1.7819,1.7438,1.6663,1.6216,1.5671,1.5061,1.5674,1.5762,1.5498,1.668,1.7388,1.7726,1.7993,0.0,0.0,0.0,0.0,0.0,0.0,0.0,0.0,0.0,0.0,0.0,0.0,0.0,0.0,0.0,0.0,0.0,0.0,0.0,0.0,0.0,0.0,0.0,0.0,0.0,0.0,0.0,0.0,0.0,0.0,0.0,0.0,0.0,0.0,0.0,0.0,0.0,0.0,0.0,0.8869,0.814,0.814,0.8396,0.8791,0.0,0.0,0.0,0.0,0.0,0.0,0.0,0.0,0.0,0.8137,0.7948,0.7686,0.7329,0.7007,0.6843,0.6843,0.6591,0.6472,0.6476,0.659,0.6642,0.6642,0.6642,0.6548,0.6427,0.6834,0.7411,0.8189,0.0,0.0,0.0,0.0,1.0829,1.1372,0.0,0.0,0.0,0.0,0.0,0.0,0.0,0.0,0.0,0.0,0.0,0.0,1.5142,1.5013,1.483,1.4533,1.4868,1.5176,1.5342,1.6207,0.0,0.0,0.0,1.8258,1.8874,1.8122,1.7217,1.6173,1.6185,1.5674,1.4721,1.5488,1.5588,1.5197,1.6096,1.6854,1.7477,1.7622,1.8007,1.8506,0.0,0.0,0.0,0.0,0.0,0.0,0.0,0.0,0.0,0.0,0.0,0.0,0.0,0.0,0.0,0.0,0.0,0.0,0.0,0.0,0.0,0.0,0.0,0.0,0.0,0.0,0.0,0.0,0.0,0.0,0.0,0.0,0.0,0.0,0.0,0.0,0.0,0.8205,0.7324,0.7618,0.7417,0.7711,0.0,0.0,0.0,0.0,0.0,0.0,0.8893,0.9255,0.9045,0.8169,0.8287,0.8132,0.7639,0.7623,0.7623,0.7623,0.7798,0.7885,0.789,0.8104,0.8211,0.8211,0.8211,0.7842,0.7241,0.7245,0.7264,0.7411,0.8874,0.9991,1.0646,0.978,1.0276,1.1089,0.0,0.0,0.0,0.0,0.0,0.0,0.0,0.0,0.0,0.0,0.0,1.5134,1.5104,1.476,1.4525,1.4501,1.4868,1.5378,1.6008,1.6465,1.7182,1.8276,1.8531,1.8869,1.9345,1.7974,1.6681,1.5548,1.5607,1.532,1.4721,1.5898,1.6434,1.6412,1.6466,1.6204,1.5763,1.6346,1.69,1.7425,1.7947,0.0,0.0,0.0,0.0,0.0,0.0,0.0,0.0,0.0,0.0,0.0,0.0,0.0,0.0,0.0,0.0,0.0,0.0,0.0,0.0,0.0,0.0,0.0,0.0,0.0,0.0,0.0,0.0,0.0,0.0,0.0,0.0,0.0,0.0,0.0,0.0,0.0,0.0,0.7377,0.6661,0.0,0.0,0.0,0.0,0.9068,0.9838,0.9723,0.8405,0.9138,0.9015,0.7778,0.7737,0.7814,0.7975,0.7975,0.7975,0.798,0.8232,0.8372,0.8378,0.8638,0.8758,0.8758,0.8758,0.8741,0.8652,0.8158,0.7959,0.8115,0.9781,1.0963,1.162,1.0753,1.0488,1.0316,0.0,0.0,0.0,0.0,0.0,0.0,0.0,0.0,0.0,1.5799,1.5389,1.5005,1.4737,1.4588,1.4398,1.4133,1.4721,1.5198,1.5443,1.6635,1.7666,1.8369,1.9002,1.9096,1.8574,1.7707,1.7076,1.6665,1.6343,1.6245,1.6382,1.6464,1.6712,1.7085,1.7085,1.715,1.724,1.6724,1.6816,1.7322,1.7504,1.8116,0.0,0.0,0.0,0.0,0.0,0.0,0.0,0.0,0.0,0.0,0.0,0.0,0.0,0.0,0.0,0.0,0.0,0.0,0.0,0.0,0.0,0.0,0.0,0.0,0.0,0.0,0.0,0.0,0.0,0.0,0.0,0.0,0.0,0.0,0.0,0.0,0.0,0.7141,0.6514,0.0,0.8446,0.8069,0.8129,0.9149,0.8991,0.8635,0.8132,0.8937,0.9286,0.8999,0.953,0.9933,1.0193,1.0193,1.0193,1.0193,1.0285,1.0334,1.0334,1.0432,1.0475,1.0475,1.0475,1.0147,0.9661,1.0046,0.9524,0.8569,0.9169,0.9934,1.0599,0.9726,1.0112,1.0906,0.0,0.0,0.0,0.0,0.0,0.0,0.0,0.0,0.0,1.558,1.5172,1.4737,1.4342,1.4157,1.4011,1.3909,1.4509,1.5145,1.5739,1.6982,1.8104,1.8997,1.9442,1.9094,1.7867,1.7656,1.7381,1.7008,1.7032,1.7112,1.7257,1.7128,1.7287,1.7676,1.7676,1.7877,1.8154,1.7389,1.717,1.7354,1.7521,1.7906,1.838,0.0,0.0,0.0,0.0,0.0,0.0,0.0,0.0,0.0,0.0,0.0,0.0,0.0,0.0,0.0,0.0,0.0,0.0,0.0,0.0,0.0,0.0,0.0,0.0,0.0,0.0,0.0,0.0,0.0,0.0,0.0,0.0,0.0,0.0,0.8229,0.7285,0.8173,0.7323,0.7273,0.8819,0.8179,0.7995,0.8801,0.869,0.857,0.857,0.949,1.0089,1.0268,1.0835,1.1212,1.1406,1.1406,1.1406,1.1406,1.1513,1.1577,1.1577,1.1659,1.1706,1.1706,1.1706,1.1383,1.0882,1.1471,1.1017,0.9953,0.9752,1.0037,1.0464,0.9898,1.0406,1.132,0.0,0.0,0.0,0.0,0.0,0.0,0.0,1.5799,1.5631,1.5157,1.4752,1.435,1.3942,1.3505,1.3425,1.3885,1.4302,1.5266,1.7007,1.7481,1.8483,2.0201,1.9825,1.8858,1.733,1.7817,1.7548,1.6453,1.7582,1.7833,1.7267,1.7911,1.8232,1.8217,1.8217,1.823,1.8254,1.8254,1.794,1.7482,1.8,1.7847,1.7377,0.0,0.0,0.0,0.0,0.0,0.0,0.0,0.0,0.0,0.0,0.0,0.0,0.0,0.0,0.0,0.0,0.0,0.0,0.0,0.0,0.0,0.0,0.0,0.0,0.0,0.0,0.0,0.0,0.0,0.0,0.0,0.0,0.0,1.1002,0.9732,0.9201,1.0379,0.9032,0.8339,0.9231,0.8544,0.8074,0.8112,0.9135,0.9745,0.9745,1.0795,1.1395,1.1426,1.1426,1.1415,1.1446,1.1446,1.1452,1.1466,1.1788,1.1946,1.1953,1.2204,1.2331,1.2331,1.2331,1.2331,1.2331,1.2331,1.2331,1.2271,1.1666,1.1432,1.1432,1.1432,1.1432,1.1432,0.0,0.0,0.0,0.0,0.0,0.0,0.0,1.5799,1.5631,1.5157,1.4752,1.435,1.3942,1.4043,1.4189,1.4318,1.5013,1.598,1.7242,1.7884,1.868,1.9747,1.9297,1.8484,1.7333,1.7432,1.7551,1.7629,1.8429,1.869,1.8441,1.8724,1.8825,1.8782,1.8782,1.8995,1.9359,1.9359,1.9045,1.8543,1.8305,1.8101,1.7972,0.0,0.0,0.0,0.0,0.0,0.0,0.0,0.0,0.0,0.0,0.0,0.0,0.0,0.0,0.0,0.0,0.0,0.0,0.0,0.0,0.0,0.0,0.0,0.0,0.0,0.0,0.0,0.0,0.0,0.0,0.0,1.3506,1.2395,1.0117,0.8891,0.834,0.8683,0.8285,0.8419,0.9493,0.9379,0.9581,1.0394,1.0759,1.0929,1.0929,1.1229,1.1506,1.1754,1.1768,1.1969,1.2415,1.2422,1.2517,1.2706,1.2806,1.2839,1.2846,1.2926,1.2959,1.2959,1.2959,1.2959,1.2959,1.2959,1.2959,1.288,1.2298,1.2039,1.2039,1.2039,1.2039,1.2013,0.0,0.0,0.0,0.0,0.0,0.0,0.0,1.5799,1.5573,1.4922,1.4651,1.427,1.3673,1.4,1.4318,1.4493,1.5119,1.6077,1.744,1.8412,1.9042,1.9308,1.9004,1.8464,1.7646,1.7867,1.8125,1.8438,1.933,1.9731,1.9663,1.9759,1.9785,1.9746,1.9459,1.9509,1.9798,1.9798,1.961,1.9309,1.9007,1.8607,1.8175,1.7954,1.7977,1.8109,1.7862,1.7767,1.7784,1.7939,0.0,0.0,0.0,0.0,0.0,0.0,0.0,0.0,0.0,0.0,0.0,0.0,0.0,0.0,0.0,0.0,0.0,0.0,0.0,0.0,0.0,0.0,0.0,0.0,1.4085,1.3038,1.1126,1.0416,1.0164,1.0328,1.0,1.0243,1.151,1.1276,1.1491,1.2542,1.2348,1.221,1.221,1.205,1.2285,1.2929,1.2617,1.283,1.3626,1.3645,1.348,1.3206,1.4116,1.4064,1.3226,1.3666,1.3627,1.3233,1.3686,1.3627,1.3226,1.3686,1.3607,1.3173,0.0,0.0,0.0,0.0,1.2685,1.2659,0.0,0.0,0.0,0.0,0.0,0.0,0.0,1.5799,1.5485,1.4611,1.4501,1.4165,1.331,1.3665,1.4108,1.447,1.4914,1.5893,1.756,1.8914,1.9429,1.889,1.8887,1.865,1.8116,1.8631,1.8902,1.8902,2.0178,2.0779,2.0696,2.0843,2.0867,2.0758,2.0105,1.9798,1.9798,1.9798,1.9798,1.9798,1.9798,1.9196,1.823,1.7763,1.7803,1.8048,1.7565,1.7314,1.7243,1.7594,0.0,0.0,0.0,0.0,0.0,0.0,0.0,0.0,0.0,0.0,0.0,0.0,0.0,0.0,0.0,0.0,0.0,0.0,0.0,0.0,0.0,0.0,0.0,0.0,1.4204,1.3326,1.3234,1.3337,1.3417,1.3441,1.2852,1.2894,1.4073,1.3524,1.3422,1.4189,1.3713,1.3354,1.3248,1.2989,0.0,0.0,0.0,1.3739,1.4854,1.4718,1.4266,1.3499,1.5289,1.5211,1.3499,1.4334,1.4263,1.3539,1.4491,1.4432,1.3731,1.4687,1.4511,1.3631,1.3312,1.3193,1.3193,1.3193,1.3193,1.3193,0.0,0.0,0.0,0.0,0.0,0.0,0.0,1.5799,1.5485,1.4611,1.4501,1.4165,1.331,1.3909,1.4422,1.4493,1.521,1.6164,1.7381,1.8709,1.9218,1.868,1.8817,1.865,1.8116,1.8631,1.8902,1.8902,2.0655,2.1232,2.071,2.1259,2.1269,2.0758,2.0105,1.9798,1.9798,1.9798,1.9798,1.9798,1.9798,1.9409,1.8832,1.8719,1.8224,1.7593,1.7913,1.7369,1.6567,1.7074,1.67,1.6067,1.6133,1.6474,0.0,0.0,0.0,0.0,0.0,0.0,0.0,0.0,0.0,0.0,0.0,0.0,0.0,0.0,0.0,0.0,0.0,0.0,0.0,1.5433,1.5407,1.5267,1.4614,1.5371,1.5111,1.2756,1.3307,1.3792,1.3521,1.4008,1.4205,1.3848,1.3956,1.3707,1.2948,1.3035,1.3609,1.4685,1.373,1.3837,1.52,1.4281,1.4307,1.521,1.4758,0.0,1.5189,1.4538,1.4593,1.523,1.5427,1.5896,1.6532,1.6726,1.6686,1.6295,1.4072,1.3193,1.3193,1.3193,1.3193,1.3193,0.0,0.0,0.0,0.0,0.0,0.0,0.0,1.5799,1.5566,1.4884,1.4799,1.4564,1.3926,1.4422,1.4799,1.4799,1.5689,1.6473,1.7006,1.8302,1.8926,1.8666,1.9063,1.9169,1.8912,1.916,1.929,1.929,2.0915,2.1525,2.1208,2.1544,2.1544,2.1222,2.0232,1.9798,1.9798,1.9798,1.9798,1.9798,1.9798,1.9635,1.9371,1.9096,1.8669,1.8204,1.8204,1.7792,1.7277,1.7445,1.7009,1.6386,1.6272,1.6429,1.6787,0.0,0.0,0.0,0.0,0.0,0.0,0.0,0.0,0.0,0.0,0.0,0.0,0.0,0.0,1.7495,1.7118,0.0,1.6595,1.5831,1.6099,1.6257,1.5858,1.6513,1.6487,1.4975,1.4984,1.5253,1.5627,1.5835,1.6008,1.6137,1.6087,1.5849,1.538,1.5153,1.5545,1.6613,1.5743,1.5862,1.7141,1.6589,1.6374,1.6498,1.709,1.7041,1.6498,1.6547,1.6527,1.6539,1.7102,1.7021,1.6498,1.6498,1.6825,1.7159,1.5796,1.4924,1.4393,1.3845,1.3647,1.3647,0.0,0.0,0.0,0.0,0.0,0.0,0.0,0.0,1.5631,1.5157,1.5104,1.4945,1.4541,1.486,1.5142,1.5225,1.5948,1.6434,1.6517,1.7566,1.8289,1.8499,1.9151,1.9573,1.9708,1.9708,1.9708,1.9708,2.0902,2.1575,2.1705,2.158,2.16,2.1637,2.037,1.9798,1.9798,1.9798,1.9798,1.9798,1.9798,1.9798,1.9761,1.9321,1.9096,1.8958,1.8631,1.8358,1.8128,1.807,1.7566,1.6893,1.6606,1.6507,1.6638,1.7385,1.8018,0.0,0.0,0.0,0.0,0.0,0.0,0.0,0.0,1.7731,1.8058,1.7319,1.7177,1.7014,1.6522,1.6727,1.6823,1.6304,1.6572,1.684,1.684,1.7236,1.7556,1.7617,1.6927,1.6802,1.776,1.7704,1.7848,1.8412,1.8156,1.7893,1.7715,1.7235,1.7478,1.8556,1.7746,1.7848,1.8986,1.8778,1.831,1.7646,1.9205,1.9135,1.7637,1.835,1.829,1.7678,1.8818,1.8301,1.6646,1.6646,1.7163,1.792,1.7698,1.709,1.6211,1.5123,1.472,1.472,0.0,0.0,0.0,0.0,0.0,0.0,0.0,0.0,0.0,1.5157,1.5104,1.4945,1.4541,1.486,1.5262,1.5682,1.5447,1.5454,1.5867,1.6211,1.6816,1.7772,1.8454,1.9091,1.9693,1.9708,1.9708,1.9708,2.0453,2.1126,2.169,2.1144,2.119,2.1637,2.037,1.9798,1.9798,1.9798,1.9798,1.9798,1.9798,1.9798,1.9798,1.9723,1.9422,1.9058,1.9459,1.8892,1.7994,1.8466,1.8126,1.739,1.6701,1.6507,1.6638,1.7385,1.766,1.8029,1.9423,1.9254,1.8528,1.7784,1.7649,1.7371,0.0,1.6226,1.6539,1.5806,1.5647,1.5751,1.6083,1.6192,1.6314,1.6592,1.7021,1.7331,1.7331,1.7676,1.8059,1.8422,1.8364,1.8022,1.7368,1.837,1.8762,1.8036,1.8158,1.7896,1.7066,1.717,1.778,1.8914,1.7862,1.7848,1.8986,1.8009,1.7928,1.8798,1.802,1.806,1.8778,1.7888,1.796,1.8877,1.9962,2.0274,2.006,2.006,2.0118,2.0138,1.9175,1.8738,1.849,1.7354,1.6935,1.6935,0.0,0.0,0.0,0.0,0.0,0.0,0.0,0.0,0.0,0.0,1.5507,1.5441,1.5262,1.5572,1.5882,1.6066,1.5658,1.5382,1.5396,1.563,1.6055,1.6743,1.7783,1.859,1.9106,1.9504,1.9557,1.9225,1.9913,2.0215,2.0179,1.9577,1.9804,2.0662,1.9371,1.8947,1.9189,1.9618,1.9553,1.9165,1.9282,1.9321,1.9296,1.8995,1.892,1.912,2.0053,1.9788,0.0,1.9724,1.9178,1.818,1.7879,1.7495,1.7371,1.8481,1.8826,1.8865,1.905,1.8599,1.7882,1.7135,1.695,1.6908,1.6715,1.6922,1.7152,1.7202,1.7198,1.7191,1.721,1.74,1.7457,1.7161,1.7471,1.7744,1.7744,1.8098,1.8403,1.8578,1.9046,1.9113,1.8482,1.9174,1.95,1.9098,1.9421,1.9474,1.9067,1.9153,1.9432,1.9923,1.9471,1.9452,1.9923,1.9452,1.9452,1.9923,1.9452,1.9471,1.9923,1.9432,1.9481,1.9923,1.9746,2.0021,2.0537,1.9923,2.004,2.0566,2.0108,1.9942,1.9717,1.794,1.7302,1.7302,0.0,0.0,0.0,0.0,0.0,0.0,0.0,0.0,0.0,0.0,0.0,1.6088,1.6088,1.6205,1.6342,1.6421,1.5926,1.5498,1.5249,1.5231,1.5439,1.5911,1.6974,1.7864,1.8524,1.9122,1.9256,1.8902,1.9392,1.9433,1.9086,1.8488,1.8669,1.9462,1.8363,1.7954,1.8103,1.8647,1.8648,1.8328,1.8473,1.8622,1.8744,1.8355,1.8651,1.939,2.028,2.0367,2.0182,2.0832,2.037,1.9492,1.9297,1.8855,1.8631,1.9647,1.9965,1.9889,1.9352,1.8576,1.7784,1.7232,1.695,1.6994,1.7687,1.7846,1.8019,1.8596,1.8712,1.8669,1.8551,1.8767,1.8807,1.8352,1.8534,1.862,1.8395,1.8705,1.9014,1.9196,1.9856,2.0346,2.0457,2.024,2.0202,2.0465,2.0544,2.0712,2.0972,2.0731,2.0605,2.0605,2.0605,2.0605,2.0605,2.0605,2.0605,2.0605,2.0605,2.0605,2.0605,2.0605,2.0605,2.0566,1.9785,1.9883,2.0547,1.9766,1.9903,2.0605,2.0605,2.0605,2.0401,1.8809,1.8201,1.8201,0.0,0.0,0.0,0.0,0.0,0.0,0.0,0.0,0.0,0.0,0.0,0.0,0.0,1.6481,1.6421,1.6757,1.6056,1.5598,1.5584,1.4924,1.4831,1.5488,1.5929,1.6779,1.8088,1.8513,1.8794,1.8902,1.8917,1.8992,1.9086,1.8478,1.8213,1.8232,1.7593,1.7008,1.6471,1.6483,1.6822,1.7338,1.7351,1.7702,1.8217,1.8216,1.8936,1.9973,1.9998,2.0345,2.0857,2.146,2.1637,2.1493,2.0772,2.0525,2.0512,2.0562,2.0666,2.0758,2.0746,1.971,1.8661,1.8648,1.811,1.774,1.8331,1.8472,1.8633,1.9162,1.929,1.9392,1.9774,1.9844,2.0008,2.0426,2.0515,2.022,1.9381,1.9603,2.008,2.0663,2.109,2.1891,2.3242,2.1687,2.0952,2.1866,2.1106,2.0992,2.1905,2.1097,2.0605,2.0605,2.0605,2.0605,2.0605,2.0605,2.0605,2.0605,2.0605,2.0605,2.0605,2.0605,2.0605,2.0605,2.0566,2.0566,2.0605,2.0566,2.0566,2.0605,2.0605,2.0605,2.0586,2.0527,2.0508,2.0508,0.0,0.0,0.0,0.0,0.0,0.0,0.0,0.0,0.0,0.0,0.0,0.0,0.0,0.0,0.0,0.0,1.6642,1.6128,1.5634,1.4875,1.4551,1.4823,1.51,1.5592,1.636,1.729,1.7623,1.732,1.7653,1.7682,1.7339,1.6351,1.6283,1.6962,1.5965,1.5542,1.5645,1.6175,1.6202,1.5919,1.6052,1.624,1.6444,1.6848,1.7485,1.8356,0.0,2.0939,2.1498,2.2149,2.2077,2.1661,2.1406,2.1334,2.1512,2.2407,2.2062,2.1385,2.134,2.0342,1.9291,1.9291,1.9008,1.9051,2.0223,2.0103,2.0045,2.1076,2.1671,2.2009,2.1955,2.1962,2.1813,2.1397,2.0912,2.0494,2.0204,2.0818,2.1377,2.157,2.2294,2.297,2.3448,2.2917,2.2366,2.2027,2.2339,2.2376,2.2008,2.1697,2.1536,2.1536,2.0915,2.0605,2.0605,2.0605,2.0605,2.0605,2.0605,2.0605,2.0605,2.0605,2.0605,2.0605,2.0605,2.0605,2.0605,2.0605,2.0605,2.0605,2.0605,2.0605,2.0605,2.0605,2.0605,2.0605,0.0,0.0,0.0,0.0,0.0,0.0,0.0,0.0,0.0,0.0,0.0,0.0,0.0,0.0,0.0,0.0,0.0,1.6645,1.6024,1.5257,1.4777,1.4679,1.4828,1.5161,1.5698,1.6624,1.7056,1.6996,1.6943,1.6873,1.6763,1.5577,1.5303,1.5753,1.498,1.4537,1.4408,1.4932,1.5108,1.5029,1.516,1.5591,1.6199,1.6572,1.732,0.0,2.0238,2.1395,2.2161,2.2799,2.2733,2.2375,2.2375,2.2375,2.2506,2.3146,2.2564,2.169,2.1617,2.0805,2.0107,2.0554,2.0573,2.0852,2.2241,2.221,2.2168,2.3197,2.3783,2.4059,2.389,2.3647,2.3369,2.3069,2.2399,2.1802,2.1495,2.2276,2.2783,2.2559,2.3418,2.4181,2.4552,2.4559,2.4163,2.3147,2.3331,2.3368,2.3091,2.2739,2.2366,2.2008,2.1413,2.0934,2.0605,2.0605,2.0605,2.0605,2.0605,2.0605,2.0605,2.0605,2.0605,2.0605,2.0605,2.0605,2.0605,2.0605,2.0605,2.0605,2.0605,2.0605,2.0605,2.0605,2.0605,2.0605,0.0,0.0,0.0,0.0,0.0,0.0,0.0,0.0,0.0,0.0,0.0,0.0,0.0,0.0,0.0,0.0,0.0,0.0,1.6754,1.603,1.5454,1.5042,1.5053,1.5362,1.6005,1.6426,1.6996,1.7775,1.6704,1.6573,1.7272,1.615,1.533,1.4789,1.4755,1.4084,1.2992,1.2992,1.367,1.4744,1.4744,1.5751,1.7258,1.7309,1.8354,1.9891,2.0631,2.1651,2.2748,2.3396,2.3573,2.3541,2.3519,2.3508,2.3399,2.2862,2.2198,2.1657,2.17,2.1262,2.1111,2.2378,2.2724,2.3058,2.4269,2.4553,2.4706,2.5273,2.5439,2.5481,2.5453,2.488,2.461,2.5287,2.4752,2.3961,2.3117,2.3807,2.4184,2.3622,2.4425,2.5417,2.6401,2.6499,2.6094,2.5158,2.4181,2.4054,2.4951,2.409,2.3147,2.2178,2.2103,2.165,2.075,2.0692,2.0673,2.0673,2.0625,2.0605,2.0605,2.0605,2.0605,2.0605,2.0605,2.0605,2.0605,2.0605,2.0605,2.0605,2.0605,2.0605,2.0605,2.0605,2.0605,2.0605,0.0,0.0,0.0,0.0,0.0,0.0,0.0,0.0,0.0,0.0,0.0,0.0,0.0,0.0,0.0,0.0,0.0,0.0,1.7166,1.6466,1.5874,1.5461,1.494,1.4728,1.4898,1.5408,1.5761,1.5958,1.6068,1.6479,1.7132,1.6385,1.6025,1.5959,1.5495,1.4903,1.4236,1.4236,1.4653,1.5306,1.5306,1.5799,1.665,1.7501,1.8104,1.8672,2.0211,2.1272,2.2124,2.3231,2.3312,2.2838,2.234,2.219,2.224,2.259,2.1903,2.1328,2.2784,2.2642,2.2418,2.3702,2.434,2.4765,2.5094,2.5177,2.5218,2.537,2.6184,2.675,2.6295,2.5983,2.5698,2.5439,2.428,2.3322,2.31,2.3669,2.4191,2.4438,2.5054,2.5721,2.6432,2.6499,2.6383,2.6129,2.5891,2.5529,2.5034,2.4761,2.4498,2.4246,2.3514,2.2999,2.2768,2.2019,2.164,2.1621,2.0934,2.0605,2.0605,2.0605,2.0605,2.0605,2.0605,2.0605,2.0605,2.0605,2.0605,2.0605,2.0605,2.0605,2.0605,2.0605,2.0605,2.0605,0.0,0.0,0.0,0.0,0.0,0.0,0.0,0.0,0.0,0.0,0.0,0.0,0.0,0.0,0.0,0.0,0.0,0.0,0.0,1.6553,1.6142,1.592,1.5374,1.5074,1.5074,1.5371,1.5654,1.5917,1.5706,1.6004,1.6734,1.6374,1.6153,1.6049,1.6186,1.5929,1.5406,1.5406,1.5735,0.0,0.0,1.6736,1.7511,1.815,1.8536,1.8912,2.0231,2.1129,2.18,2.2523,2.2538,2.2193,2.1828,2.1899,2.2159,2.2247,2.1745,2.1552,2.3204,2.3133,2.3058,2.4919,2.5624,2.5973,2.6295,2.6571,2.6766,2.6766,2.7575,2.8079,2.7487,2.6799,2.6311,2.6361,2.4811,2.3738,2.4048,2.4318,2.4555,2.4761,2.5272,2.5841,2.6436,2.6499,2.6499,2.6499,2.6499,2.625,2.5681,2.5664,2.5471,2.5004,2.4445,2.3945,2.3496,2.2943,2.2664,2.2646,2.1688,2.1202,2.1212,2.0789,2.0605,2.0605,2.0605,2.0605,2.0605,2.0605,2.0605,2.0605,2.0605,2.0703,2.0859,2.0859,2.0996,2.1162,0.0,0.0,0.0,0.0,0.0,0.0,0.0,0.0,0.0,0.0,0.0,0.0,0.0,0.0,0.0,0.0,0.0,0.0,0.0,0.0,0.0,1.6308,1.5976,1.5799,1.5799,1.5799,1.6061,1.6577,1.5598,1.5529,1.6344,1.6289,1.6146,1.595,1.688,1.6971,1.6435,1.6509,1.6837,1.7322,1.7393,1.806,1.9006,0.0,0.0,1.9789,2.0458,2.1072,2.1584,2.1671,2.1653,2.1568,2.1484,2.1913,2.2337,2.1746,2.1651,2.1983,2.326,2.318,2.3335,2.5779,2.6383,2.6593,2.7395,2.799,2.8426,2.8575,2.91,2.9339,2.8721,2.7492,2.6793,2.7452,2.5809,2.4667,2.5315,2.524,2.5086,2.496,2.536,2.587,2.6453,2.6499,2.6499,2.6499,2.6499,2.6499,2.6499,2.6499,2.6094,2.5229,2.5211,2.4779,2.3909,2.3781,2.3708,2.369,2.2683,2.2121,2.1971,2.1155,2.0789,2.077,2.0703,2.0839,2.1062,2.0869,2.0947,2.121,2.1035,2.1204,2.151,2.151,2.1675,2.1905,0.0,0.0,0.0,0.0,0.0,0.0,0.0,0.0,0.0,0.0,1.5856,1.599,0.0,0.0,0.0,0.0,0.0,0.0,0.0,0.0,0.0,0.0,1.5976,1.5799,1.5799,1.5799,1.5851,1.5964,1.5758,1.5993,1.6626,1.6619,1.6934,1.751,1.7706,1.7541,1.7159,1.7605,1.786,1.7979,1.8434,1.8982,1.9566,0.0,0.0,0.0,2.0458,2.0774,2.0965,2.1512,2.1359,2.0856,2.0295,2.0584,2.1115,2.0979,2.1306,2.1981,2.3326,2.36,2.3868,2.5377,2.5753,2.6078,2.7252,2.7609,2.7972,2.9035,2.9717,2.9957,2.9361,2.8533,2.7841,2.75,2.6185,2.5245,2.5384,2.5369,2.5449,2.5693,2.5793,2.602,2.6454,2.6499,2.6499,2.6499,2.6499,2.6499,2.6499,2.6499,2.6418,2.6245,2.6245,2.6164,2.5978,2.5164,2.4743,2.4725,2.3727,2.2813,2.1989,2.183,2.1754,2.1718,2.1292,2.2081,2.3558,2.2221,2.2744,2.4312,2.336,2.3035,2.3108,2.3108,2.2585,2.1905,0.0,0.0,0.0,0.0,0.0,0.0,0.0,1.5799,1.5799,1.5799,1.5799,1.587,1.6025,1.6046,1.6101,0.0,0.0,0.0,0.0,0.0,0.0,0.0,0.0,0.0,1.5799,1.5799,1.5799,1.5799,0.0,1.5824,1.588,1.644,1.6788,1.6998,1.7619,1.7951,1.805,1.8389,1.8679,1.8959,1.9207,1.947,0.0,0.0,0.0,0.0,2.0458,2.0882,2.1183,2.1571,2.1693,2.1525,2.0608,2.077,2.1269,2.1269,2.1724,2.2511,2.3812,2.3941,2.4016,2.5283,2.5603,2.594,2.7211,2.7749,2.8329,2.9615,3.0362,3.057,2.9978,2.9283,2.8692,2.847,2.7,2.5995,2.6396,2.5836,2.5684,2.6475,2.6593,2.6898,2.7716,2.7384,2.7112,2.7112,2.6731,2.6499,2.6499,2.6499,2.6499,2.6499,2.6499,2.6499,2.6499,2.6025,2.5786,2.5769,2.4761,2.4018,2.3533,2.3017,2.2925,2.3175,2.2926,2.3548,2.4707,2.3946,2.4241,2.5152,2.4594,2.4499,2.4698,2.4698,2.4528,2.4292,0.0,0.0,0.0,0.0,0.0,0.0,0.0,1.5799,1.5799,1.5799,1.5799,1.5799,1.5799,1.5799,1.5762,0.0,0.0,0.0,0.0,0.0,0.0,0.0,0.0,0.0,0.0,0.0,0.0,1.5799,1.5799,0.0,0.0,0.0,0.0,0.0,1.7218,1.7975,1.8536,1.8755,1.9126,0.0,0.0,1.9708,0.0,0.0,0.0,0.0,0.0,2.1008,2.1708,2.1814,2.2293,2.2716,2.1806,2.1708,2.1911,2.1911,2.238,2.3104,2.4108,2.4035,2.3908,2.4916,2.5169,2.5538,2.6936,2.7602,2.8344,2.9735,3.0516,3.0809,3.0344,2.9804,2.9462,2.958,2.8114,2.7123,2.756,2.6724,2.6354,2.7124,2.736,2.7787,2.8699,2.8295,2.7986,2.7986,2.7384,2.6871,2.6521,2.6499,2.6499,2.6499,2.6675,2.6675,2.6499,2.6675,2.6675,2.6499,2.5699,2.5211,2.4981,2.4296,2.4218,2.4611,2.463,2.5138,2.5962,2.5618,2.5761,2.6163,2.5918,2.6009,2.6291,2.6291,2.6379,2.6504,0.0,0.0,0.0,0.0,0.0,0.0,0.0,1.5799,1.5799,1.5799,1.5799,1.5799,1.5799,1.5799,1.5631,0.0,0.0,0.0,0.0,0.0,0.0,0.0,0.0,0.0,0.0,0.0,0.0,1.5799,1.5799,0.0,0.0,0.0,0.0,0.0,0.0,1.7233,1.801,1.8513,0.0,0.0,0.0,0.0,0.0,0.0,0.0,0.0,0.0,2.0877,2.2322,2.2327,2.309,2.402,2.3917,2.3294,2.2615,2.2615,2.3043,2.3545,2.3659,2.3652,2.3634,2.3748,2.3789,2.4254,2.6007,2.644,2.699,2.8761,2.9691,3.0181,3.0143,3.0168,3.0203,3.0219,2.9613,2.8942,2.8472,2.8292,2.7981,2.7361,2.7825,2.8164,2.8103,2.8575,2.8876,2.8876,2.8812,2.8117,2.6572,2.6499,2.6499,2.6499,2.7213,2.7246,2.6516,2.7229,2.7229,2.6499,2.6401,2.5873,2.501,2.5414,2.5621,2.5661,2.5664,2.6757,2.846,2.6987,2.7557,2.9268,2.8235,2.7857,2.7893,2.7893,2.7305,2.6504,0.0,0.0,0.0,0.0,0.0,0.0,1.5799,1.5799,1.5799,1.5799,1.5799,1.5682,1.5411,1.5381,1.5418,1.5507,0.0,0.0,0.0,0.0,0.0,0.0,0.0,0.0,0.0,0.0,1.5799,1.5799,1.5799,0.0,0.0,0.0,0.0,0.0,0.0,1.6837,1.78,1.8095,0.0,0.0,0.0,0.0,0.0,0.0,0.0,0.0,0.0,0.0,2.2285,2.2693,2.3595,2.4638,2.5046,2.4725,2.4065,2.339,2.361,2.4012,2.3692,2.3595,2.3681,2.4001,2.4085,2.4565,2.637,2.6781,2.7205,2.8687,2.9396,2.981,3.0061,3.0308,3.0557,3.0804,3.0341,2.9859,2.9618,2.8966,2.8541,2.8602,2.89,2.9194,2.9479,2.9671,2.9348,2.8298,2.823,2.792,2.7263,2.7229,2.7229,2.7229,2.7534,2.7802,2.8002,2.8314,2.8314,2.8002,2.8002,2.7511,2.6633,2.6849,2.7032,2.7176,2.7183,2.8039,2.9389,2.8745,2.9,2.9753,2.9294,2.9126,2.9126,2.9126,2.885,2.8482,0.0,0.0,0.0,0.0,0.0,1.5595,1.5772,1.5581,1.5455,1.558,1.5485,1.5285,1.4953,1.4914,1.5104,1.5558,1.5595,0.0,0.0,0.0,0.0,0.0,0.0,0.0,0.0,0.0,1.5734,1.5595,1.5734,1.5799,0.0,0.0,1.5799,1.5799,0.0,0.0,0.0,0.0,0.0,0.0,0.0,0.0,0.0,0.0,0.0,0.0,0.0,0.0,0.0,0.0,0.0,2.5161,2.5843,2.5878,2.5445,2.4473,2.4271,2.4318,2.3938,2.3709,2.3719,2.4266,2.44,2.4818,2.6407,2.6848,2.7217,2.8286,2.8946,2.9519,3.003,3.0385,3.0773,3.1301,3.0915,3.0497,3.0341,2.9563,2.9069,2.9202,2.96,2.9959,3.022,3.0498,3.0042,2.8572,2.8684,2.8604,2.8117,2.833,2.8347,2.8084,2.833,2.8636,2.9002,2.9254,2.9254,2.9002,2.9002,2.8684,2.8084,2.8241,2.8528,2.8907,2.9075,2.9556,3.0216,3.0216,3.0216,3.0196,2.9914,2.9972,3.0177,2.9895,2.9792,2.9792,0.0,0.0,0.0,0.0,0.0,0.0,1.5718,1.507,1.4658,1.5066,1.476,1.4509,1.4509,1.4509,1.4666,1.5074,1.5112,0.0,0.0,0.0,0.0,0.0,0.0,0.0,0.0,0.0,1.5573,1.5112,1.5573,1.5799,1.5799,1.5799,1.5799,1.5799,0.0,0.0,0.0,0.0,0.0,0.0,0.0,0.0,0.0,0.0,0.0,0.0,0.0,0.0,0.0,0.0,0.0,0.0,0.0,2.6683,2.6556,2.5946,2.5125,2.44,2.4389,2.4001,2.3719,2.4266,2.44,2.4677,2.5769,2.6274,2.6663,2.7217,2.8227,2.9241,3.0051,3.0415,3.0862,3.165,3.1441,3.0985,3.0383,3.0282,2.9838,2.8642,2.9682,3.0262,2.966,3.0747,3.1161,3.0329,3.1014,3.0748,2.9081,2.9812,2.9889,2.9018,2.9827,2.9858,2.9018,2.9858,2.9858,2.9002,2.9002,2.9002,2.9,2.9543,3.0135,3.0806,3.133,3.1423,3.118,3.118,3.118,3.1087,3.0158,3.0362,3.1068,3.0139,2.9792,2.9792,0.0,0.0,0.0,0.0,0.0,0.0,0.0,1.4803,1.4549,1.4666,1.458,1.4501,1.4501,1.4246,1.4133,1.427,1.4775,0.0,0.0,0.0,0.0,0.0,0.0,0.0,0.0,0.0,1.5734,1.558,1.5734,1.5799,1.5799,1.5799,1.5799,1.5829,1.6226,1.6884,0.0,0.0,0.0,0.0,0.0,0.0,2.0599,0.0,0.0,0.0,0.0,0.0,0.0,0.0,0.0,0.0,0.0,0.0,0.0,2.7499,2.6588,2.5461,2.538,2.5032,2.4816,2.5354,2.5486,2.5679,2.6332,2.6765,2.7095,2.7263,2.7992,2.8663,2.8909,2.967,3.0331,3.0605,3.0958,3.0995,3.0383,2.9935,2.9395,2.8594,2.9322,3.0154,3.0821,3.1256,3.1175,3.0359,3.0539,3.045,2.9919,3.0148,3.0178,2.9904,3.0163,3.0419,3.0703,3.0984,3.0984,3.0703,3.0703,3.0419,2.9889,3.0057,3.0136,3.0138,3.03,3.0791,3.1458,3.1458,3.1375,3.118,3.0871,3.0558,3.0216,2.9914,2.9792,2.9792,0.0,0.0,0.0,0.0,0.0,0.0,0.0,1.4533,1.427,1.427,1.4117,1.4016,1.4016,1.3785,1.3702,1.3885,1.4358,0.0,0.0,0.0,0.0,0.0,0.0,0.0,1.5544,1.5719,1.5719,1.5544,1.5719,1.5799,1.5799,1.5799,1.5926,1.6159,1.6532,1.7219,0.0,0.0,0.0,0.0,0.0,0.0,2.1023,0.0,0.0,0.0,0.0,0.0,0.0,0.0,0.0,0.0,0.0,0.0,0.0,0.0,2.76,2.6623,2.6182,2.5749,2.5522,2.589,2.6105,2.6317,2.6815,2.7348,2.7718,2.7718,2.8192,2.8808,2.9422,2.9839,3.0309,3.0913,3.1102,3.0995,3.0383,2.9984,2.9609,2.9294,2.9462,3.0103,3.1376,3.1511,3.1278,3.0792,3.0762,3.0762,3.0762,3.0762,3.0762,3.0762,3.0762,3.0999,3.1511,3.1511,3.1511,3.1511,3.1511,3.1234,3.0762,3.0762,3.0782,3.0813,3.0813,3.1189,0.0,3.2072,3.1843,3.1338,3.1235,3.0852,3.0279,2.9934,2.9792,2.9792,0.0,0.0,0.0,0.0,0.0,0.0,0.0,1.4246,1.3802,1.3802,1.3387,1.3103,1.3103,1.3129,1.3331,1.3769,0.0,0.0,0.0,0.0,0.0,0.0,0.0,0.0,1.5149,1.558,1.5595,1.5149,1.5595,1.5799,1.5799,1.5836,1.6159,1.6696,1.6808,1.7572,1.8884,1.988,2.034,2.0441,2.0878,2.1055,0.0,0.0,0.0,0.0,0.0,0.0,0.0,0.0,0.0,0.0,0.0,0.0,0.0,0.0,0.0,0.0,0.0,2.6294,2.5981,2.6097,2.637,2.672,2.723,2.7897,0.0,2.8407,2.8725,2.9476,3.0992,3.0635,3.06,3.2115,3.1707,3.0975,3.0341,3.0166,3.0179,3.0411,2.9951,3.0103,3.1376,3.1511,3.1511,3.1511,3.1511,3.1511,3.1511,3.1511,3.1511,3.1511,3.1511,3.1511,3.1511,3.1511,3.1511,3.1511,3.1511,3.1511,3.1511,3.1511,3.1839,3.2422,3.2422,3.2312,3.2174,3.2794,3.2491,3.1609,3.1333,3.1188,3.1016,3.0126,2.9792,2.9792,0.0,0.0,0.0,0.0,0.0,0.0,0.0,0.0,0.0,0.0,1.2425,1.2129,1.2129,1.2455,1.2712,0.0,0.0,0.0,0.0,0.0,0.0,0.0,0.0,0.0,1.5631,1.5741,1.5755,1.5639,1.5755,1.5799,1.5814,1.6271,1.6562,1.6741,1.7765,1.8859,1.9945,2.0193,2.0675,2.1298,2.1414,2.1666,0.0,0.0,0.0,0.0,2.2268,2.2433,0.0,0.0,0.0,0.0,0.0,0.0,0.0,0.0,2.8803,2.862,2.8103,0.0,2.7407,2.746,2.751,2.7599,0.0,2.8084,2.8407,2.8407,2.8725,2.921,2.991,3.0073,3.0311,3.101,3.1168,3.0828,2.9761,2.8822,2.8629,2.9694,2.9687,3.0103,3.1376,3.1511,3.1511,3.1511,3.1511,3.1511,3.1511,3.1511,3.1511,3.1511,3.1511,3.1511,3.1511,3.1511,3.1511,3.1511,3.1511,3.1511,3.1511,3.1511,3.1585,3.1735,3.1735,3.199,3.242,3.2568,3.2381,3.1957,3.163,3.1066,3.0385,2.9967,2.9792,2.9792,0.0,0.0,0.0,0.0,0.0,0.0,0.0,0.0,0.0,0.0,0.0,0.0,0.0,0.0,0.0,0.0,0.0,0.0,0.0,0.0,0.0,0.0,0.0,1.4752,1.5187,1.5381,1.5477,1.5477,1.5682,1.5934,1.6211,1.6547,1.704,1.7669,1.8884,1.9761,2.0331,2.0724,2.1173,2.1628,2.1831,0.0,0.0,0.0,0.0,0.0,2.2296,2.2385,0.0,2.4514,2.5304,2.5888,0.0,0.0,0.0,0.0,2.8999,2.8946,2.8737,2.8412,2.8088,2.794,2.8031,2.8129,2.8129,2.8419,2.8676,2.8676,2.9144,2.9674,3.008,3.0206,3.0443,3.1098,3.0743,3.0155,2.9485,2.8834,2.8812,2.9887,3.0015,3.0399,3.1405,3.1511,3.1511,3.1511,3.1511,3.1511,3.1511,3.1511,3.1511,3.1511,3.1511,3.1511,3.1511,3.1511,3.1511,3.1511,3.1511,3.1511,3.1511,3.1511,3.1511,3.1511,3.1511,3.1705,3.2078,3.2377,3.2162,3.1655,3.178,3.1244,3.0378,3.0224,3.0173,3.02,0.0,0.0,0.0,0.0,0.0,0.0,0.0,0.0,0.0,0.0,0.0,0.0,0.0,0.0,0.0,0.0,0.0,0.0,0.0,0.0,0.0,0.0,1.4011,1.4238,1.458,1.5005,1.521,1.521,1.5706,1.6204,1.6704,1.6975,1.7806,1.9098,1.9923,2.0374,2.0558,2.129,2.1643,2.1733,2.2135,0.0,0.0,0.0,0.0,0.0,0.0,0.0,0.0,2.452,2.5395,2.6087,2.7855,0.0,0.0,0.0,0.0,0.0,2.8999,2.8719,2.8355,2.8116,2.8277,2.8484,2.8484,2.8755,2.9023,2.9152,2.9679,3.025,3.0757,3.0608,3.0698,3.1525,3.0381,2.9361,2.9271,2.918,2.9434,3.0258,3.0364,3.0666,3.1433,3.1511,3.1511,3.1511,3.1511,3.1511,3.1511,3.1511,3.1511,3.1511,3.1511,3.1511,3.1511,3.1511,3.1511,3.1511,3.1511,3.1511,3.1511,3.1511,3.1511,3.1511,3.1511,3.1511,3.1526,3.2108,3.1884,3.121,3.1736,3.1433,3.0673,3.0619,3.0596,3.0681,0.0,0.0,0.0,0.0,0.0,0.0,0.0,0.0,0.0,0.0,0.0,0.0,0.0,0.0,0.0,0.0,0.0,0.0,0.0,0.0,0.0,1.3885,1.4549,1.4937,1.5013,1.5455,1.5682,1.5682,1.6278,1.6614,1.6734,1.8274,1.9576,2.0646,2.0403,2.0708,2.1406,2.1536,2.1823,2.2202,2.2275,0.0,0.0,0.0,0.0,0.0,0.0,0.0,0.0,2.4676,2.5785,2.6819,2.8029,0.0,0.0,0.0,0.0,0.0,2.8999,2.8719,2.8465,2.8767,2.8875,2.8917,2.8917,2.897,2.9189,2.9873,2.9835,2.9969,3.0889,3.078,3.0677,3.0999,3.0114,2.9214,2.8713,2.8198,2.8346,2.9587,2.974,3.0212,3.139,3.1511,3.1511,3.1511,3.1511,3.1511,3.1511,3.1511,3.1511,3.1511,3.1511,3.1511,3.1511,3.1511,3.1511,3.1511,3.1511,3.1511,3.1511,3.1511,3.1511,3.1511,3.1511,3.1511,3.1511,3.1615,3.1572,3.1427,3.129,3.116,3.0981,3.0688,3.0596,3.0609,0.0,0.0,0.0,0.0,0.0,0.0,0.0,0.0,0.0,0.0,0.0,0.0,0.0,0.0,0.0,0.0,0.0,0.0,0.0,0.0,1.3556,1.3514,1.4334,1.4775,1.4775,1.5195,1.5602,1.5954,1.6463,1.7062,1.7818,1.9007,1.9941,2.0616,2.0649,2.1023,2.1628,2.1877,2.2106,2.2296,0.0,0.0,0.0,0.0,0.0,0.0,0.0,0.0,0.0,0.0,2.5974,2.6983,2.8058,0.0,0.0,0.0,0.0,0.0,2.8999,2.8863,2.8725,2.8682,2.8539,2.8418,2.8503,2.8518,2.8724,2.9499,2.9854,3.0098,3.0309,3.0314,3.0015,2.9243,2.9275,2.9191,2.8583,2.8543,2.8946,2.9966,3.0094,3.0467,3.1419,3.1511,3.1511,3.1511,3.1511,3.1668,3.2078,3.171,3.1668,3.2078,3.2092,3.1894,3.1496,3.2241,3.2241,3.1511,3.1511,3.1511,3.1511,3.1511,3.1511,3.1511,3.1511,3.1511,3.1511,3.1511,3.1511,3.1497,3.1353,3.1321,3.1305,3.114,3.1317,3.1621,0.0,0.0,0.0,0.0,0.0,0.0,0.0,0.0,0.0,0.0,0.0,0.0,0.0,0.0,0.0,0.0,0.0,0.0,0.0,0.0,1.3623,1.3365,1.4008,1.4358,1.4358,1.4994,1.5595,1.6094,1.6821,1.7822,1.9082,1.9497,1.9965,2.0475,2.0715,2.1126,2.1612,2.1988,2.2202,2.2296,0.0,0.0,0.0,0.0,0.0,0.0,0.0,0.0,0.0,0.0,0.0,0.0,0.0,0.0,0.0,2.8999,2.8999,2.8999,2.8999,2.8929,2.8816,2.8596,2.8275,2.8071,2.8266,2.8312,2.854,2.9316,2.9876,3.0135,2.9825,2.9819,2.9457,2.8216,2.8685,2.8973,2.8367,2.8814,2.948,3.0199,3.0411,3.0752,3.1434,3.1511,3.1511,3.1511,3.1668,3.2007,3.2559,3.2064,3.2092,3.2815,3.2682,3.2394,3.1992,3.3064,3.2891,3.1511,3.1683,3.1668,3.1511,3.1511,3.1511,3.1511,3.1511,3.1511,3.1511,3.1511,3.1511,3.1511,3.1511,3.1511,3.1511,3.1511,3.1824,3.2273,0.0,0.0,0.0,0.0,0.0,0.0,0.0,0.0,0.0,0.0,0.0,0.0,0.0,0.0,0.0,0.0,0.0,0.0,0.0,0.0,1.3433,1.3827,1.3909,1.3942,1.3942,1.5314,1.6051,1.6094,1.7741,1.9111,2.0184,1.9844,2.0154,2.0926,2.0533,2.083,2.1597,2.1643,2.1906,2.2296,2.2296,0.0,0.0,0.0,0.0,0.0,0.0,0.0,0.0,0.0,0.0,0.0,0.0,0.0,2.8999,2.8999,2.8999,2.8999,2.8999,2.8731,2.8535,2.8873,2.8654,2.845,2.885,2.8938,2.9204,3.0118,3.0013,2.9806,2.9951,2.9691,2.9401,2.9293,2.8873,2.8343,2.7748,2.8241,2.8903,2.9584,3.0171,3.0759,3.1436,3.1511,3.1511,3.1511,3.2134,3.2532,3.26,3.2561,3.2828,3.3521,3.292,3.2868,3.344,3.3543,3.2891,3.1511,3.2188,3.2162,3.1511,3.1511,3.1511,3.1511,3.1511,3.1511,3.1511,3.1511,3.1511,3.1511,3.1511,3.1511,3.1511,3.1511,3.1525,3.157,0.0,0.0,0.0,0.0,0.0,0.0,0.0,0.0,0.0,0.0,0.0,0.0,0.0,0.0,0.0,0.0,0.0,0.0,0.0,1.3198,1.3452,1.4001,1.4306,1.4637,1.5012,1.5733,1.6623,1.7716,1.8798,1.9533,1.9912,1.9773,2.0015,2.0566,2.0674,2.1055,2.1628,2.1913,2.2135,2.2296,2.2296,2.2296,0.0,0.0,0.0,0.0,0.0,0.0,0.0,0.0,2.7967,2.8465,2.8869,2.8999,2.8999,2.8999,2.8999,2.8999,2.8999,2.8479,2.8125,2.8832,2.8455,2.8114,2.8941,2.9122,2.9364,3.0169,3.0206,3.0103,3.0166,2.9144,2.84,2.8779,2.8331,2.786,2.7638,2.8186,2.8846,2.9518,3.0118,3.0762,3.1436,3.1511,3.1697,3.2146,3.2451,3.2774,3.3195,3.3209,3.3339,3.3582,3.3761,3.3773,3.3595,3.4423,3.3953,3.2203,3.2479,3.2202,3.1511,3.1511,3.1511,3.1511,3.1511,3.1511,3.1511,3.1511,3.1511,3.1511,3.1511,3.1511,3.1511,3.1511,3.1511,3.1511,0.0,0.0,0.0,0.0,0.0,0.0,0.0,0.0,0.0,0.0,0.0,0.0,0.0,0.0,0.0,0.0,0.0,0.0,1.3198,1.3378,1.3668,1.4081,1.4574,1.5258,1.618,1.6374,1.7152,1.8506,1.9316,1.9708,1.9708,1.9708,1.9918,2.0314,2.0633,2.1078,2.1612,2.1935,2.2291,2.2641,2.2641,2.2794,0.0,0.0,0.0,0.0,0.0,0.0,0.0,0.0,2.8353,2.8639,2.8917,2.8999,2.8999,2.8999,2.8917,2.8815,2.8815,2.8462,2.8286,2.8976,2.8856,2.8776,2.9642,2.9649,2.9639,3.0186,3.0293,3.0187,2.9794,2.888,2.8247,2.8463,2.7981,2.76,2.76,2.8366,2.9099,2.9548,3.0313,3.1002,3.1466,3.1511,3.181,3.2532,3.2803,3.3211,3.3887,3.3912,3.4012,3.4211,3.4467,3.4479,3.4239,3.5138,3.4693,3.2922,3.2922,3.2422,3.1511,3.1511,3.1511,3.1511,3.1511,3.1511,3.1511,3.1511,3.1511,3.1511,3.1511,3.1511,3.1511,3.1511,3.1511,3.1511,0.0,0.0,0.0,0.0,0.0,0.0,0.0,0.0,0.0,0.0,0.0,0.0,0.0,0.0,0.0,0.0,0.0,0.0,1.321,1.3765,1.4116,1.4116,1.4626,1.5655,1.726,1.7311,1.757,1.8123,1.9176,1.9708,1.9708,1.9708,1.9918,2.0306,2.029,2.0781,2.1606,2.1613,2.2308,2.341,2.341,2.3848,2.4544,0.0,0.0,0.0,0.0,0.0,0.0,0.0,2.8999,2.8999,2.8999,2.8999,2.8999,2.8999,2.8725,2.8414,2.8407,2.8708,2.9082,2.9415,3.0058,3.0694,3.1111,3.0632,3.0157,3.0276,3.0309,2.9941,2.8721,2.9,2.9203,2.8606,2.8005,2.7612,2.7612,2.8753,2.9606,2.9606,3.0731,3.151,3.151,3.151,3.1824,3.2559,3.3222,3.3899,3.4564,3.46,3.4918,3.5577,3.4941,3.493,3.56,3.56,3.4923,3.3595,3.3595,3.2864,3.1511,3.1511,3.1496,3.1511,3.1511,3.1496,3.1511,3.1511,3.1511,3.1511,3.1511,3.1511,3.1511,3.1511,3.1511,3.1511,0.0,0.0,0.0,0.0,0.0,0.0,0.0,0.0,0.0,0.0,0.0,0.0,0.0,0.0,0.0,0.0,0.0,0.0,1.3837,1.4353,1.483,1.5211,1.5737,1.6428,1.7277,1.8033,1.8693,1.9224,1.954,1.9708,1.9708,1.9708,1.9918,2.0314,2.0657,2.1376,2.2408,2.2733,2.3381,2.4169,2.4169,2.4305,2.4595,0.0,0.0,0.0,0.0,0.0,0.0,0.0,0.0,0.0,2.8999,2.8999,2.8999,2.8999,2.8917,2.8883,2.9175,2.8848,2.8722,2.9963,2.9981,2.9952,3.0965,3.1021,3.0756,3.0375,2.9957,2.9563,2.9191,2.9282,2.9339,2.9157,2.8626,2.8238,2.8238,2.9426,3.0296,3.0296,3.1893,3.2984,3.2984,3.2984,3.3258,3.395,3.4198,3.4394,3.4588,3.5052,3.5184,3.4906,3.5156,3.5396,3.56,3.56,3.4923,3.3595,3.3595,3.2864,3.1511,3.1511,3.1782,3.2244,3.1725,3.1796,3.223,3.171,3.1511,3.1511,3.1511,3.1511,3.1511,3.1511,3.1511,3.1568,0.0,0.0,0.0,0.0,0.0,0.0,0.0,0.0,0.0,0.0,1.2347,0.0,0.0,0.0,0.0,0.0,0.0,0.0,0.0,1.4919,1.5351,1.5691,1.6419,1.7163,1.7923,1.8788,1.9378,1.9708,1.9708,1.9708,1.9708,1.9708,2.0178,2.1026,2.1309,2.2175,2.3428,2.3716,2.4263,2.4956,2.5117,2.5356,2.5725,0.0,0.0,0.0,0.0,0.0,0.0,0.0,0.0,0.0,2.8999,2.8999,2.8964,2.8815,2.8875,2.9009,2.9098,2.9036,2.9188,3.0164,3.0234,3.0256,3.103,3.12,3.1025,3.0425,3.0198,2.9973,2.9485,2.9596,2.9673,2.944,2.9088,2.8861,2.8861,2.9827,3.0637,3.0929,3.2269,3.3281,3.3563,3.3595,3.3887,3.454,3.46,3.4724,3.4976,3.5373,3.5407,3.5016,3.5385,3.56,3.56,3.56,3.5068,3.4,3.4,3.3414,3.2325,3.1753,3.1894,3.2588,3.2134,3.2021,3.2134,3.1668,3.1511,3.1511,3.1511,3.1511,3.1511,3.1511,3.1697,3.1993,0.0,0.0,0.0,0.0,0.0,0.0,0.0,0.0,0.0,0.0,1.2027,1.1952,0.0,0.0,0.0,0.0,0.0,0.0,0.0,0.0,1.5696,1.5696,1.6679,1.7737,1.8807,1.929,1.9603,1.9708,1.9708,1.9708,1.9708,1.9807,2.065,2.2105,2.2212,2.3128,2.4592,2.4637,2.5078,2.5782,2.6183,2.6765,2.7424,2.8098,0.0,0.0,0.0,0.0,0.0,0.0,0.0,0.0,2.8999,2.9054,2.9038,2.8674,2.8859,2.9087,2.8757,2.9393,3.0146,3.0192,3.07,3.12,3.12,3.12,3.1025,3.0425,3.073,3.0777,2.9618,2.9935,3.0187,2.9585,2.9485,2.9485,2.9485,3.0055,3.0761,3.1498,3.2248,3.2967,3.3709,3.3773,3.4025,3.4652,3.47,3.4953,3.5577,3.56,3.56,3.56,3.56,3.56,3.56,3.56,3.5253,3.46,3.46,3.4248,3.3556,3.2269,3.2064,3.2695,3.2763,3.2382,3.1682,3.1682,3.1682,3.1682,3.1682,3.1682,3.1682,3.1682,3.212,3.2709,0.0,0.0,0.0,0.0,0.0,0.0,0.0,0.0,0.0,0.0,0.0,0.0,0.0,0.0,0.0,0.0,0.0,0.0,0.0,0.0,1.5619,1.5619,1.6293,1.7167,1.8253,1.839,1.8864,1.9708,1.9708,1.9708,1.9717,2.0673,2.1463,2.2142,2.3095,2.4197,2.5379,2.5703,2.6271,2.6968,2.7366,2.7624,2.7797,2.7943,2.817,0.0,0.0,0.0,0.0,0.0,0.0,0.0,2.8999,2.9427,2.9916,2.9832,3.0094,3.0445,3.0639,3.0593,3.0578,3.0871,3.1072,3.12,3.12,3.12,3.1025,3.0425,3.0404,3.0272,2.954,3.0272,3.0818,3.0198,3.0113,3.0113,3.0113,3.0729,3.1456,3.2194,3.3344,3.4353,3.5106,3.5173,3.5219,3.5373,3.5385,3.5458,3.56,3.56,3.56,3.56,3.56,3.56,3.56,3.56,3.5253,3.46,3.46,3.4248,3.3582,3.33,3.3235,3.3417,3.3937,3.3786,3.3156,3.3156,3.3156,3.3156,3.3156,3.3156,3.3156,3.3156,3.3248,3.3469,0.0,0.0,0.0,0.0,0.0,0.0,0.0,0.0,0.0,0.0,0.0,0.0,0.0,0.0,0.0,0.0,0.0,0.0,0.0,0.0,1.5838,1.6385,1.6714,1.7382,1.8454,1.8488,1.8885,1.9708,2.0014,2.0183,2.0192,2.1099,2.2079,2.3148,2.4038,2.5055,2.6158,2.6553,2.6944,2.7348,2.7911,2.8131,2.8163,2.8347,2.8539,2.8682,2.8682,0.0,0.0,0.0,0.0,0.0,0.0,0.0,3.0228,3.0463,3.0939,3.1311,3.1073,3.1098,3.1187,3.1198,3.12,3.12,3.12,3.12,3.1121,3.0808,3.073,3.0638,3.0314,3.0787,3.1102,3.0771,3.073,3.073,3.073,3.1047,3.1585,3.232,3.3331,3.4252,3.5002,3.5391,3.56,3.56,3.56,3.56,3.56,3.56,3.56,3.56,3.56,3.56,3.56,3.56,3.5419,3.5075,3.5075,3.4894,3.456,3.4239,3.3912,3.3633,3.4309,3.4223,3.3595,3.3595,3.3595,3.3595,3.3595,3.3595,3.3595,3.3595,3.3799,3.4137,0.0,0.0,0.0,0.0,0.0,0.0,0.0,0.0,0.0,0.0,0.0,0.0,0.0,0.0,0.0,0.0,0.0,0.0,0.0,0.0,0.0,1.711,1.7166,1.7668,1.8747,1.8762,1.9122,1.9861,2.0433,2.0831,2.1059,2.1682,2.2762,2.4231,2.4972,2.5814,2.6725,2.7122,2.7346,2.7462,2.814,2.8432,2.8546,2.8869,2.9097,2.9207,2.9207,2.9299,2.9409,2.9409,0.0,0.0,0.0,0.0,3.0687,3.1079,3.1671,3.2029,3.1223,3.1349,3.1621,3.1281,3.12,3.12,3.12,3.12,3.12,3.12,3.12,3.12,3.12,3.12,3.12,3.12,3.12,3.12,3.12,3.12,3.1471,3.2209,3.2841,3.3508,3.4235,3.4968,3.5408,3.5408,3.5526,3.56,3.56,3.56,3.56,3.56,3.56,3.56,3.56,3.56,3.56,3.56,3.56,3.56,3.5588,3.504,3.4467,3.3975,3.4532,3.4471,3.3953,3.3953,3.3953,3.3953,3.3953,3.3953,3.3953,3.3953,3.4297,3.4771,0.0,0.0,0.0,0.0,0.0,0.0,0.0,0.0,0.0,0.0,1.2092,1.2316,0.0,0.0,0.0,0.0,0.0,0.0,1.3919,0.0,0.0,1.6583,1.6602,1.7102,1.8182,1.8209,1.8986,2.0563,2.066,2.1288,2.245,2.3403,2.3977,2.4272,2.579,2.6556,2.6725,2.7122,2.7499,2.7857,2.8244,2.862,2.8929,2.8988,2.9427,3.0038,3.0038,3.0485,3.1078,3.1078,3.1078,0.0,0.0,0.0,3.2283,3.2354,3.2683,3.2931,3.2407,3.1782,3.1261,3.121,3.12,3.12,3.12,3.12,3.12,3.12,3.12,3.12,3.12,3.12,3.12,3.12,3.12,3.12,3.12,3.12,3.1471,3.2209,3.2395,3.274,3.3491,3.4201,3.4652,3.4652,3.5239,3.56,3.56,3.56,3.56,3.56,3.56,3.56,3.56,3.56,3.56,3.56,3.56,3.56,3.56,3.5504,3.5424,3.5339,3.5436,3.5424,3.5328,3.5328,3.5328,3.5328,3.5328,3.5328,3.5328,3.5328,3.5385,3.547,0.0,0.0,0.0,0.0,0.0,0.0,0.0,0.0,0.0,0.0,0.0,1.2969,0.0,0.0,0.0,1.2905,1.3135,1.3583,1.4256,1.4799,1.5522,1.6459,1.6785,1.7316,1.8075,1.8755,1.9627,2.0694,2.1447,2.2256,2.3132,2.4245,2.4752,2.4829,2.611,2.67,2.6725,2.7122,2.7532,2.796,2.8508,2.8714,2.8734,2.9372,2.972,2.9929,3.0375,3.0914,3.139,3.139,3.139,3.1482,3.1935,0.0,0.0,0.0,3.3399,3.3383,3.2689,3.2039,3.1479,3.1269,3.12,3.12,3.12,3.12,3.12,3.12,3.12,3.12,3.12,3.12,3.12,3.12,3.12,3.12,3.12,3.12,3.1319,3.164,3.2056,3.2429,3.2757,3.3457,3.388,3.388,3.4173,3.4545,3.4951,3.4968,3.5171,3.5583,3.56,3.56,3.56,3.56,3.56,3.56,3.56,3.56,3.56,3.56,3.56,3.56,3.56,3.56,3.56,3.56,3.56,3.56,3.56,3.56,3.56,3.56,3.56,3.56,0.0,0.0,0.0,0.0,0.0,0.0,0.0,0.0,0.0,0.0,0.0,0.0,0.0,0.0,0.0,0.0,1.3042,1.3583,1.464,1.4836,1.5338,1.623,1.6958,1.7581,1.8108,1.9289,2.0255,2.0941,2.2132,2.3029,2.3672,2.4708,2.5269,2.5447,2.6312,2.67,2.6716,2.7012,2.7487,2.8079,2.8624,2.8839,2.892,2.9787,3.0077,3.013,3.0842,3.1431,3.1874,3.1983,3.2015,3.2106,3.2717,3.2901,0.0,0.0,0.0,3.3515,3.2856,3.235,3.1879,3.1458,3.1351,3.1339,3.122,3.12,3.12,3.12,3.12,3.12,3.12,3.12,3.12,3.12,3.12,3.12,3.12,3.12,3.12,3.12,3.1701,3.2022,3.2022,3.2689,3.3119,3.3119,3.3288,3.3643,3.4184,3.4218,3.4472,3.5008,3.5222,3.5323,3.5323,3.5509,3.56,3.56,3.56,3.56,3.56,3.56,3.56,3.56,3.56,3.56,3.56,3.56,3.56,3.56,3.56,3.56,3.56,3.56,3.56,3.56,0.0,0.0,0.0,0.0,0.0,0.0,0.0,0.0,0.0,0.0,0.0,0.0,1.3768,1.3237,1.2905,1.2905,1.3421,1.4023,1.4653,1.5233,1.5587,1.5639,1.6775,0.0,1.8174,1.9301,2.0476,2.165,2.2359,2.3273,2.4361,2.4935,2.5471,2.5975,2.6472,2.67,2.67,2.6716,2.7368,2.8369,2.8429,2.9064,3.0022,3.0088,3.056,3.127,3.1754,3.2433,3.3161,3.3552,3.3678,3.3678,3.3715,3.3733,3.3752,0.0,0.0,0.0,3.3184,3.2817,3.2358,3.1888,3.1771,3.1669,3.1291,3.12,3.12,3.12,3.12,3.12,3.12,3.12,3.12,3.12,3.12,3.12,3.12,3.12,3.12,3.12,3.1224,3.1268,3.1268,3.1911,3.2361,3.2361,3.3,3.3413,3.3457,3.3457,3.3463,3.3514,3.4184,3.4567,3.4567,3.5256,3.56,3.56,3.56,3.56,3.56,3.56,3.56,3.56,3.56,3.56,3.56,3.56,3.56,3.56,3.56,3.56,3.56,3.56,3.56,3.56,0.0,0.0,0.0,0.0,0.0,0.0,0.0,0.0,0.0,0.0,0.0,0.0,0.0,1.4174,1.4058,1.4058,1.457,1.531,1.6294,1.6575,1.703,1.7811,1.8216,1.8901,1.9904,2.0674,2.1482,2.233,2.2978,2.3846,2.4913,2.5107,2.5656,2.6455,2.6624,2.697,2.743,2.7726,2.8509,2.9573,2.9788,2.9984,3.0213,3.0635,3.084,3.1001,3.1634,3.2439,3.3221,3.3361,3.3578,3.3807,3.3807,3.3807,3.3807,3.3807,3.37,3.3529,3.3266,3.3075,3.2832,3.2375,3.2022,3.1761,3.163,3.1389,3.12,3.12,3.12,3.12,3.12,3.12,3.12,3.12,3.12,3.12,3.12,3.12,3.12,3.12,3.12,3.12,3.12,3.1437,3.1589,3.1589,3.1843,3.2188,3.2672,3.2689,3.2899,3.3379,3.366,3.3795,3.3795,3.4055,3.419,3.419,3.419,3.419,3.419,3.419,3.4444,3.4895,3.4895,3.5154,3.56,3.56,3.56,3.56,3.56,3.56,3.56,3.56,3.56,3.56,0.0,0.0,0.0,0.0,0.0,0.0,0.0,0.0,0.0,1.5276,0.0,0.0,0.0,0.0,1.5058,1.5254,1.5785,1.6447,1.7247,1.7699,1.83,1.9109,1.9461,2.0032,2.0882,2.1648,2.2243,2.2697,2.3312,2.4153,2.5188,2.5203,2.5869,2.7063,2.7063,2.7428,2.8074,2.8639,2.9535,3.0616,3.0673,3.071,3.0788,3.1234,3.1173,3.0972,3.1752,3.2332,3.2761,3.2903,3.3143,3.3379,3.355,3.3694,3.3807,3.3807,3.3807,3.3734,3.348,3.3397,3.3295,3.284,3.2491,3.2187,3.1862,3.1593,3.1361,3.123,3.12,3.12,3.12,3.12,3.12,3.12,3.12,3.12,3.12,3.12,3.12,3.12,3.12,3.12,3.12,3.12,3.12,3.12,3.12,3.142,3.1904,3.1928,3.2266,3.3,3.3034,3.3152,3.3396,3.3396,3.3396,3.3396,3.3396,3.3396,3.3396,3.3396,3.3677,3.4134,3.4134,3.4692,3.56,3.56,3.56,3.56,3.56,3.56,3.56,3.56,3.56,3.56,0.0,0.0,0.0,0.0,0.0,0.0,0.0,0.0,1.5832,1.6451,0.0,0.0,0.0,0.0,0.0,1.6485,1.7063,1.7401,1.7429,1.8587,1.928,1.9305,2.0342,2.0944,2.0979,2.2116,2.2712,2.2723,2.3312,2.4148,2.519,2.5226,2.6146,2.7807,2.7849,2.8143,2.8638,2.9351,3.0358,3.1403,3.0938,3.1191,3.1822,3.1778,3.1545,3.1305,3.2159,3.2177,3.1861,3.2333,3.2492,3.2583,3.3045,3.348,3.3807,3.3807,3.3807,3.3807,0.0,0.0,0.0,3.3317,3.3214,3.2957,3.2048,3.1834,3.1715,3.13,3.122,3.121,3.12,3.12,3.12,3.12,3.12,3.12,3.12,3.12,3.12,3.12,3.12,3.12,3.12,3.12,3.12,3.12,3.12,3.12,3.12,3.12,3.1522,3.2242,3.2276,3.2605,3.3328,3.3339,3.3339,3.3339,3.3339,3.3339,3.3339,3.3339,3.3345,3.3362,3.3362,3.419,3.5532,3.5532,3.5549,3.5566,3.5566,3.5583,3.56,3.56,3.5611,3.5616,0.0,0.0,0.0,0.0,0.0,0.0,1.516,1.5796,1.6463,0.0,0.0,0.0,1.8962,1.8921,1.9043,1.9617,1.9813,2.0075,2.0454,2.0804,2.1216,2.1707,2.1565,2.1914,2.2825,2.2748,2.2902,2.3348,2.3517,2.4158,2.5207,2.5747,2.6646,2.7849,2.8973,2.9893,3.0606,3.0816,3.1596,3.2668,3.2187,3.2113,3.2244,3.1603,3.1297,3.1227,3.1473,3.1657,3.1823,3.1957,3.2213,3.2583,3.3045,3.348,3.3807,3.3807,3.3807,3.3807,3.3807,0.0,0.0,0.0,0.0,0.0,3.2872,3.2558,3.2187,3.1733,3.1623,3.1554,3.1252,3.12,3.12,3.12,3.12,3.12,3.12,3.12,3.12,3.12,3.12,3.12,3.12,3.12,3.12,3.12,3.12,3.12,3.12,3.12,3.1285,3.1505,3.1505,3.1606,3.1799,3.1799,3.1799,3.1799,3.1799,3.1799,3.1799,3.1799,3.2097,3.2605,3.2605,3.3146,3.4004,3.4004,3.4309,3.4793,3.4793,3.512,3.56,3.56,3.586,3.6182,0.0,0.0,0.0,0.0,0.0,1.5909,1.6154,1.6774,1.753,0.0,0.0,0.0,2.0307,2.0628,2.0893,2.1209,2.1489,2.1785,2.2106,2.2355,2.2672,2.3055,2.2697,2.284,2.3569,2.326,2.326,2.3595,2.4135,2.4834,2.567,2.6639,2.7686,2.8804,2.9693,3.0747,3.1867,3.1862,3.2476,3.3396,3.2759,3.2497,3.243,3.1718,3.1352,3.1223,3.1397,3.1489,3.1555,3.1547,3.1851,3.2281,3.2761,3.3196,3.3578,3.3748,3.3807,3.3807,3.3807,3.3807,3.3807,3.3807,0.0,0.0,3.3236,3.285,3.2426,3.2144,3.1942,3.1742,3.1488,3.1458,3.1408,3.123,3.12,3.12,3.12,3.12,3.12,3.12,3.12,3.12,3.12,3.12,3.12,3.12,3.12,3.12,3.12,3.12,3.12,3.12,3.12,3.12,3.12,3.137,3.1458,3.1458,3.1648,3.1732,3.1732,3.1732,3.1974,3.2378,3.2177,3.2337,3.2717,3.254,3.3209,3.4321,3.4117,3.4733,3.5697,3.5548,3.6004,3.6734,0.0,0.0,1.5969,1.6504,1.7099,1.7662,1.8206,1.8412,1.8907,0.0,1.9838,1.9974,2.0979,2.1589,2.1914,2.1914,2.2513,2.2914,2.291,2.348,2.3815,2.3822,2.3808,2.3845,2.3928,2.3913,2.3945,2.4031,2.5167,2.5983,2.6543,2.7742,2.8962,3.0098,3.0183,3.1065,3.25,3.2495,3.2982,3.3652,3.283,3.248,3.2369,3.191,3.1506,3.1244,3.1603,3.1506,3.12,3.12,3.1477,3.1862,3.2299,3.2745,3.3188,3.3606,3.3728,3.3741,3.3793,3.3807,3.3807,3.3807,3.3807,0.0,3.3346,3.2934,3.2632,3.2591,3.2239,3.1933,3.188,3.1888,3.177,3.1408,3.13,3.1242,3.12,3.12,3.12,3.12,3.12,3.12,3.12,3.12,3.12,3.12,3.12,3.12,3.12,3.1232,3.1261,3.1261,3.132,3.1349,3.1349,3.1696,3.1888,3.188,3.2307,3.2501,3.2501,3.2501,3.2501,3.2476,3.2057,3.1888,3.1852,3.1496,3.2373,3.3945,3.3513,3.434,3.5735,3.5459,3.6116,3.716,0.0,1.6722,1.7092,1.7201,1.7684,1.8078,1.8203,1.9456,2.0454,2.0714,2.1901,2.2635,2.2381,2.2876,2.3235,2.3235,2.3851,2.423,2.4227,2.4843,2.522,2.5213,2.5209,2.5449,2.5914,2.5927,2.6173,2.6666,2.6908,2.7306,2.7853,2.8692,2.9452,3.0132,3.0717,3.1547,3.2501,3.2497,3.2819,3.3271,3.2718,3.2262,3.1893,3.1489,3.1261,3.1217,3.1288,3.1261,3.12,3.12,3.1477,3.1825,3.1897,3.2256,3.2729,3.3173,3.3317,3.3383,3.3707,3.3807,3.3807,3.3807,3.3807,0.0,3.37,3.3613,3.3454,3.3121,3.2999,3.2817,3.2425,3.2349,3.2341,3.2256,3.1924,3.1565,3.1259,3.12,3.12,3.12,3.12,3.12,3.12,3.12,3.12,3.12,3.12,3.12,3.12,3.1507,3.1687,3.1687,3.2048,3.2257,3.2257,3.2324,3.2349,3.2349,3.2459,3.2501,3.2501,3.2501,3.2501,3.2492,3.2409,3.2349,3.2358,3.2273,3.2624,3.32,3.3105,3.3833,3.4994,3.5574,3.6203,3.6884,1.7282,1.7589,1.7791,1.7794,1.8239,1.8808,1.9446,2.0294,2.1193,2.2121,2.3333,2.3981,2.3678,2.4227,2.4593,2.4608,2.4898,2.5097,2.5102,2.5413,2.5741,2.6037,2.6047,2.6331,2.6935,2.6941,2.7111,2.7397,2.8042,2.8502,2.8774,2.9769,3.0226,3.0222,3.0903,3.152,3.2073,3.2374,3.2635,3.2822,3.2588,3.2227,3.1761,3.1348,3.12,3.12,3.12,3.12,3.12,3.12,3.1332,3.1545,3.1734,3.1951,3.2281,3.2999,3.3199,3.3288,3.3694,3.3807,3.3807,3.3807,3.3807,0.0,0.0,3.3634,3.3501,3.3501,3.3339,3.3139,3.288,3.284,3.2769,3.2534,3.2298,3.2083,3.1887,3.1468,3.12,3.12,3.12,3.12,3.12,3.1389,3.1601,3.1832,3.1851,3.1851,3.1851,3.2039,3.2144,3.2144,3.2384,3.2501,3.2501,3.2729,3.284,3.284,3.3042,3.314,3.314,3.314,3.314,3.3151,3.2944,3.284,3.2825,3.2599,3.2731,3.3076,3.2845,3.3613,3.4865,3.5081,3.5987,3.7163,1.8278,1.8386,1.8557,1.8557,1.9086,1.9869,2.0905,2.1116,2.1791,2.3551,2.4261,2.4657,2.4779,2.5273,2.5597,2.56,2.5723,2.5833,2.595,2.5989,2.6312,2.7023,2.695,2.7221,2.794,2.7961,2.8012,2.8125,2.9154,2.9676,2.9686,3.0709,3.0945,3.0487,3.0985,3.1361,3.1679,3.2246,3.2451,3.2375,3.247,3.2159,3.1647,3.1331,3.12,3.12,3.12,3.12,3.12,3.12,3.1244,3.1365,3.1604,3.1734,3.196,3.2817,3.306,3.3166,3.3673,3.3807,3.3807,3.3807,3.3807,3.3807,0.0,0.0,0.0,3.3728,3.3543,3.3317,3.3317,3.3317,3.3181,3.2817,3.2689,3.2632,3.2632,3.1941,3.1456,3.1456,3.13,3.123,3.131,3.1621,3.1968,3.2341,3.2451,3.2501,3.2501,3.2583,3.2632,3.2632,3.2713,3.2753,3.2753,3.3121,3.3317,3.3317,3.3634,3.3807,3.3807,3.3807,3.3807,3.3775,3.3465,3.3317,3.3288,3.2903,3.2965,3.3273,3.2809,3.3517,3.4749,3.4582,3.557,3.7063,1.85,1.9058,1.9798,1.9798,2.0676,2.1434,2.1588,2.2107,2.2979,2.4306,2.4548,2.4829,2.5427,2.554,2.5596,2.5603,2.6141,2.6711,2.7238,2.7349,2.7884,2.9021,2.8568,2.8821,2.9951,2.9972,3.0228,3.0773,3.0906,3.0977,3.0986,3.1137,3.1161,3.1095,3.1171,3.1403,3.1808,3.229,3.2247,3.1923,3.2336,3.2013,3.1261,3.1217,3.12,3.12,3.12,3.12,3.12,3.12,3.1439,3.1686,3.1374,3.1517,3.1897,3.2434,3.2583,3.2761,3.3578,3.3807,3.3807,3.3807,3.3807,3.3807,3.3807,0.0,3.3741,3.3782,0.0,3.3728,3.3728,0.0,0.0,3.3655,3.3354,3.3113,3.3113,3.2673,3.235,3.235,3.1666,3.1341,3.1706,3.1771,3.1825,3.1888,3.2256,3.2501,3.2501,3.2887,3.3113,3.3113,3.348,3.3648,3.3648,3.3707,3.3728,3.3728,3.3787,3.3807,3.3807,3.3807,3.3807,3.3807,3.3748,3.3728,3.3728,3.3662,3.3675,3.3694,3.328,3.3452,3.402,3.468,3.5079,3.55,2.0374,2.0634,2.0999,2.0999,2.1379,2.184,2.2216,2.3149,2.4125,2.506,2.5528,2.5995,2.6634,2.6738,2.6895,2.7252,2.7224,2.7436,2.8042,2.8105,2.8662,2.987,2.9673,2.9962,3.0791,3.0828,3.0955,3.12,3.12,3.12,3.12,3.12,3.1015,3.0689,3.1035,3.1223,3.1314,3.1854,3.1969,3.1825,3.2021,3.174,3.12,3.12,3.12,3.12,3.12,3.12,3.12,3.12,3.1307,3.1411,3.1244,3.1329,3.1592,3.229,3.2501,3.2689,3.3571,3.3638,3.3508,3.3734,3.3613,3.3515,3.3741,3.3807,3.3807,3.3807,0.0,0.0,0.0,0.0,0.0,0.0,3.3666,3.3543,3.3543,3.3173,3.2819,3.2534,3.2188,3.2135,3.2565,3.2366,3.2425,3.2914,3.314,3.3255,3.3255,3.3433,3.3543,3.3543,3.3707,3.3807,3.3807,3.3807,3.3807,3.3807,3.3807,3.3807,3.3807,3.3807,3.3807,3.3807,3.3807,3.3807,3.3807,3.3807,3.3807,3.3775,3.3606,3.3659,3.3844,3.4185,3.4919,3.5855,2.219,2.2086,2.1969,2.1969,2.225,2.2728,2.3394,2.4284,2.5113,2.5794,2.6303,2.6898,2.7686,2.7665,2.7848,2.8439,2.7959,2.786,2.8451,2.8499,2.895,3.0016,3.0208,3.0508,3.0938,3.1121,3.12,3.12,3.12,3.12,3.12,3.12,3.0975,3.0576,3.1005,3.1123,3.1024,3.1562,3.1734,3.165,3.1757,3.1554,3.12,3.12,3.12,3.12,3.12,3.12,3.12,3.12,3.1266,3.1348,3.1232,3.1281,3.1496,3.2127,3.2316,3.25,3.3379,3.3411,3.3295,3.37,3.3578,3.3451,3.3728,3.3807,3.3807,3.3807,3.3807,0.0,0.0,0.0,3.3807,3.3807,0.0,3.3807,3.3807,3.3543,3.3243,3.2895,3.2761,3.2769,3.2991,3.2809,3.295,3.3585,3.3734,3.3807,3.3807,3.3807,3.3807,3.3807,3.3807,3.3807,3.3807,3.3807,3.3807,3.3807,3.3807,3.3807,3.3807,3.3807,3.3807,3.3807,3.3807,3.3807,3.3807,3.3807,3.3807,3.3825,3.4045,3.413,3.413,3.413,3.4908,3.6009,2.3432,2.3065,2.2672,2.2672,2.3686,2.4738,2.5403,2.5546,2.5797,2.6479,2.6584,2.7083,2.8319,2.7956,2.7848,2.8439,2.7959,2.786,2.8451,2.8499,2.8779,2.9395,2.9995,3.0303,3.0341,3.0898,3.12,3.12,3.12,3.12,3.12,3.12,3.119,3.1171,3.119,3.12,3.123,3.164,3.1575,3.1252,3.1641,3.1556,3.12,3.12,3.12,3.12,3.12,3.12,3.12,3.12,3.1459,3.1705,3.1326,3.1477,3.1789,3.1808,3.1825,3.203,3.2957,3.3214,3.3295,3.37,3.3782,3.3775,3.3807,3.3807,3.3807,3.3807,3.3807,3.3807,3.3807,3.3807,3.3807,0.0,3.3807,0.0,0.0,3.3793,3.3787,3.3755,3.3404,3.3006,3.2567,3.2929,3.3191,3.3221,3.3578,3.3807,3.3807,3.3807,3.3807,3.3807,3.3807,3.3807,3.3807,3.3807,3.3807,3.3807,3.3807,3.3807,3.3807,3.3807,3.3807,3.3807,3.3807,3.3807,3.3807,3.3807,3.3807,3.388,3.4656,3.4961,3.4961,3.4961,3.4997,3.5279,2.4881,2.4766,2.4479,2.4028,2.4673,2.5483,2.6153,2.6258,2.6509,2.718,2.727,2.7578,2.8412,2.7956,2.7848,2.8439,2.7959,2.786,2.8451,2.8873,2.9361,2.9973,3.057,3.0898,3.0898,3.1102,3.12,3.12,3.12,3.12,3.12,3.12,3.1341,3.1603,3.1603,3.1603,3.1612,3.1743,3.1565,3.121,3.1351,3.1601,3.1866,3.1392,3.12,3.12,3.12,3.12,3.12,3.12,3.1295,3.1378,3.1235,3.13,3.1468,3.1716,3.1807,3.1933,3.2575,3.25,3.2466,3.3211,3.3166,3.3087,3.3662,3.3807,3.3807,3.3807,3.3807,3.3807,3.3807,3.3807,0.0,0.0,0.0,3.3807,0.0,3.3807,3.3807,3.3807,3.3433,3.3243,3.3343,3.3266,3.331,3.3571,3.3721,3.3807,3.3807,3.3807,3.3807,3.3807,3.3807,3.3807,3.3807,3.3807,3.3807,3.3807,3.3807,3.3807,3.3807,3.3807,3.3807,3.3807,3.3807,3.3807,3.3807,3.3807,3.4112,3.4619,3.4887,3.5353,3.5862,3.5862,3.6318,3.7106,2.5603,2.5794,2.5737,2.5068,2.5513,2.624,2.7143,2.7091,2.7195,2.7837,2.7735,2.7835,2.8427,2.7956,2.7848,2.8439,2.7959,2.786,2.8451,2.8861,2.935,2.9946,3.0566,3.0878,3.0878,3.1085,3.12,3.12,3.12,3.12,3.12,3.12,3.1411,3.1807,3.1807,3.1807,3.1807,3.1807,3.1565,3.1224,3.1492,3.1872,3.2275,3.2056,3.183,3.156,3.1288,3.12,3.12,3.12,3.12,3.12,3.12,3.12,3.1242,3.1507,3.1584,3.1678,3.2135,3.2022,3.1986,3.2761,3.2721,3.2689,3.3419,3.3578,3.3638,3.3762,3.3807,3.3807,3.3807,3.3807,3.3807,0.0,0.0,3.3807,0.0,3.3807,3.3807,3.3807,3.3571,3.3522,3.3768,3.3564,3.3522,3.3787,3.3807,3.3807,3.3807,3.3807,3.3807,3.3807,3.3807,3.3807,3.3807,3.3807,3.3807,3.3807,3.3807,3.3807,3.3807,3.3807,3.3807,3.3807,3.3807,3.3972,3.4236,3.4364,3.4817,3.5509,3.6011,3.6481,3.6865,3.6865,3.7566,3.8615,2.574,2.627,2.6546,2.5903,2.6309,2.7143,2.837,2.803,2.7848,2.8415,2.7968,2.7823,2.8391,2.7931,2.7835,2.8419,2.7919,2.7848,2.8415,2.8511,2.8791,2.9372,3.0016,3.0335,3.0335,3.0908,3.12,3.12,3.12,3.12,3.12,3.122,3.1449,3.1843,3.187,3.187,3.1826,3.1826,3.162,3.1358,3.209,3.2442,3.2561,3.3197,3.3036,3.2344,3.1584,3.1312,3.1319,3.1319,3.1275,3.1251,3.1251,3.1224,3.12,3.12,3.12,3.1281,3.1669,3.1771,3.1897,3.2384,3.2501,3.2624,3.3083,3.3199,3.3302,3.3694,3.3762,3.3787,3.3807,3.3807,3.3807,0.0,0.0,3.3807,3.3807,3.3807,3.3807,3.3807,3.3775,3.3787,3.3807,3.3807,3.3807,3.3807,3.3807,3.3807,3.3807,3.3807,3.3807,3.3807,3.3807,3.3807,3.3807,3.3807,3.3807,3.3807,3.3807,3.3807,3.3807,3.3807,3.3825,3.3862,3.3862,3.4314,3.5087,3.5417,3.5885,3.6509,3.7876,3.8242,3.8008,3.8008,3.8695,3.9628,2.7668,2.8264,2.8635,2.8446,2.8572,2.8791,2.9114,2.865,2.8319,2.8475,2.7968,2.7648,2.7823,2.7685,2.7648,2.7823,2.7685,2.7675,2.7823,2.8674,2.9237,2.9395,3.0414,3.0975,3.0975,3.1131,3.12,3.12,3.12,3.12,3.121,3.1507,3.1879,3.2341,3.2671,3.2656,3.2324,3.2324,3.2441,3.2673,3.3419,3.4238,3.4969,3.4256,3.4218,3.438,3.3239,3.2845,3.2848,3.2848,3.2469,3.2022,3.2022,3.164,3.12,3.12,3.12,3.122,3.1339,3.1351,3.1543,3.2307,3.2501,3.2624,3.3083,3.3199,3.3229,3.3332,3.3346,3.3451,3.3741,3.3807,3.3807,3.3807,3.3807,3.3807,3.3807,3.3807,3.3807,3.3807,3.3536,3.3473,3.3762,3.3807,3.3807,3.3807,3.3807,3.3807,3.3807,3.3807,3.3807,3.3807,3.3807,3.3807,3.3807,3.3807,3.3807,3.3807,3.3807,3.3807,3.3807,3.3807,3.413,3.4692,3.4692,3.5176,3.5983,3.6277,3.6838,3.7549,3.8166,3.8875,3.9537,3.9537,3.9711,4.0007,2.8379,2.9191,2.9794,2.9794,2.9794,2.9706,2.944,2.91,2.8896,2.8896,2.8367,2.7981,2.7981,2.776,2.76,2.76,2.76,2.771,2.7984,2.8626,2.9237,2.9772,3.0445,3.0928,3.119,3.12,3.1369,3.1674,3.1674,3.186,3.2165,3.2628,3.3078,3.3526,3.403,3.4093,3.3835,3.3645,3.3688,3.395,3.4702,3.5387,0.0,3.5649,3.5778,3.601,3.5049,3.4149,3.3403,3.3403,3.3117,3.2791,3.2791,3.2503,3.2154,3.2154,3.1928,3.1724,3.1932,3.1734,3.1638,3.2324,3.2501,3.2624,3.3083,3.3199,3.3251,3.3437,3.3465,3.3487,3.3529,3.3687,3.3807,3.3807,3.3807,3.3807,3.3807,3.3807,3.3807,3.3807,3.3592,3.355,3.3787,3.3634,3.3606,3.3793,3.3807,3.3807,3.3807,3.3807,3.3807,3.3807,3.3807,3.3807,3.3807,3.3807,3.3807,3.3807,3.3807,3.3984,3.4314,3.4314,3.4791,3.5562,3.5562,3.6108,3.7015,3.7318,3.7921,3.8677,3.9009,3.9613,4.0267,4.0267,4.0267,4.0304,2.8591,2.964,3.0425,3.0425,3.0345,3.0102,2.9485,2.9327,2.9282,2.9282,2.8826,2.8499,2.8499,2.8104,2.7863,2.7966,2.7981,2.8232,2.8883,2.8974,2.9484,3.053,3.0664,3.0952,3.1485,3.1478,3.1809,3.2446,3.2446,3.2815,3.3532,3.4047,3.4492,3.4932,3.5457,3.5669,3.5572,3.5204,3.5074,3.5198,3.5954,3.6282,3.6431,3.705,3.73,3.7219,3.6687,3.5337,3.3784,3.3712,3.3659,3.3647,3.3657,3.3624,3.3601,3.3601,3.3134,3.2725,3.3142,3.2671,3.217,3.2626,3.2662,3.2697,3.3116,3.3199,3.3295,3.3659,3.3721,3.3638,3.3332,3.3564,3.3807,3.3807,3.3807,3.3807,3.3807,3.3807,3.3807,3.3807,3.3748,0.0,3.3782,3.3487,3.3411,3.3768,3.3807,3.3807,3.3807,3.3807,3.3807,3.3807,3.3807,3.3807,3.3807,3.3807,3.3807,3.3807,3.3917,3.4314,3.4997,3.5126,3.5635,3.6457,3.6496,3.7093,3.8082,3.848,3.9053,3.9746,4.0042,4.0285,4.0496,4.0496,4.0496,4.0496,2.9761,3.0566,3.1035,3.1035,3.0638,3.0102,2.9485,2.8989,2.8665,2.8665,2.8571,2.8499,2.8499,2.8861,2.9333,2.9934,2.9982,3.0295,3.1003,3.1521,3.1887,3.2105,3.2586,3.2913,3.3007,3.3017,3.3085,3.322,3.322,3.3502,3.4076,3.4501,3.4976,3.5481,3.5953,3.5971,3.5608,3.5757,3.6051,3.6536,3.7277,3.782,3.8193,3.79,3.7772,3.7703,3.7238,3.6549,3.5808,3.5358,3.5111,3.4976,3.4962,3.4828,3.464,3.464,3.4552,3.4455,3.4535,3.3979,3.3481,3.3944,3.3579,3.309,3.3184,3.3199,3.3221,3.3288,3.3302,3.3375,3.3652,3.3748,3.3807,3.3807,3.3807,3.3807,3.3807,3.3807,3.3807,3.3807,3.3508,3.3444,3.378,3.3734,3.3721,3.3782,3.3807,3.3807,3.3807,3.3807,3.3807,3.3807,3.3807,3.3807,3.3807,3.3807,3.3807,3.3807,3.4472,3.4857,3.5016,3.5745,3.653,3.7305,3.7514,3.8102,3.8935,3.9543,4.001,4.0349,4.0406,4.0461,4.0496,4.0496,4.0496,4.0496,3.0123,3.0797,3.1095,3.0797,3.023,2.9728,2.944,2.9218,2.9055,2.8978,2.9562,3.0003,3.0003,3.0328,3.068,3.1041,3.1068,3.1213,3.1578,3.2161,3.2496,3.2496,3.3074,3.3396,3.3396,3.3396,3.3592,3.3964,3.4253,3.4702,0.0,3.6068,3.6545,3.6816,3.7322,3.7416,3.7221,3.7349,3.7545,3.783,3.817,3.8473,3.8663,3.8412,3.8305,3.8242,3.7741,3.7405,3.7099,3.6606,3.6362,3.6292,3.6285,3.6209,3.6086,3.6086,3.5802,3.5519,3.5781,3.5277,3.4792,3.5265,3.5089,3.4688,3.4244,3.4127,3.4018,3.3606,3.3515,3.3564,3.3762,3.3638,3.3557,3.378,3.3807,3.3807,3.3807,3.3807,3.3807,3.3807,3.3638,3.3578,3.3775,3.3807,3.3807,3.3807,3.3807,3.3807,3.3807,3.3807,3.3807,3.3807,3.3807,3.3807,3.3807,3.3807,3.4002,3.4424,3.4821,3.5463,3.6303,3.6732,3.7356,3.8132,3.841,3.8838,3.9408,4.0053,4.0381,4.0496,4.0496,4.0496,4.0496,4.0496,4.0496,4.0496,3.0187,3.0679,3.0828,3.0219,2.9717,2.9454,2.9609,2.9823,2.9899,2.966,3.0804,3.1622,3.1622,3.1841,3.2052,3.221,3.221,3.2275,3.2438,3.2884,3.3167,3.3167,3.3609,3.3869,3.3869,3.3869,3.414,3.4726,3.526,3.5784,3.6319,3.7398,3.7963,3.809,3.8504,3.8699,3.8699,3.8699,3.8699,3.8699,3.8699,3.8699,3.8699,3.8699,3.8699,3.8637,3.8224,3.808,3.8005,3.7639,3.743,3.735,3.7357,3.7433,3.7515,3.7515,3.7059,3.6647,3.7025,3.6586,3.609,3.6457,3.6439,3.6119,3.5426,3.5279,3.5041,3.4222,3.3917,3.3807,3.3807,3.3543,3.3419,3.3741,3.3807,3.3807,3.3807,3.3807,3.3807,3.3807,3.3807,3.3807,3.3807,3.3807,3.3822,3.3876,3.3829,3.3807,3.3807,3.3807,3.3822,3.3876,3.3829,3.392,3.4159,3.4086,3.4479,3.5279,3.5445,3.6229,3.7518,3.7746,3.8181,3.8803,3.9157,3.9492,3.9826,4.0296,4.0496,4.0496,4.0496,4.0496,4.0496,4.0496,4.0496,4.0496,3.0187,3.0362,3.0198,2.9585,2.944,2.9626,3.0296,3.0861,3.1039,3.0461,3.156,3.2397,3.2397,3.2905,3.3511,3.4178,3.4229,3.4504,3.5183,3.5279,3.5313,3.5313,3.5357,3.538,3.538,3.538,3.543,3.5509,3.6036,3.6178,3.5973,3.7282,3.8167,3.8627,3.8684,3.8699,3.8699,3.8699,3.8699,3.8699,3.8699,3.8699,3.8699,3.8699,3.8699,3.8681,3.8637,3.8618,3.8629,3.8578,3.8243,3.7824,3.7837,3.8167,3.8554,3.8554,3.8517,3.8452,3.8502,3.792,3.7319,3.7375,3.6842,3.6273,3.6193,3.6174,3.5936,3.5078,3.4314,3.3807,3.3807,3.3762,3.3755,3.3782,3.3807,3.3807,3.3807,3.3807,3.3807,3.3807,3.3807,3.3807,3.3807,3.3807,3.3902,3.4147,3.3929,3.3807,3.3807,3.3807,3.3915,3.414,3.3935,3.4297,3.5324,3.504,3.5316,3.6193,3.6916,3.7345,3.7526,3.8505,3.8984,3.9092,3.9737,4.0157,4.0422,4.0481,4.0496,4.0496,4.0496,4.0496,4.0496,4.0496,4.0496,4.0496,3.0113,3.0293,3.0361,3.0571,3.0603,3.0859,3.1599,3.2289,3.2761,3.2873,3.3367,3.37,3.37,3.4307,3.485,3.5137,3.5154,3.5289,3.5583,3.56,3.56,3.56,3.56,3.56,3.56,3.56,3.56,3.56,3.646,3.6813,3.6695,3.7514,3.8005,3.8224,3.8554,3.8699,3.8699,3.8699,3.8699,3.8699,3.8699,3.8699,3.8699,3.8699,3.8699,3.8699,3.8699,3.8699,3.8699,3.8699,3.8556,3.8389,3.8376,3.853,3.8699,3.8699,3.8699,3.8699,3.8699,3.8469,3.8212,3.8212,3.7973,3.7606,3.7136,3.7008,3.6787,3.5947,3.5121,3.4509,3.4509,3.413,3.3807,3.3807,3.3807,3.3807,3.3807,3.3807,3.3807,3.3807,3.3807,3.3807,3.3807,3.3807,3.3915,3.4189,3.3948,3.3863,3.4031,3.3883,3.391,3.4188,3.4402,3.4838,3.5497,3.5693,3.6193,3.7008,3.7345,3.7742,3.8245,3.883,3.9314,3.9726,3.9987,4.0245,4.0496,4.0496,4.0496,4.0496,4.0496,4.0496,4.0496,4.0496,4.0496,4.0496,3.0157,3.051,3.0804,3.1368,3.161,3.1968,3.2705,3.3409,3.4102,3.4749,3.4827,3.4827,3.4827,3.5289,3.56,3.56,3.56,3.56,3.56,3.56,3.56,3.56,3.56,3.56,3.56,3.5761,3.5849,3.5849,3.6894,3.7272,3.7058,3.7552,3.7906,3.8158,3.8538,3.8699,3.8699,3.8699,3.8699,3.8699,3.8699,3.8699,3.8699,3.8699,3.8699,3.8699,3.8699,3.8699,3.8699,3.8699,3.8699,3.8699,3.8699,3.8699,3.8699,3.8699,3.8699,3.8699,3.8699,3.8699,3.8699,3.8699,3.8699,3.856,3.7981,3.7852,3.7613,3.6824,3.5973,3.5298,3.5059,3.4546,3.4082,3.3844,3.3807,3.3807,3.3807,3.3807,3.3807,3.3807,3.3807,3.3807,3.3807,3.3807,3.3915,3.4189,3.3948,3.3922,3.4201,3.3942,3.4039,3.4579,3.4838,3.5378,3.6193,3.6505,3.711,3.7981,3.7981,3.8326,3.897,3.9269,3.9701,4.0213,4.0213,4.033,4.0496,4.0496,4.0496,4.0496,4.0496,4.0496,4.0496,4.0496,4.0496,4.0496,3.0355,3.0972,3.1429,3.1572,3.2087,3.2738,3.3482,3.4097,3.4748,3.5481,3.5583,3.5583,3.5583,3.5583,3.56,3.56,3.56,3.56,3.56,3.56,3.56,3.56,3.56,3.56,3.56,3.6118,3.6385,3.6385,3.7397,3.7479,3.6723,3.7244,3.7936,3.8692,3.8699,3.8699,3.8699,3.8699,3.8699,3.8699,3.8699,3.8699,3.8699,3.8699,3.8699,3.8699,3.8699,3.8699,3.8699,3.8699,3.8699,3.8699,3.8699,3.8699,3.8699,3.8699,3.8699,3.8699,3.8699,3.8699,3.8699,3.8699,3.8699,3.8699,3.8689,3.8689,3.8469,3.7658,3.6842,3.6028,3.5169,3.4997,3.4729,3.3935,3.3807,3.3807,3.3807,3.3807,3.3807,3.3807,3.3807,3.3807,3.3807,3.3807,3.3915,3.4189,3.3948,3.3922,3.4201,3.3942,3.4322,3.5454,3.5177,3.5913,3.7842,3.7612,3.8021,3.908,3.908,3.9264,3.9599,3.9951,4.0232,4.0492,4.0492,4.0492,4.0496,4.0496,4.0496,4.0496,4.0496,4.0496,4.0496,4.0496,4.0496,4.0496,3.1655,3.2026,3.2458,3.34,3.374,3.4119,3.4857,3.5127,3.534,3.5566,3.56,3.56,3.56,3.56,3.56,3.56,3.56,3.56,3.56,3.56,3.56,3.56,3.56,3.5772,3.6139,3.6301,3.659,3.695,3.7596,3.7759,3.7533,3.8073,3.8259,3.8175,3.8538,3.8699,3.8699,3.8699,3.8699,3.8699,3.8699,3.8699,3.8699,3.8699,3.8699,3.8726,3.8914,3.8869,3.8726,3.8914,3.8851,3.8699,3.8699,3.8699,3.8699,3.8699,3.8699,3.8699,3.8699,3.8699,3.8699,3.8699,3.8699,3.8699,3.8699,3.8699,3.8634,3.8377,3.7687,3.7026,3.6769,3.6266,3.5807,3.555,3.5011,3.4619,3.4619,3.4156,3.3807,3.3807,3.3807,3.3807,3.3807,3.3807,3.4011,3.4502,3.4242,3.4105,3.4206,3.4464,3.488,3.5473,3.6272,3.7088,3.7898,3.8363,3.8755,3.9093,3.9327,3.9616,3.9938,4.0042,4.026,4.0496,4.0496,4.0496,4.0496,4.0496,4.0496,4.0496,4.0496,4.0496,4.0496,4.0496,4.0496,4.0496,3.27,3.31,3.3606,3.4721,3.4912,3.5081,3.5532,3.56,3.56,3.56,3.56,3.56,3.56,3.56,3.56,3.56,3.56,3.56,3.56,3.56,3.56,3.56,3.5788,3.6071,3.6385,3.6766,3.7135,3.746,3.7964,3.82,3.8208,3.8546,3.853,3.8208,3.8554,3.8699,3.8699,3.8699,3.8699,3.8699,3.8699,3.8699,3.8704,3.8807,3.8844,3.8888,3.9183,3.9179,3.9057,3.9224,3.9183,3.9049,3.9044,3.9036,3.8998,3.8773,3.8699,3.8699,3.8699,3.8699,3.8699,3.8699,3.8699,3.8699,3.8699,3.8699,3.8699,3.8699,3.8303,3.7852,3.7566,3.7088,3.6659,3.634,3.5837,3.5488,3.5488,3.5055,3.4743,3.4743,3.4743,3.4743,3.4743,3.4743,3.4929,3.5424,3.5263,3.5197,3.5312,3.5336,3.5727,3.6555,3.7403,3.8054,3.8521,3.9052,3.9346,3.9487,3.9794,4.0058,4.0241,4.0241,4.0343,4.0496,4.0496,4.0496,4.0496,4.0496,4.0496,4.0496,4.0496,4.0496,4.0496,4.0496,4.0496,4.0496,3.3594,3.4181,3.4793,3.5492,3.56,3.56,3.56,3.56,3.56,3.56,3.56,3.56,3.56,3.56,3.56,3.56,3.56,3.56,3.56,3.5627,3.5667,3.5667,3.6171,3.6467,3.6491,3.7415,3.7929,3.7963,3.8457,3.8699,3.8699,3.8699,3.8699,3.8699,3.8699,3.8699,3.8699,3.8699,3.8699,3.8707,3.8712,3.8727,3.8762,3.9029,3.9133,3.9178,3.9513,3.9613,3.9597,3.9628,3.9619,3.9607,3.96,3.9605,3.9484,3.8927,3.875,3.8727,3.8727,3.8704,3.8699,3.8699,3.8699,3.8699,3.8699,3.8699,3.8699,3.8699,3.8699,3.8469,3.7731,3.7584,3.7345,3.6585,3.642,3.6384,3.6384,3.6347,3.631,3.631,3.631,3.631,3.631,3.6313,3.6434,3.6708,3.6752,3.6926,3.7329,3.6586,3.6838,3.8357,3.8452,3.8843,3.958,3.9622,3.9803,4.0129,4.0377,4.0496,4.0496,4.0496,4.0496,4.0496,4.0496,4.0496,4.0496,4.0496,4.0496,4.0496,4.0496,4.0496,4.0496,4.0496,4.0496,4.0496,3.4991,3.5234,3.5391,3.5566,3.56,3.56,3.56,3.56,3.56,3.56,3.56,3.56,3.56,3.56,3.56,3.56,3.56,3.56,3.56,3.5968,3.6214,3.6214,3.6724,3.7182,3.7551,3.7781,3.8099,3.8504,3.8635,3.8699,3.8699,3.8699,3.8699,3.8699,3.8699,3.8699,3.8699,3.8699,3.8699,3.8712,3.893,3.9013,3.9034,3.9354,3.9489,3.9527,3.986,3.9813,3.963,3.9889,3.981,3.959,3.9609,3.9606,3.957,3.9421,3.921,3.9013,3.9013,3.8866,3.8699,3.8699,3.8699,3.8699,3.8699,3.8699,3.8699,3.8699,3.8699,3.8644,3.845,3.8414,3.8358,3.8157,3.7613,3.7217,3.7217,3.6696,3.631,3.631,3.631,3.631,3.631,3.6483,3.6715,3.6993,3.7231,3.779,3.875,3.8609,3.8464,3.8393,3.9007,3.9416,3.9599,3.9845,4.012,4.0421,4.0473,4.0496,4.0496,4.0496,4.0496,4.0496,4.0496,4.0496,4.0496,4.0496,4.0496,4.0496,4.0496,4.0496,4.0496,4.0496,4.0496,4.0496,3.5526,3.56,3.56,3.56,3.56,3.56,3.56,3.56,3.5683,3.593,3.5974,3.6054,3.6295,3.6326,3.6326,3.6326,3.6107,3.5974,3.5974,3.6478,3.6773,3.6773,3.7257,3.764,3.7885,3.815,3.8407,3.8699,3.8699,3.8699,3.8699,3.8699,3.8699,3.8699,3.8699,3.8699,3.8699,3.8699,3.8777,3.8906,3.9043,3.9186,3.9364,3.9708,3.9822,3.9875,4.0166,4.0174,4.0038,4.0219,4.0158,4.0019,4.0019,4.0019,4.0014,4.0019,3.9688,3.9327,3.9327,3.9104,3.8848,3.8735,3.8699,3.8699,3.8699,3.8699,3.8699,3.8699,3.8699,3.8699,3.8699,3.8699,3.8699,3.8699,3.8322,3.8054,3.8054,3.7661,3.7404,3.7404,3.7517,3.7574,3.7574,3.7846,3.8157,3.8448,3.8642,3.9075,3.9812,3.9842,3.9701,3.9371,3.9771,4.0014,4.0014,4.019,4.0356,4.0496,4.0496,4.0496,4.0496,4.0496,4.0496,4.0496,4.0496,4.0496,4.0496,4.0496,4.0496,4.0496,4.0496,4.0496,4.0496,4.0496,4.0496,4.0496,3.56,3.56,3.56,3.56,3.5678,3.5717,3.5717,3.5788,3.6,3.6467,3.6529,3.6694,3.7152,3.7209,3.7209,3.7209,3.6853,3.6593,3.6529,3.701,3.7304,3.7304,3.7755,3.8013,3.8013,3.8465,3.8699,3.8699,3.8699,3.8699,3.8699,3.8699,3.8699,3.8699,3.8699,3.8699,3.8707,3.8732,3.888,3.9119,3.9199,3.9414,3.9701,4.0042,4.0165,4.0187,4.0424,4.0496,4.0496,4.0496,4.0496,4.0496,4.0496,4.0496,4.0496,4.0496,4.0143,3.9729,3.9685,3.942,3.9112,3.8895,3.8807,3.8762,3.8762,3.8727,3.8699,3.8699,3.8699,3.8699,3.8699,3.8699,3.8699,3.8699,3.8699,3.8699,3.8699,3.8699,3.8699,3.8699,3.8933,3.9105,3.9105,3.9444,3.9792,4.0081,4.0134,4.025,4.0485,4.0496,4.0496,4.0496,4.0496,4.0496,4.0496,4.0496,4.0496,4.0496,4.0496,4.0496,4.0496,4.0496,4.0496,4.0496,4.0496,4.0496,4.0496,4.0496,4.0496,4.0496,4.0496,4.0496,4.0496,4.0496,4.0496,4.0496,3.56,3.56,3.56,3.56,3.5957,3.6287,3.6287,3.6664,3.6981,3.7049,3.7086,3.7114,3.7182,3.7209,3.7209,3.7209,3.7497,3.7506,3.7097,3.7524,3.779,3.779,3.8291,3.8588,3.8588,3.8669,3.8699,3.8699,3.8699,3.8699,3.8699,3.8699,3.8699,3.8699,3.8699,3.8699,3.8704,3.894,3.9051,3.914,3.9726,3.9982,4.0047,4.0339,4.0444,4.0447,4.0492,4.0496,4.0496,4.0496,4.0496,4.0496,4.0496,4.0496,4.0496,4.0496,4.043,4.0315,4.0081,3.9781,3.9517,3.9463,3.9244,3.9036,3.9036,3.8855,3.8699,3.8699,3.8699,3.8699,3.8699,3.8699,3.8699,3.8699,3.8699,3.8699,3.8699,3.8699,3.8699,3.8699,3.8933,3.9105,3.9105,3.9656,4.0037,4.0096,4.0317,4.0461,4.0492,4.0496,4.0496,4.0496,4.0496,4.0496,4.0496,4.0496,4.0496,4.0496,4.0496,4.0496,4.0496,4.0496,4.0496,4.0496,4.0496,4.0496,4.0496,4.0496,4.0496,4.0496,4.0496,4.0496,4.0496,4.0496,4.0496,4.0496,3.56,3.56,3.5683,3.5985,3.6245,3.6498,3.6793,3.7047,3.7285,3.7542,3.7578,3.7694,3.7982,3.8007,3.8007,3.8007,3.821,3.8242,3.8024,3.8218,3.8324,3.8324,3.857,3.8699,3.8699,3.8699,3.8699,3.8699,3.8699,3.8699,3.8699,3.8699,3.8699,3.8699,3.8699,3.8773,3.8912,3.9049,3.9302,3.9662,3.9982,4.0181,4.0334,4.0457,4.0496,4.0496,4.0496,4.0496,4.0496,4.0496,4.0496,4.0496,4.0496,4.0496,4.0496,4.0496,4.0496,4.0449,4.0172,3.9992,3.9838,3.9645,3.9474,3.9364,3.9364,3.9275,3.9176,3.9176,3.9176,3.9176,3.9176,3.9038,3.8968,3.9168,3.891,3.8822,3.9141,3.9031,3.8975,3.9149,3.9445,3.9639,3.9639,4.0053,4.0321,4.0321,4.0437,4.0496,4.0496,4.0496,4.0496,4.0496,4.0496,4.0496,4.0496,4.0496,4.0496,4.0496,4.0496,4.0496,4.0496,4.0496,4.0496,4.0496,4.0496,4.0496,4.0496,4.0496,4.0496,4.0496,4.0496,4.0496,4.0496,4.0496,4.0496,4.0496,3.56,3.5694,3.592,3.6322,3.6593,3.6884,3.7304,3.7469,3.7676,3.804,3.8082,3.8232,3.8669,3.8699,3.8699,3.8699,3.8699,3.8699,3.8699,3.8699,3.8699,3.8699,3.8699,3.8699,3.8699,3.8699,3.8699,3.8699,3.8699,3.8699,3.8699,3.8699,3.8735,3.8788,3.8788,3.8959,3.9212,3.9295,3.9628,4.0105,4.0167,4.0321,4.0496,4.0496,4.0496,4.0496,4.0496,4.0496,4.0496,4.0496,4.0496,4.0496,4.0496,4.0496,4.0496,4.0496,4.0496,4.0461,4.0241,4.019,4.0125,3.9863,3.9757,3.9726,3.9726,3.9651,3.9599,3.9599,3.9599,3.9599,3.9599,3.9383,3.9295,3.9564,3.9209,3.9071,3.9535,3.9377,3.9308,3.9576,3.9896,4.0101,4.0101,4.0343,4.0496,4.0496,4.0496,4.0496,4.0496,4.0496,4.0496,4.0496,4.0496,4.0496,4.0496,4.0496,4.0496,4.0496,4.0496,4.0496,4.0496,4.0496,4.0496,4.0496,4.0496,4.0496,4.0496,4.0496,4.0496,4.0496,4.0496,4.0496,4.0496,4.0496,4.0496,4.0496,3.56,3.6006,3.6343,3.6385,3.7164,3.7807,3.7842,3.8267,3.8604,3.8635,3.8635,3.8669,3.8699,3.8699,3.8699,3.8699,3.8699,3.8699,3.8699,3.8699,3.8699,3.8699,3.8699,3.8699,3.8699,3.8699,3.8699,3.8699,3.8699,3.8699,3.8699,3.8699,3.8837,3.9065,3.9065,3.9244,3.9587,3.9896,4.0042,4.012,4.0368,4.0481,4.0496,4.0496,4.0496,4.0496,4.0496,4.0496,4.0496,4.0496,4.0496,4.0496,4.0496,4.0496,4.0496,4.0496,4.0496,4.0492,4.0477,4.0473,4.0469,4.0434,4.025,4.0052,4.0052,3.9819,3.9599,3.9599,3.9599,3.9599,3.9599,3.9582,3.9576,3.9599,3.9564,3.9547,3.9593,3.9582,3.9576,3.9599,3.9896,4.0101,4.0101,4.0343,4.0496,4.0496,4.0496,4.0496,4.0496,4.0496,4.0496,4.0496,4.0496,4.0496,4.0496,4.0496,4.0496,4.0496,4.0496,4.0496,4.0496,4.0496,4.0496,4.0496,4.0496,4.0496,4.0496,4.0496,4.0496,4.0496,4.0496,4.0496,4.0496,4.0496,4.0496,4.0496,3.56,3.6022,3.6508,3.6843,3.7443,3.8005,3.835,3.857,3.8699,3.8699,3.8699,3.8699,3.8699,3.8699,3.8699,3.8699,3.8699,3.8699,3.8699,3.8699,3.8699,3.8699,3.8699,3.8699,3.8699,3.8699,3.8699,3.8699,3.8862,3.8947,3.8954,3.9163,3.9314,3.9401,3.9401,3.9599,3.9917,4.0056,4.019,4.0356,4.0461,4.0496,4.0496,4.0496,4.0496,4.0496,4.0496,4.0496,4.0496,4.0496,4.0496,4.0496,4.0496,4.0496,4.0496,4.0496,4.0496,4.0496,4.0496,4.0496,4.0496,4.0496,4.0414,4.0351,4.0351,4.0244,4.0161,4.0161,4.0161,4.0161,4.0161,4.0028,3.9968,4.0134,3.9842,3.9735,4.0115,4.0018,3.9973,4.0143,4.0276,4.0351,4.0351,4.0449,4.0496,4.0496,4.0496,4.0496,4.0496,4.0496,4.0496,4.0496,4.0496,4.0496,4.0496,4.0496,4.0496,4.0496,4.0496,4.0496,4.0496,4.0496,4.0496,4.0496,4.0496,4.0496,4.0496,4.0496,4.0496,4.0496,4.0496,4.0496,4.0496,4.0496,4.0496,4.0496,3.581,3.6281,3.6805,3.7332,3.7825,3.8275,3.8643,3.8699,3.8699,3.8699,3.8699,3.8699,3.8699,3.8699,3.8699,3.8699,3.8699,3.8699,3.8699,3.8699,3.8699,3.8699,3.8699,3.8699,3.8699,3.8699,3.8699,3.8699,3.8975,3.9105,3.9112,3.9438,3.9651,3.9759,3.9759,3.9938,4.0237,4.0237,4.0334,4.0496,4.0496,4.0496,4.0496,4.0496,4.0496,4.0496,4.0496,4.0496,4.0496,4.0496,4.0496,4.0496,4.0496,4.0496,4.0496,4.0496,4.0496,4.0496,4.0496,4.0496,4.0496,4.0496,4.0496,4.0496,4.0496,4.0496,4.0496,4.0496,4.0496,4.0496,4.0496,4.0351,4.0295,4.0473,4.0157,4.0029,4.0434,4.0343,4.0281,4.0477,4.0496,4.0496,4.0496,4.0496,4.0496,4.0496,4.0496,4.0496,4.0496,4.0496,4.0496,4.0496,4.0496,4.0496,4.0496,4.0496,4.0496,4.0496,4.0496,4.0496,4.0496,4.0496,4.0496,4.0496,4.0496,4.0496,4.0496,4.0496,4.0496,4.0496,4.0496,4.0496,4.0496,4.0496,4.0496,4.0496,3.6308,3.6833,3.735,3.7816,3.8332,3.8699,3.8699,3.8699,3.8699,3.8699,3.8699,3.8699,3.8699,3.8699,3.8699,3.8699,3.8699,3.8699,3.8699,3.8699,3.8699,3.8699,3.8699,3.8699,3.8707,3.8707,3.8707,3.8715,3.899,3.9119,3.9125,3.9444,3.9786,4.0101,4.0101,4.0245,4.0496,4.0496,4.0496,4.0496,4.0496,4.0496,4.0496,4.0496,4.0496,4.0496,4.0496,4.0496,4.0496,4.0496,4.0496,4.0496,4.0496,4.0496,4.0496,4.0496,4.0496,4.0496,4.0496,4.0496,4.0496,4.0496,4.0496,4.0496,4.0496,4.0496,4.0496,4.0496,4.0496,4.0496,4.0496,4.0496,4.0496,4.0496,4.0496,4.0496,4.0496,4.0496,4.0496,4.0496,4.0496,4.0496,4.0496,4.0496,4.0496,4.0496,4.0496,4.0496,4.0496,4.0496,4.0496,4.0496,4.0496,4.0496,4.0496,4.0496,4.0496,4.0496,4.0496,4.0496,4.0496,4.0496,4.0496,4.0496,4.0496,4.0496,4.0496,4.0496,4.0496,4.0496,4.0496,4.0496,4.0496,4.0496,4.0496,4.0496,3.6364,3.7106,3.7737,3.7886,3.8332,3.8699,3.8699,3.8699,3.8699,3.8699,3.8699,3.8699,3.8699,3.8699,3.8699,3.8699,3.8699,3.8699,3.8699,3.8699,3.8699,3.8699,3.8699,3.8788,3.899,3.8978,3.9102,3.9327,3.9652,3.9797,3.9808,4.0101,4.0274,4.0377,4.0377,4.0433,4.0496,4.0496,4.0496,4.0496,4.0496,4.0496,4.0496,4.0496,4.0496,4.0496,4.0496,4.0496,4.0496,4.0496,4.0496,4.0496,4.0496,4.0496,4.0496,4.0496,4.0496,4.0496,4.0496,4.0496,4.0496,4.0496,4.0496,4.0496,4.0496,4.0496,4.0496,4.0496,4.0496,4.0496,4.0496,4.0496,4.0496,4.0496,4.0496,4.0496,4.0496,4.0496,4.0496,4.0496,4.0496,4.0496,4.0496,4.0496,4.0496,4.0496,4.0496,4.0496,4.0496,4.0496,4.0496,4.0496,4.0496,4.0496,4.0496,4.0496,4.0496,4.0496,4.0496,4.0496,4.0496,4.0496,4.0496,4.0496,4.0496,4.0496,4.0496,4.0496,4.0496,4.0496,4.0496,4.0496,4.0496,4.0496,4.0496,4.0496,3.6923,3.7479,3.7971,3.8183,3.8481,3.8699,3.8699,3.8699,3.8699,3.8699,3.8699,3.8699,3.8699,3.8699,3.8699,3.8699,3.8699,3.8699,3.8699,3.8699,3.8757,3.8848,3.8855,3.8926,3.9099,3.9225,3.9389,3.9599,3.9932,4.0101,4.0105,4.0372,4.0496,4.0496,4.0496,4.0496,4.0496,4.0496,4.0496,4.0496,4.0496,4.0496,4.0496,4.0496,4.0496,4.0496,4.0496,4.0496,4.0496,4.0496,4.0496,4.0496,4.0496,4.0496,4.0496,4.0496,4.0496,4.0496,4.0496,4.0496,4.0496,4.0496,4.0496,4.0496,4.0496,4.0496,4.0496,4.0496,4.0496,4.0496,4.0496,4.0496,4.0496,4.0496,4.0496,4.0496,4.0496,4.0496,4.0496,4.0496,4.0496,4.0496,4.0496,4.0496,4.0496,4.0496,4.0496,4.0496,4.0496,4.0496,4.0496,4.0496,4.0496,4.0496,4.0496,4.0496,4.0496,4.0496,4.0496,4.0496,4.0496,4.0496,4.0496,4.0496,4.0496,4.0496,4.0496,4.0496,4.0496,4.0496,4.0496,4.0496,4.0496,4.0496,4.0496,4.0496,3.772,3.7946,3.8133,3.8619,3.8699,3.8699,3.8699,3.8699,3.8699,3.8699,3.8699,3.8699,3.8699,3.8699,3.8699,3.8699,3.8699,3.8699,3.8699,3.8719,3.8833,3.9092,3.9172,3.9179,3.9179,3.9499,3.9656,3.9685,3.9997,4.0134,4.0139,4.0381,4.0496,4.0496,4.0496,4.0496,4.0496,4.0496,4.0496,4.0496,4.0496,4.0496,4.0496,4.0496,4.0496,4.0496,4.0496,4.0496,4.0496,4.0496,4.0496,4.0496,4.0496,4.0496,4.0496,4.0496,4.0496,4.0496,4.0496,4.0496,4.0496,4.0496,4.0496,4.0496,4.0496,4.0496,4.0496,4.0496,4.0496,4.0496,4.0496,4.0496,4.0496,4.0496,4.0496,4.0496,4.0496,4.0496,4.0496,4.0496,4.0496,4.0496,4.0496,4.0496,4.0496,4.0496,4.0496,4.0496,4.0496,4.0496,4.0496,4.0496,4.0496,4.0496,4.0496,4.0496,4.0496,4.0496,4.0496,4.0496,4.0496,4.0496,4.0496,4.0496,4.0496,4.0496,4.0496,4.0496,4.0496,4.0496,4.0496,4.0496,4.0496,4.0496,4.0496,4.0496,3.7859,3.8251,3.8562,3.8684,3.8699,3.8699,3.8699,3.8699,3.8699,3.8699,3.8699,3.8699,3.8699,3.8699,3.8699,3.8699,3.8699,3.8699,3.8699,3.8906,3.9043,3.9105,3.9605,3.9886,3.9886,3.9948,4.0101,4.0296,4.0381,4.0406,4.0406,4.0473,4.0496,4.0496,4.0496,4.0496,4.0496,4.0496,4.0496,4.0496,4.0496,4.0496,4.0496,4.0496,4.0496,4.0496,4.0496,4.0496,4.0496,4.0496,4.0496,4.0496,4.0496,4.0496,4.0496,4.0496,4.0496,4.0496,4.0496,4.0496,4.0496,4.0496,4.0496,4.0496,4.0496,4.0496,4.0496,4.0496,4.0496,4.0496,4.0496,4.0496,4.0496,4.0496,4.0496,4.0496,4.0496,4.0496,4.0496,4.0496,4.0496,4.0496,4.0496,4.0496,4.0496,4.0496,4.0496,4.0496,4.0496,4.0496,4.0496,4.0496,4.0496,4.0496,4.0496,4.0496,4.0496,4.0496,4.0496,4.0496,4.0496,4.0496,4.0496,4.0496,4.0496,4.0496,4.0496,4.0496,4.0496,4.0496,4.0496,4.0496,4.0496,4.0496,4.0496,4.0496,3.8224,3.8504,3.8699,3.8699,3.8699,3.8699,3.8699,3.8699,3.8699,3.8699,3.8699,3.8699,3.8699,3.8699,3.8699,3.8699,3.8699,3.8699,3.8699,3.8829,3.9034,3.9339,3.9668,3.9993,4.0276,4.03,4.036,4.0496,4.0496,4.0496,4.0496,4.0496,4.0496,4.0496,4.0496,4.0496,4.0496,4.0496,4.0496,4.0496,4.0496,4.0496,4.0496,4.0496,4.0496,4.0496,4.0496,4.0496,4.0496,4.0496,4.0496,4.0496,4.0496,4.0496,4.0496,4.0496,4.0496,4.0496,4.0496,4.0496,4.0496,4.0496,4.0496,4.0496,4.0496,4.0496,4.0496,4.0496,4.0496,4.0496,4.0496,4.0496,4.0496,4.0496,4.0496,4.0496,4.0496,4.0496,4.0496,4.0496,4.0496,4.0496,4.0496,4.0496,4.0496,4.0496,4.0496,4.0496,4.0496,4.0496,4.0496,4.0496,4.0496,4.0496,4.0496,4.0496,4.0496,4.0496,4.0496,4.0496,4.0496,4.0496,4.0496,4.0496,4.0496,4.0496,4.0496,4.0496,4.0496,4.0496,4.0496,4.0496,4.0496,4.0496,4.0496,4.0496,3.8619,3.8699,3.8699,3.8699,3.8699,3.8699,3.8699,3.8699,3.8699,3.8699,3.8699,3.8699,3.8699,3.8699,3.8699,3.8699,3.8699,3.8699,3.8699,3.8799,3.9085,3.9582,3.9701,3.9994,4.0489,4.0496,4.0496,4.0496,4.0496,4.0496,4.0496,4.0496,4.0496,4.0496,4.0496,4.0496,4.0496,4.0496,4.0496,4.0496,4.0496,4.0496,4.0496,4.0496,4.0496,4.0496,4.0496,4.0496,4.0496,4.0496,4.0496,4.0496,4.0496,4.0496,4.0496,4.0496,4.0496,4.0496,4.0496,4.0496,4.0496,4.0496,4.0496,4.0496,4.0496,4.0496,4.0496,4.0496,4.0496,4.0496,4.0496,4.0496,4.0496,4.0496,4.0496,4.0496,4.0496,4.0496,4.0496,4.0496,4.0496,4.0496,4.0496,4.0496,4.0496,4.0496,4.0496,4.0496,4.0496,4.0496,4.0496,4.0496,4.0496,4.0496,4.0496,4.0496,4.0496,4.0496,4.0496,4.0496,4.0496,4.0496,4.0496,4.0496,4.0496,4.0496,4.0496,4.0496,4.0496,4.0496,4.0496,4.0496,4.0496,4.0496,4.0496,4.0496,3.8692,3.8699,3.8699,3.8699,3.8699,3.8699,3.8699,3.8699,3.8699,3.8699,3.8699,3.8699,3.8699,3.8699,3.8699,3.8699,3.8699,3.8699,3.8699,3.9201,3.9511,3.9599,4.0091,4.0418,4.0496,4.0496,4.0496,4.0496,4.0496,4.0496,4.0496,4.0496,4.0496,4.0496,4.0496,4.0496,4.0496,4.0496,4.0496,4.0496,4.0496,4.0496,4.0496,4.0496,4.0496,4.0496,4.0496,4.0496,4.0496,4.0496,4.0496,4.0496,4.0496,4.0496,4.0496,4.0496,4.0496,4.0496,4.0496,4.0496,4.0496,4.0496,4.0496,4.0496,4.0496,4.0496,4.0496,4.0496,4.0496,4.0496,4.0496,4.0496,4.0496,4.0496,4.0496,4.0496,4.0496,4.0496,4.0496,4.0496,4.0496,4.0496,4.0496,4.0496,4.0496,4.0496,4.0496,4.0496,4.0496,4.0496,4.0496,4.0496,4.0496,4.0496,4.0496,4.0496,4.0496,4.0496,4.0496,4.0496,4.0496,4.0496,4.0496,4.0496,4.0496,4.0496,4.0496,4.0496,4.0496,4.0496,4.0496,4.0496,4.0496,4.0496,4.0496,4.0496,3.8699,3.8699,3.8699,3.8699,3.8699,3.8699,3.8699,3.8699,3.8699,3.8699,3.8699,3.8699,3.8699,3.8699,3.8699,3.8699,3.8699,3.8699,3.8699,3.896,3.9249,3.9587,3.9853,4.0157,4.0489,4.0496,4.0496,4.0496,4.0496,4.0496,4.0496,4.0496,4.0496,4.0496,4.0496,4.0496,4.0496,4.0496,4.0496,4.0496,4.0496,4.0496,4.0496,4.0496,4.0496,4.0496,4.0496,4.0496,4.0496,4.0496,4.0496,4.0496,4.0496,4.0496,4.0496,4.0496,4.0496,4.0496,4.0496,4.0496,4.0496,4.0496,4.0496,4.0496,4.0496,4.0496,4.0496,4.0496,4.0496,4.0496,4.0496,4.0496,4.0496,4.0496,4.0496,4.0496,4.0496,4.0496,4.0496,4.0496,4.0496,4.0496,4.0496,4.0496,4.0496,4.0496,4.0496,4.0496,4.0496,4.0496,4.0496,4.0496,4.0496,4.0496,4.0496,4.0496,4.0496,4.0496,4.0496,4.0496,4.0496,4.0496,4.0496,4.0496,4.0496,4.0496,4.0496,4.0496,4.0496,4.0496,4.0496,4.0496,4.0496,4.0496,4.0496,4.0496]}]]